GEFSCGP_prec_meanprecacc_090.txt.gz
Total_Precipitation_Accumulation
0.00 0.00 0.00 0.00 0.00 0.00 0.00 0.00 0.00 0.00 0.00 0.00 0.00 0.00 0.00 0.00 0.00 0.00 0.00 0.00 0.00 0.00 0.00 0.00 0.00 0.00 0.00 0.00 0.00 0.00 0.00 0.00 0.00 0.00 0.00 0.00 0.00 0.00 0.00 0.00 0.00 0.00 0.00 0.00
0.00 0.00 0.00 0.00 0.00 0.00 0.00 0.00 0.00 0.00 0.00 0.00 0.00 0.00 0.00 0.00 0.00 0.00 0.00 0.00 0.00 0.00 0.00 0.00 0.00 0.00 0.00 0.00 0.00 0.00 0.00 0.00 0.00 0.00 0.00 0.00 0.00 0.00 0.00 0.00 0.00 0.00 0.00 0.00
0.00 0.00 0.00 0.00 0.00 0.00 0.00 0.00 0.00 0.00 0.00 0.00 0.00 0.00 0.00 0.00 0.00 0.00 0.00 0.00 0.00 0.00 0.00 0.00 0.00 0.00 0.00 0.00 0.00 0.00 0.00 0.00 0.00 0.00 0.00 0.00 0.00 0.00 0.00 0.00 0.00 0.00 0.00 0.00
0.00 0.00 0.00 0.00 0.00 0.00 0.00 0.00 0.00 0.00 0.00 0.00 0.00 0.00 0.00 0.00 0.00 0.00 0.00 0.00 0.00 0.00 0.00 0.00 0.00 0.00 0.00 0.00 0.00 0.00 0.00 0.00 0.00 0.00 0.00 0.00 0.00 0.00 0.00 0.00 0.00 0.00 0.00 0.00
0.00 0.00 0.00 0.00 0.00 0.00 0.00 0.00 0.00 0.00 0.00 0.00 0.00 0.00 0.00 0.00 0.00 0.00 0.00 0.00 0.00 0.00 0.00 0.00 0.00 0.00 0.00 0.00 0.00 0.00 0.00 0.00 0.00 0.00 0.00 0.00 0.00 0.00 0.00 0.00 0.00 0.00 0.00 0.00
0.00 0.00 0.00 0.00 0.00 0.00 0.00 0.00 0.00 0.00 0.00 0.00 0.00 0.00 0.00 0.00 0.00 0.00 0.00 0.00 0.00 0.00 0.00 0.00 0.00 0.00 0.00 0.00 0.00 0.00 0.00 0.00 0.00 0.00 0.00 0.00 0.00 0.00 0.00 0.00 0.00 0.00 0.01 0.01
0.00 0.00 0.00 0.00 0.00 0.00 0.00 0.00 0.00 0.00 0.00 0.00 0.00 0.00 0.00 0.00 0.00 0.00 0.00 0.00 0.00 0.00 0.00 0.00 0.00 0.00 0.00 0.00 0.00 0.00 0.00 0.00 0.00 0.00 0.00 0.00 0.00 0.00 0.00 0.00 0.00 0.01 0.02 0.02
0.00 0.00 0.00 0.00 0.00 0.00 0.00 0.00 0.00 0.00 0.00 0.00 0.00 0.00 0.00 0.00 0.00 0.00 0.00 0.00 0.00 0.00 0.00 0.00 0.00 0.00 0.00 0.00 0.00 0.00 0.00 0.00 0.00 0.00 0.00 0.00 0.00 0.00 0.00 0.00 0.00 0.01 0.02 0.02
0.00 0.00 0.00 0.00 0.00 0.00 0.00 0.00 0.00 0.00 0.00 0.00 0.00 0.00 0.00 0.00 0.00 0.00 0.00 0.00 0.00 0.00 0.00 0.00 0.00 0.00 0.00 0.00 0.00 0.00 0.00 0.00 0.00 0.00 0.00 0.00 0.00 0.00 0.00 0.00 0.00 0.01 0.01 0.01
0.00 0.00 0.00 0.00 0.00 0.00 0.00 0.00 0.00 0.00 0.00 0.00 0.00 0.00 0.00 0.00 0.00 0.00 0.00 0.00 0.00 0.00 0.00 0.00 0.00 0.00 0.00 0.00 0.00 0.00 0.00 0.00 0.00 0.00 0.00 0.00 0.00 0.00 0.00 0.00 0.00 0.00 0.00 0.00
0.00 0.00 0.00 0.00 0.00 0.00 0.00 0.00 0.00 0.00 0.00 0.00 0.00 0.00 0.00 0.00 0.00 0.00 0.00 0.00 0.00 0.00 0.00 0.00 0.00 0.00 0.00 0.00 0.00 0.00 0.00 0.00 0.00 0.00 0.00 0.00 0.00 0.00 0.00 0.00 0.00 0.00 0.00 0.00
0.00 0.00 0.00 0.00 0.00 0.00 0.00 0.00 0.00 0.00 0.00 0.00 0.00 0.00 0.00 0.00 0.00 0.00 0.00 0.00 0.00 0.00 0.00 0.00 0.00 0.00 0.00 0.00 0.00 0.00 0.00 0.00 0.00 0.00 0.00 0.00 0.00 0.00 0.00 0.00 0.00 0.00 0.00 0.00
0.00 0.01 0.01 0.00 0.00 0.00 0.00 0.00 0.00 0.00 0.00 0.00 0.00 0.00 0.00 0.00 0.00 0.00 0.00 0.00 0.00 0.00 0.00 0.00 0.00 0.00 0.00 0.00 0.00 0.00 0.00 0.00 0.00 0.00 0.00 0.00 0.00 0.00 0.00 0.00 0.00 0.00 0.00 0.00
0.00 0.00 0.00 0.00 0.00 0.00 0.00 0.00 0.00 0.00 0.00 0.00 0.00 0.00 0.00 0.00 0.00 0.00 0.00 0.00 0.00 0.00 0.00 0.00 0.00 0.00 0.00 0.00 0.00 0.00 0.00 0.00 0.00 0.00 0.00 0.00 0.00 0.00 0.00 0.00 0.00 0.00 0.00 0.00
0.00 0.00 0.00 0.00 0.00 0.00 0.00 0.00 0.00 0.00 0.00 0.00 0.00 0.00 0.00 0.00 0.00 0.00 0.00 0.00 0.00 0.00 0.00 0.00 0.00 0.00 0.00 0.00 0.00 0.00 0.00 0.00 0.00 0.00 0.00 0.00 0.00 0.00 0.00 0.00 0.00 0.00 0.00 0.00
0.00 0.00 0.00 0.00 0.00 0.00 0.00 0.00 0.00 0.00 0.00 0.00 0.00 0.00 0.00 0.00 0.00 0.00 0.00 0.00 0.00 0.00 0.00 0.00 0.00 0.00 0.00 0.00 0.00 0.00 0.00 0.00 0.00 0.00 0.00 0.00 0.00 0.00 0.00 0.00 0.00 0.00 0.00 0.01
0.00 0.00 0.00 0.00 0.00 0.00 0.00 0.00 0.00 0.00 0.00 0.00 0.00 0.00 0.00 0.00 0.00 0.00 0.00 0.00 0.00 0.00 0.00 0.00 0.00 0.00 0.00 0.00 0.00 0.00 0.00 0.00 0.00 0.00 0.00 0.00 0.00 0.00 0.00 0.00 0.00 0.00 0.01 0.01
0.00 0.00 0.00 0.00 0.00 0.00 0.00 0.00 0.00 0.00 0.00 0.00 0.00 0.00 0.00 0.00 0.00 0.00 0.00 0.00 0.00 0.00 0.00 0.00 0.00 0.00 0.00 0.00 0.00 0.00 0.00 0.00 0.00 0.00 0.00 0.00 0.00 0.00 0.00 0.00 0.00 0.01 0.01 0.01
0.00 0.00 0.00 0.00 0.00 0.00 0.00 0.00 0.00 0.00 0.00 0.00 0.00 0.00 0.00 0.00 0.00 0.00 0.00 0.00 0.00 0.00 0.00 0.00 0.00 0.00 0.00 0.00 0.00 0.00 0.00 0.00 0.00 0.00 0.00 0.00 0.00 0.00 0.00 0.00 0.01 0.01 0.01 0.02
0.00 0.00 0.00 0.00 0.00 0.00 0.00 0.00 0.00 0.00 0.00 0.00 0.00 0.00 0.00 0.00 0.00 0.00 0.00 0.00 0.00 0.00 0.00 0.00 0.00 0.00 0.00 0.00 0.00 0.00 0.00 0.00 0.00 0.00 0.00 0.00 0.00 0.00 0.00 0.01 0.01 0.01 0.01 0.02
0.00 0.00 0.00 0.00 0.00 0.00 0.00 0.00 0.00 0.00 0.00 0.00 0.00 0.00 0.00 0.00 0.00 0.00 0.00 0.00 0.00 0.00 0.00 0.00 0.00 0.00 0.00 0.00 0.00 0.00 0.00 0.00 0.00 0.00 0.00 0.00 0.00 0.00 0.01 0.01 0.01 0.02 0.02 0.02
0.00 0.00 0.00 0.00 0.00 0.00 0.00 0.00 0.00 0.00 0.00 0.00 0.00 0.00 0.00 0.00 0.00 0.00 0.00 0.00 0.00 0.00 0.00 0.00 0.00 0.00 0.00 0.00 0.00 0.00 0.00 0.00 0.00 0.00 0.00 0.00 0.00 0.00 0.01 0.01 0.02 0.02 0.03 0.03
0.00 0.00 0.00 0.00 0.00 0.00 0.00 0.00 0.00 0.00 0.00 0.00 0.00 0.00 0.00 0.00 0.00 0.00 0.00 0.00 0.00 0.00 0.00 0.00 0.00 0.00 0.00 0.00 0.00 0.00 0.00 0.00 0.00 0.00 0.00 0.00 0.00 0.00 0.01 0.02 0.03 0.03 0.04 0.06
0.00 0.00 0.00 0.00 0.00 0.00 0.00 0.00 0.00 0.00 0.00 0.00 0.00 0.00 0.00 0.00 0.00 0.00 0.00 0.00 0.00 0.00 0.00 0.00 0.00 0.00 0.00 0.00 0.00 0.00 0.00 0.00 0.00 0.00 0.00 0.00 0.00 0.01 0.02 0.03 0.04 0.05 0.08 0.16
0.00 0.00 0.00 0.00 0.00 0.00 0.00 0.00 0.00 0.00 0.00 0.00 0.00 0.00 0.00 0.00 0.00 0.00 0.00 0.00 0.00 0.00 0.00 0.00 0.00 0.00 0.00 0.00 0.00 0.00 0.00 0.00 0.00 0.00 0.00 0.00 0.01 0.02 0.03 0.03 0.04 0.06 0.09 0.22
0.00 0.00 0.00 0.00 0.00 0.00 0.00 0.00 0.00 0.00 0.00 0.00 0.00 0.00 0.00 0.00 0.00 0.00 0.00 0.00 0.00 0.00 0.00 0.00 0.00 0.00 0.00 0.00 0.00 0.00 0.00 0.00 0.00 0.00 0.01 0.01 0.02 0.02 0.03 0.04 0.04 0.05 0.07 0.12

GEFSCGP_prec_meanprecacc_096.txt.gz
Total_Precipitation_Accumulation
0.00 0.00 0.00 0.00 0.00 0.00 0.00 0.00 0.00 0.00 0.00 0.00 0.00 0.00 0.00 0.00 0.00 0.00 0.00 0.00 0.00 0.00 0.00 0.00 0.00 0.00 0.00 0.00 0.00 0.00 0.00 0.00 0.00 0.00 0.00 0.00 0.00 0.00 0.00 0.00 0.00 0.00 0.00 0.00
0.00 0.00 0.00 0.00 0.00 0.00 0.00 0.00 0.00 0.00 0.00 0.00 0.00 0.00 0.00 0.00 0.00 0.00 0.00 0.00 0.00 0.00 0.00 0.00 0.00 0.00 0.00 0.00 0.00 0.00 0.00 0.00 0.00 0.00 0.00 0.00 0.00 0.00 0.00 0.00 0.00 0.00 0.00 0.00
0.00 0.00 0.00 0.00 0.00 0.00 0.00 0.00 0.00 0.00 0.00 0.00 0.00 0.00 0.00 0.00 0.00 0.00 0.00 0.00 0.00 0.00 0.00 0.00 0.00 0.00 0.00 0.00 0.00 0.00 0.00 0.00 0.00 0.00 0.00 0.00 0.00 0.00 0.00 0.00 0.00 0.00 0.00 0.00
0.00 0.00 0.00 0.00 0.00 0.00 0.00 0.00 0.00 0.00 0.00 0.00 0.00 0.00 0.00 0.00 0.00 0.00 0.00 0.00 0.00 0.00 0.00 0.00 0.00 0.00 0.00 0.00 0.00 0.00 0.00 0.00 0.00 0.00 0.00 0.00 0.00 0.00 0.00 0.00 0.00 0.00 0.00 0.00
0.00 0.00 0.00 0.00 0.00 0.00 0.00 0.00 0.00 0.00 0.00 0.00 0.00 0.00 0.00 0.00 0.00 0.00 0.00 0.00 0.00 0.00 0.00 0.00 0.00 0.00 0.00 0.00 0.00 0.00 0.00 0.00 0.00 0.00 0.00 0.00 0.00 0.00 0.00 0.00 0.00 0.00 0.00 0.00
0.00 0.00 0.00 0.00 0.00 0.00 0.00 0.00 0.00 0.00 0.00 0.00 0.00 0.00 0.00 0.00 0.00 0.00 0.00 0.00 0.00 0.00 0.00 0.00 0.00 0.00 0.00 0.00 0.00 0.00 0.00 0.00 0.00 0.00 0.00 0.00 0.00 0.00 0.00 0.00 0.00 0.00 0.01 0.01
0.00 0.00 0.00 0.00 0.00 0.00 0.00 0.00 0.00 0.00 0.00 0.00 0.00 0.00 0.00 0.00 0.00 0.00 0.00 0.00 0.00 0.00 0.00 0.00 0.00 0.00 0.00 0.00 0.00 0.00 0.00 0.00 0.00 0.00 0.00 0.00 0.00 0.00 0.00 0.00 0.00 0.01 0.02 0.02
0.00 0.00 0.00 0.00 0.00 0.00 0.00 0.00 0.00 0.00 0.00 0.00 0.00 0.00 0.00 0.00 0.00 0.00 0.00 0.00 0.00 0.00 0.00 0.00 0.00 0.00 0.00 0.00 0.00 0.00 0.00 0.00 0.00 0.00 0.00 0.00 0.00 0.00 0.00 0.00 0.00 0.01 0.02 0.02
0.00 0.00 0.00 0.00 0.00 0.00 0.00 0.00 0.00 0.00 0.00 0.00 0.00 0.00 0.00 0.00 0.00 0.00 0.00 0.00 0.00 0.00 0.00 0.00 0.00 0.00 0.00 0.00 0.00 0.00 0.00 0.00 0.00 0.00 0.00 0.00 0.00 0.00 0.00 0.00 0.00 0.01 0.01 0.01
0.00 0.00 0.00 0.00 0.00 0.00 0.00 0.00 0.00 0.01 0.01 0.00 0.00 0.00 0.00 0.00 0.00 0.00 0.00 0.00 0.00 0.00 0.00 0.00 0.00 0.00 0.00 0.00 0.00 0.00 0.00 0.00 0.00 0.00 0.00 0.00 0.00 0.00 0.00 0.00 0.00 0.00 0.00 0.00
0.00 0.00 0.00 0.00 0.00 0.00 0.00 0.00 0.00 0.01 0.00 0.00 0.00 0.00 0.00 0.00 0.00 0.00 0.00 0.00 0.00 0.00 0.00 0.00 0.00 0.00 0.00 0.00 0.00 0.00 0.00 0.00 0.00 0.00 0.00 0.00 0.00 0.00 0.00 0.00 0.00 0.00 0.00 0.00
0.00 0.00 0.00 0.00 0.00 0.00 0.00 0.00 0.00 0.01 0.00 0.00 0.00 0.00 0.00 0.00 0.00 0.00 0.00 0.00 0.00 0.00 0.00 0.00 0.00 0.00 0.00 0.00 0.00 0.00 0.00 0.00 0.00 0.00 0.00 0.00 0.00 0.00 0.00 0.00 0.00 0.00 0.00 0.00
0.00 0.01 0.01 0.01 0.00 0.00 0.00 0.00 0.00 0.00 0.00 0.00 0.00 0.00 0.00 0.00 0.00 0.00 0.00 0.00 0.00 0.00 0.00 0.00 0.00 0.00 0.00 0.00 0.00 0.00 0.00 0.00 0.00 0.00 0.00 0.00 0.00 0.00 0.00 0.00 0.00 0.00 0.00 0.00
0.00 0.00 0.00 0.01 0.00 0.00 0.00 0.00 0.00 0.00 0.00 0.00 0.00 0.00 0.00 0.00 0.00 0.00 0.00 0.00 0.00 0.00 0.00 0.00 0.00 0.00 0.00 0.00 0.00 0.00 0.00 0.00 0.00 0.00 0.00 0.00 0.00 0.00 0.00 0.00 0.00 0.00 0.00 0.00
0.00 0.00 0.00 0.00 0.00 0.00 0.00 0.00 0.00 0.00 0.00 0.00 0.00 0.00 0.00 0.00 0.00 0.00 0.00 0.00 0.00 0.00 0.00 0.00 0.00 0.00 0.00 0.00 0.00 0.00 0.00 0.00 0.00 0.00 0.00 0.00 0.00 0.00 0.00 0.00 0.00 0.00 0.00 0.00
0.00 0.00 0.00 0.00 0.00 0.00 0.00 0.00 0.00 0.00 0.00 0.00 0.00 0.00 0.00 0.00 0.00 0.00 0.00 0.00 0.00 0.00 0.00 0.00 0.00 0.00 0.00 0.00 0.00 0.00 0.00 0.00 0.00 0.00 0.00 0.00 0.00 0.00 0.00 0.00 0.00 0.00 0.00 0.01
0.00 0.00 0.00 0.00 0.00 0.00 0.00 0.00 0.00 0.00 0.00 0.00 0.00 0.00 0.00 0.00 0.00 0.00 0.00 0.00 0.00 0.00 0.00 0.00 0.00 0.00 0.00 0.00 0.00 0.00 0.00 0.00 0.00 0.00 0.00 0.00 0.00 0.00 0.00 0.00 0.00 0.00 0.01 0.01
0.00 0.00 0.00 0.00 0.00 0.01 0.00 0.00 0.00 0.00 0.00 0.00 0.00 0.00 0.00 0.00 0.00 0.00 0.00 0.00 0.00 0.00 0.00 0.00 0.00 0.00 0.00 0.00 0.00 0.00 0.00 0.00 0.00 0.00 0.00 0.00 0.00 0.00 0.00 0.00 0.00 0.01 0.01 0.01
0.00 0.00 0.00 0.00 0.00 0.00 0.00 0.00 0.00 0.00 0.00 0.00 0.00 0.00 0.00 0.00 0.00 0.00 0.00 0.00 0.00 0.00 0.00 0.00 0.00 0.00 0.00 0.00 0.00 0.00 0.00 0.00 0.00 0.00 0.00 0.00 0.00 0.00 0.00 0.00 0.01 0.01 0.01 0.02
0.00 0.00 0.00 0.00 0.01 0.00 0.00 0.00 0.00 0.00 0.00 0.00 0.00 0.00 0.00 0.00 0.00 0.00 0.00 0.00 0.00 0.00 0.00 0.00 0.00 0.00 0.00 0.00 0.00 0.00 0.00 0.00 0.00 0.00 0.00 0.00 0.00 0.00 0.00 0.01 0.01 0.01 0.01 0.02
0.00 0.00 0.00 0.00 0.00 0.00 0.00 0.00 0.00 0.00 0.00 0.00 0.00 0.00 0.00 0.00 0.00 0.00 0.00 0.00 0.00 0.00 0.00 0.00 0.00 0.00 0.00 0.00 0.00 0.00 0.00 0.00 0.00 0.00 0.00 0.00 0.00 0.00 0.01 0.01 0.01 0.02 0.02 0.02
0.00 0.00 0.00 0.00 0.00 0.00 0.00 0.00 0.00 0.00 0.00 0.00 0.00 0.00 0.00 0.00 0.00 0.00 0.00 0.00 0.00 0.00 0.00 0.00 0.00 0.00 0.00 0.00 0.00 0.00 0.00 0.00 0.00 0.00 0.00 0.00 0.00 0.00 0.01 0.01 0.02 0.02 0.03 0.03
0.00 0.00 0.00 0.00 0.00 0.00 0.00 0.00 0.00 0.00 0.00 0.00 0.00 0.00 0.00 0.00 0.00 0.00 0.00 0.00 0.00 0.00 0.00 0.00 0.00 0.00 0.00 0.00 0.00 0.00 0.00 0.00 0.00 0.00 0.00 0.00 0.00 0.00 0.01 0.02 0.03 0.03 0.04 0.06
0.00 0.00 0.00 0.00 0.00 0.00 0.00 0.00 0.00 0.00 0.00 0.00 0.00 0.00 0.00 0.00 0.00 0.00 0.00 0.00 0.00 0.00 0.00 0.00 0.00 0.00 0.00 0.00 0.00 0.00 0.00 0.00 0.00 0.00 0.00 0.00 0.00 0.01 0.02 0.03 0.04 0.05 0.08 0.16
0.00 0.00 0.00 0.00 0.00 0.00 0.00 0.00 0.00 0.00 0.00 0.00 0.00 0.00 0.00 0.00 0.00 0.00 0.00 0.00 0.00 0.00 0.00 0.00 0.00 0.00 0.00 0.00 0.00 0.00 0.00 0.00 0.00 0.00 0.00 0.00 0.01 0.02 0.03 0.03 0.04 0.06 0.09 0.22
0.00 0.00 0.00 0.00 0.00 0.00 0.00 0.00 0.00 0.00 0.00 0.00 0.00 0.00 0.00 0.00 0.00 0.00 0.00 0.00 0.00 0.00 0.00 0.00 0.00 0.00 0.00 0.00 0.00 0.00 0.00 0.00 0.00 0.00 0.01 0.01 0.02 0.02 0.03 0.04 0.04 0.05 0.07 0.12

GEFSCGP_prec_meanprecacc_102.txt.gz
Total_Precipitation_Accumulation
0.00 0.00 0.00 0.00 0.00 0.00 0.00 0.00 0.00 0.00 0.00 0.00 0.00 0.00 0.00 0.00 0.00 0.00 0.00 0.00 0.00 0.00 0.00 0.00 0.00 0.00 0.00 0.00 0.00 0.00 0.00 0.00 0.00 0.01 0.01 0.01 0.01 0.01 0.01 0.01 0.01 0.01 0.01 0.00
0.00 0.00 0.00 0.00 0.00 0.00 0.00 0.00 0.00 0.00 0.00 0.00 0.00 0.00 0.00 0.00 0.00 0.00 0.00 0.00 0.00 0.00 0.00 0.00 0.00 0.00 0.00 0.00 0.00 0.00 0.00 0.00 0.00 0.00 0.00 0.00 0.00 0.00 0.00 0.01 0.00 0.00 0.00 0.00
0.00 0.00 0.00 0.00 0.00 0.00 0.00 0.00 0.00 0.00 0.00 0.00 0.00 0.00 0.00 0.00 0.00 0.00 0.00 0.00 0.00 0.00 0.00 0.00 0.00 0.00 0.00 0.00 0.00 0.00 0.00 0.00 0.00 0.00 0.00 0.00 0.00 0.00 0.00 0.00 0.00 0.00 0.00 0.00
0.00 0.00 0.00 0.00 0.00 0.00 0.00 0.00 0.00 0.00 0.00 0.00 0.00 0.00 0.00 0.00 0.00 0.00 0.00 0.00 0.00 0.00 0.00 0.00 0.00 0.00 0.00 0.00 0.00 0.00 0.00 0.00 0.00 0.00 0.00 0.00 0.00 0.00 0.00 0.00 0.00 0.00 0.00 0.00
0.00 0.00 0.00 0.00 0.00 0.00 0.00 0.00 0.00 0.00 0.00 0.00 0.00 0.00 0.00 0.00 0.00 0.00 0.00 0.00 0.00 0.00 0.00 0.00 0.00 0.00 0.00 0.00 0.00 0.00 0.00 0.00 0.00 0.00 0.00 0.00 0.00 0.00 0.00 0.00 0.00 0.00 0.00 0.00
0.00 0.00 0.00 0.00 0.00 0.00 0.00 0.00 0.00 0.00 0.00 0.00 0.00 0.00 0.00 0.00 0.00 0.00 0.00 0.00 0.00 0.00 0.00 0.00 0.00 0.00 0.00 0.00 0.00 0.00 0.00 0.00 0.00 0.00 0.00 0.00 0.00 0.00 0.00 0.00 0.00 0.00 0.01 0.01
0.00 0.00 0.00 0.00 0.00 0.00 0.00 0.00 0.00 0.00 0.00 0.00 0.00 0.00 0.00 0.00 0.00 0.00 0.00 0.00 0.00 0.00 0.00 0.00 0.00 0.00 0.00 0.00 0.00 0.00 0.00 0.00 0.00 0.00 0.00 0.00 0.00 0.00 0.00 0.00 0.00 0.01 0.02 0.02
0.00 0.00 0.00 0.00 0.00 0.00 0.00 0.00 0.00 0.00 0.00 0.00 0.00 0.00 0.00 0.00 0.00 0.00 0.00 0.00 0.00 0.00 0.00 0.00 0.00 0.00 0.00 0.00 0.00 0.00 0.00 0.00 0.00 0.00 0.00 0.00 0.00 0.00 0.00 0.00 0.00 0.01 0.02 0.02
0.00 0.00 0.00 0.00 0.00 0.00 0.00 0.00 0.00 0.00 0.00 0.00 0.00 0.00 0.00 0.00 0.00 0.00 0.00 0.00 0.00 0.00 0.00 0.00 0.00 0.00 0.00 0.00 0.00 0.00 0.00 0.00 0.00 0.00 0.00 0.00 0.00 0.00 0.00 0.00 0.00 0.01 0.01 0.01
0.00 0.00 0.00 0.00 0.00 0.00 0.00 0.00 0.00 0.01 0.02 0.00 0.00 0.00 0.00 0.00 0.00 0.00 0.00 0.00 0.00 0.00 0.00 0.00 0.00 0.00 0.00 0.00 0.00 0.00 0.00 0.00 0.00 0.00 0.00 0.00 0.00 0.00 0.00 0.00 0.00 0.00 0.00 0.00
0.00 0.00 0.00 0.00 0.00 0.00 0.00 0.00 0.00 0.01 0.00 0.00 0.00 0.00 0.00 0.00 0.00 0.00 0.00 0.00 0.00 0.00 0.00 0.00 0.00 0.00 0.00 0.00 0.00 0.00 0.00 0.00 0.00 0.00 0.00 0.00 0.00 0.00 0.00 0.00 0.00 0.00 0.00 0.00
0.00 0.01 0.01 0.00 0.00 0.00 0.00 0.00 0.00 0.01 0.01 0.00 0.00 0.00 0.00 0.00 0.00 0.00 0.00 0.00 0.00 0.00 0.00 0.00 0.00 0.00 0.00 0.00 0.00 0.00 0.00 0.00 0.00 0.00 0.00 0.00 0.00 0.00 0.00 0.00 0.00 0.00 0.00 0.00
0.00 0.01 0.02 0.02 0.00 0.00 0.00 0.00 0.00 0.00 0.00 0.00 0.00 0.00 0.00 0.00 0.00 0.00 0.00 0.00 0.00 0.00 0.00 0.00 0.00 0.00 0.00 0.00 0.00 0.00 0.00 0.00 0.00 0.00 0.00 0.00 0.00 0.00 0.00 0.00 0.00 0.00 0.00 0.00
0.00 0.01 0.01 0.01 0.00 0.00 0.00 0.00 0.00 0.00 0.00 0.00 0.00 0.00 0.00 0.00 0.00 0.00 0.00 0.00 0.00 0.00 0.00 0.00 0.00 0.00 0.00 0.00 0.00 0.00 0.00 0.00 0.00 0.00 0.00 0.00 0.00 0.00 0.00 0.00 0.00 0.00 0.00 0.00
0.00 0.01 0.00 0.00 0.00 0.00 0.00 0.00 0.00 0.00 0.00 0.00 0.00 0.00 0.00 0.00 0.00 0.00 0.00 0.00 0.00 0.00 0.00 0.00 0.00 0.00 0.00 0.00 0.00 0.00 0.00 0.00 0.00 0.00 0.00 0.00 0.00 0.00 0.00 0.00 0.00 0.00 0.00 0.00
0.01 0.01 0.00 0.00 0.00 0.00 0.00 0.00 0.00 0.00 0.00 0.00 0.00 0.00 0.00 0.00 0.00 0.00 0.00 0.00 0.00 0.00 0.00 0.00 0.00 0.00 0.00 0.00 0.00 0.00 0.00 0.00 0.00 0.00 0.00 0.00 0.00 0.00 0.00 0.00 0.00 0.00 0.00 0.01
0.01 0.01 0.01 0.00 0.00 0.01 0.01 0.00 0.00 0.00 0.00 0.00 0.00 0.00 0.00 0.00 0.00 0.00 0.00 0.00 0.00 0.00 0.00 0.00 0.00 0.00 0.00 0.00 0.00 0.00 0.00 0.00 0.00 0.00 0.00 0.00 0.00 0.00 0.00 0.00 0.00 0.00 0.01 0.01
0.01 0.01 0.01 0.01 0.01 0.02 0.01 0.00 0.00 0.00 0.00 0.00 0.00 0.00 0.00 0.00 0.00 0.00 0.00 0.00 0.00 0.00 0.00 0.00 0.00 0.00 0.00 0.00 0.00 0.00 0.00 0.00 0.00 0.00 0.00 0.00 0.00 0.00 0.00 0.00 0.00 0.01 0.01 0.01
0.00 0.01 0.02 0.02 0.01 0.00 0.00 0.00 0.00 0.00 0.00 0.00 0.00 0.00 0.00 0.00 0.00 0.00 0.00 0.00 0.00 0.00 0.00 0.00 0.00 0.00 0.00 0.00 0.00 0.00 0.00 0.00 0.00 0.00 0.00 0.00 0.00 0.00 0.00 0.00 0.01 0.01 0.02 0.02
0.00 0.00 0.02 0.02 0.01 0.00 0.00 0.00 0.00 0.00 0.00 0.00 0.00 0.00 0.00 0.00 0.00 0.00 0.00 0.00 0.00 0.00 0.00 0.00 0.00 0.00 0.00 0.00 0.00 0.00 0.00 0.00 0.00 0.00 0.00 0.00 0.00 0.00 0.00 0.01 0.01 0.02 0.02 0.02
0.01 0.01 0.01 0.01 0.01 0.00 0.00 0.00 0.00 0.00 0.00 0.00 0.00 0.00 0.00 0.00 0.00 0.00 0.00 0.00 0.00 0.00 0.00 0.00 0.00 0.00 0.00 0.00 0.00 0.00 0.00 0.00 0.00 0.00 0.00 0.00 0.00 0.00 0.01 0.01 0.01 0.02 0.02 0.02
0.00 0.00 0.00 0.00 0.00 0.00 0.00 0.00 0.00 0.00 0.00 0.00 0.00 0.00 0.00 0.00 0.00 0.00 0.00 0.00 0.00 0.00 0.00 0.00 0.00 0.00 0.00 0.00 0.00 0.00 0.00 0.00 0.00 0.00 0.00 0.00 0.00 0.00 0.01 0.01 0.02 0.02 0.03 0.03
0.00 0.00 0.00 0.00 0.00 0.00 0.00 0.00 0.00 0.00 0.00 0.00 0.00 0.00 0.00 0.00 0.00 0.00 0.00 0.00 0.00 0.00 0.00 0.00 0.00 0.00 0.00 0.00 0.00 0.00 0.00 0.00 0.00 0.00 0.00 0.00 0.00 0.01 0.01 0.02 0.03 0.03 0.04 0.06
0.00 0.00 0.00 0.00 0.00 0.00 0.00 0.00 0.00 0.00 0.00 0.00 0.00 0.00 0.00 0.00 0.00 0.00 0.00 0.00 0.00 0.00 0.00 0.00 0.00 0.00 0.00 0.00 0.00 0.00 0.00 0.00 0.00 0.00 0.00 0.00 0.01 0.01 0.02 0.03 0.04 0.05 0.08 0.16
0.00 0.00 0.00 0.00 0.00 0.00 0.00 0.00 0.00 0.00 0.00 0.00 0.00 0.00 0.00 0.00 0.00 0.00 0.00 0.00 0.00 0.00 0.00 0.00 0.00 0.00 0.00 0.00 0.00 0.00 0.00 0.00 0.00 0.00 0.00 0.01 0.01 0.02 0.03 0.03 0.04 0.06 0.09 0.22
0.00 0.00 0.00 0.00 0.00 0.00 0.00 0.00 0.00 0.00 0.00 0.00 0.00 0.00 0.00 0.00 0.00 0.00 0.00 0.00 0.00 0.00 0.00 0.00 0.00 0.00 0.00 0.00 0.00 0.00 0.00 0.00 0.00 0.00 0.01 0.01 0.02 0.03 0.03 0.04 0.04 0.05 0.07 0.12

GEFSCGP_prec_meanprecacc_108.txt.gz
Total_Precipitation_Accumulation
0.00 0.00 0.00 0.00 0.00 0.00 0.00 0.00 0.00 0.00 0.00 0.00 0.00 0.00 0.00 0.00 0.00 0.00 0.00 0.00 0.00 0.00 0.00 0.00 0.00 0.00 0.00 0.00 0.00 0.00 0.00 0.00 0.00 0.01 0.01 0.02 0.02 0.02 0.02 0.01 0.01 0.01 0.01 0.01
0.00 0.00 0.00 0.00 0.00 0.00 0.00 0.00 0.00 0.00 0.00 0.00 0.00 0.00 0.00 0.00 0.00 0.00 0.00 0.00 0.00 0.00 0.00 0.00 0.00 0.00 0.00 0.00 0.00 0.00 0.00 0.00 0.00 0.00 0.00 0.01 0.01 0.01 0.01 0.01 0.01 0.01 0.01 0.01
0.00 0.00 0.00 0.00 0.00 0.00 0.00 0.00 0.00 0.00 0.00 0.00 0.00 0.00 0.00 0.00 0.00 0.00 0.00 0.00 0.00 0.00 0.00 0.00 0.00 0.00 0.00 0.00 0.00 0.00 0.00 0.00 0.00 0.00 0.00 0.00 0.01 0.01 0.01 0.01 0.01 0.01 0.01 0.01
0.00 0.00 0.00 0.00 0.00 0.00 0.00 0.00 0.00 0.00 0.00 0.00 0.00 0.00 0.00 0.00 0.00 0.00 0.00 0.00 0.00 0.00 0.00 0.00 0.00 0.00 0.00 0.00 0.00 0.00 0.00 0.00 0.00 0.00 0.00 0.00 0.00 0.00 0.00 0.00 0.00 0.00 0.00 0.00
0.00 0.00 0.00 0.00 0.00 0.00 0.00 0.00 0.00 0.00 0.00 0.00 0.00 0.00 0.00 0.00 0.00 0.00 0.00 0.00 0.00 0.00 0.00 0.00 0.00 0.00 0.00 0.00 0.00 0.00 0.00 0.00 0.00 0.00 0.00 0.00 0.00 0.00 0.00 0.00 0.00 0.00 0.00 0.00
0.00 0.00 0.00 0.00 0.00 0.00 0.00 0.00 0.00 0.00 0.00 0.00 0.00 0.00 0.00 0.00 0.00 0.00 0.00 0.00 0.00 0.00 0.00 0.00 0.00 0.00 0.00 0.00 0.00 0.00 0.00 0.00 0.00 0.00 0.00 0.00 0.00 0.00 0.00 0.00 0.00 0.01 0.01 0.01
0.01 0.00 0.00 0.00 0.00 0.00 0.00 0.00 0.02 0.02 0.01 0.00 0.00 0.00 0.00 0.00 0.00 0.00 0.00 0.00 0.00 0.00 0.00 0.00 0.00 0.00 0.00 0.00 0.00 0.00 0.00 0.00 0.00 0.00 0.00 0.00 0.00 0.00 0.00 0.00 0.00 0.01 0.02 0.02
0.01 0.00 0.00 0.00 0.00 0.00 0.00 0.00 0.02 0.01 0.00 0.00 0.00 0.00 0.00 0.00 0.00 0.00 0.00 0.00 0.00 0.00 0.00 0.00 0.00 0.00 0.00 0.00 0.00 0.00 0.00 0.00 0.00 0.00 0.00 0.00 0.00 0.00 0.00 0.00 0.00 0.01 0.03 0.02
0.00 0.00 0.00 0.00 0.00 0.00 0.00 0.00 0.00 0.00 0.01 0.00 0.00 0.00 0.00 0.00 0.00 0.00 0.00 0.00 0.00 0.00 0.00 0.00 0.00 0.00 0.00 0.00 0.00 0.00 0.00 0.00 0.00 0.00 0.00 0.00 0.00 0.00 0.00 0.00 0.00 0.01 0.01 0.01
0.00 0.00 0.00 0.00 0.00 0.00 0.00 0.00 0.01 0.02 0.03 0.01 0.00 0.00 0.00 0.00 0.00 0.00 0.00 0.00 0.00 0.00 0.00 0.00 0.00 0.00 0.00 0.00 0.00 0.00 0.00 0.00 0.00 0.00 0.00 0.00 0.00 0.00 0.00 0.00 0.00 0.00 0.00 0.00
0.01 0.01 0.01 0.00 0.00 0.00 0.00 0.00 0.01 0.01 0.01 0.00 0.00 0.00 0.00 0.00 0.00 0.00 0.00 0.00 0.00 0.00 0.00 0.00 0.00 0.00 0.00 0.00 0.00 0.00 0.00 0.00 0.00 0.00 0.00 0.00 0.00 0.00 0.00 0.00 0.00 0.00 0.00 0.00
0.01 0.02 0.04 0.01 0.00 0.00 0.00 0.00 0.00 0.01 0.01 0.00 0.00 0.00 0.00 0.00 0.00 0.00 0.00 0.00 0.00 0.00 0.00 0.00 0.00 0.00 0.00 0.00 0.00 0.00 0.00 0.00 0.00 0.00 0.00 0.00 0.00 0.00 0.00 0.00 0.00 0.00 0.00 0.00
0.03 0.07 0.10 0.07 0.02 0.01 0.00 0.00 0.00 0.00 0.00 0.00 0.00 0.00 0.00 0.00 0.00 0.00 0.00 0.00 0.00 0.00 0.00 0.00 0.00 0.00 0.00 0.00 0.00 0.00 0.00 0.00 0.00 0.00 0.00 0.00 0.00 0.00 0.00 0.00 0.00 0.00 0.00 0.00
0.04 0.06 0.05 0.05 0.01 0.00 0.00 0.00 0.00 0.00 0.01 0.00 0.00 0.00 0.00 0.00 0.00 0.00 0.00 0.00 0.00 0.00 0.00 0.00 0.00 0.00 0.00 0.00 0.00 0.00 0.00 0.00 0.00 0.00 0.00 0.00 0.00 0.00 0.00 0.00 0.00 0.00 0.00 0.00
0.06 0.07 0.02 0.00 0.00 0.00 0.00 0.00 0.00 0.00 0.00 0.00 0.00 0.00 0.00 0.00 0.00 0.00 0.00 0.00 0.00 0.00 0.00 0.00 0.00 0.00 0.00 0.00 0.00 0.00 0.00 0.00 0.00 0.00 0.00 0.00 0.00 0.00 0.00 0.00 0.00 0.00 0.00 0.00
0.07 0.06 0.03 0.01 0.00 0.00 0.00 0.00 0.00 0.00 0.00 0.00 0.00 0.00 0.00 0.00 0.00 0.00 0.00 0.00 0.00 0.00 0.00 0.00 0.00 0.00 0.00 0.00 0.00 0.00 0.00 0.00 0.00 0.00 0.00 0.00 0.00 0.00 0.00 0.00 0.00 0.00 0.00 0.01
0.09 0.08 0.05 0.02 0.01 0.02 0.02 0.00 0.00 0.00 0.00 0.00 0.00 0.00 0.00 0.00 0.00 0.00 0.00 0.00 0.00 0.00 0.00 0.00 0.00 0.00 0.00 0.00 0.00 0.00 0.00 0.00 0.00 0.00 0.00 0.00 0.00 0.00 0.00 0.00 0.00 0.00 0.01 0.01
0.08 0.08 0.09 0.05 0.05 0.09 0.02 0.00 0.00 0.00 0.00 0.00 0.00 0.00 0.00 0.00 0.00 0.00 0.00 0.00 0.00 0.00 0.00 0.00 0.00 0.00 0.00 0.00 0.00 0.00 0.00 0.00 0.00 0.00 0.00 0.00 0.00 0.00 0.00 0.00 0.00 0.01 0.01 0.01
0.03 0.07 0.12 0.08 0.06 0.03 0.00 0.00 0.00 0.00 0.00 0.00 0.00 0.00 0.00 0.00 0.00 0.00 0.00 0.00 0.00 0.00 0.00 0.00 0.00 0.00 0.00 0.00 0.00 0.00 0.00 0.00 0.00 0.00 0.00 0.00 0.00 0.00 0.00 0.00 0.01 0.01 0.02 0.02
0.02 0.05 0.11 0.08 0.05 0.01 0.00 0.00 0.00 0.00 0.00 0.00 0.00 0.00 0.00 0.00 0.00 0.00 0.00 0.00 0.00 0.00 0.00 0.00 0.00 0.00 0.00 0.00 0.00 0.00 0.00 0.00 0.00 0.00 0.00 0.00 0.00 0.00 0.00 0.01 0.01 0.02 0.02 0.02
0.05 0.09 0.11 0.07 0.03 0.00 0.00 0.00 0.00 0.00 0.00 0.00 0.00 0.00 0.00 0.00 0.00 0.00 0.00 0.00 0.00 0.00 0.00 0.00 0.00 0.00 0.00 0.00 0.00 0.00 0.00 0.00 0.00 0.00 0.00 0.00 0.00 0.00 0.01 0.01 0.02 0.02 0.02 0.02
0.06 0.08 0.06 0.04 0.03 0.01 0.00 0.00 0.00 0.00 0.00 0.00 0.00 0.00 0.00 0.00 0.00 0.00 0.00 0.00 0.00 0.00 0.00 0.00 0.00 0.00 0.00 0.00 0.00 0.00 0.00 0.00 0.00 0.00 0.00 0.00 0.00 0.00 0.01 0.01 0.02 0.02 0.03 0.03
0.04 0.04 0.03 0.02 0.01 0.00 0.00 0.00 0.00 0.00 0.00 0.00 0.00 0.00 0.00 0.00 0.00 0.00 0.00 0.00 0.00 0.00 0.00 0.00 0.00 0.00 0.00 0.00 0.00 0.00 0.00 0.00 0.00 0.00 0.00 0.00 0.00 0.01 0.01 0.02 0.03 0.03 0.04 0.06
0.03 0.02 0.02 0.02 0.01 0.00 0.00 0.00 0.00 0.00 0.00 0.00 0.00 0.00 0.00 0.00 0.00 0.00 0.00 0.00 0.00 0.00 0.00 0.00 0.00 0.00 0.00 0.00 0.00 0.00 0.00 0.00 0.00 0.00 0.00 0.00 0.01 0.01 0.02 0.03 0.04 0.05 0.08 0.17
0.03 0.03 0.02 0.01 0.00 0.00 0.00 0.00 0.00 0.00 0.00 0.00 0.00 0.00 0.00 0.00 0.00 0.00 0.00 0.00 0.00 0.00 0.00 0.00 0.00 0.00 0.00 0.00 0.00 0.00 0.00 0.00 0.00 0.00 0.00 0.01 0.01 0.02 0.03 0.04 0.04 0.06 0.09 0.22
0.01 0.01 0.01 0.01 0.00 0.00 0.00 0.00 0.00 0.00 0.00 0.00 0.00 0.00 0.00 0.00 0.00 0.00 0.00 0.00 0.00 0.00 0.00 0.00 0.00 0.00 0.00 0.00 0.00 0.00 0.00 0.00 0.00 0.00 0.01 0.01 0.02 0.03 0.03 0.04 0.04 0.05 0.07 0.12

GEFSCGP_prec_meanprecacc_114.txt.gz
Total_Precipitation_Accumulation
0.02 0.02 0.01 0.00 0.00 0.00 0.00 0.00 0.00 0.00 0.00 0.00 0.00 0.00 0.00 0.00 0.00 0.00 0.00 0.00 0.00 0.00 0.00 0.00 0.00 0.00 0.00 0.00 0.00 0.00 0.00 0.00 0.00 0.01 0.01 0.02 0.02 0.02 0.02 0.01 0.01 0.01 0.01 0.01
0.04 0.03 0.01 0.00 0.00 0.00 0.00 0.00 0.00 0.00 0.00 0.00 0.00 0.00 0.00 0.00 0.00 0.00 0.00 0.00 0.00 0.00 0.00 0.00 0.00 0.00 0.00 0.00 0.00 0.00 0.00 0.00 0.00 0.00 0.00 0.01 0.01 0.01 0.01 0.01 0.01 0.01 0.01 0.01
0.03 0.02 0.00 0.00 0.00 0.00 0.00 0.00 0.00 0.00 0.00 0.00 0.00 0.00 0.00 0.00 0.00 0.00 0.00 0.00 0.00 0.00 0.00 0.00 0.00 0.00 0.00 0.00 0.00 0.00 0.00 0.00 0.00 0.00 0.00 0.00 0.01 0.01 0.01 0.01 0.01 0.01 0.01 0.01
0.02 0.01 0.01 0.01 0.00 0.00 0.00 0.00 0.00 0.00 0.00 0.00 0.00 0.00 0.00 0.00 0.00 0.00 0.00 0.00 0.00 0.00 0.00 0.00 0.00 0.00 0.00 0.00 0.00 0.00 0.00 0.00 0.00 0.00 0.00 0.00 0.00 0.01 0.00 0.01 0.01 0.01 0.01 0.00
0.03 0.01 0.01 0.01 0.00 0.00 0.00 0.00 0.00 0.00 0.00 0.00 0.00 0.00 0.00 0.00 0.00 0.00 0.00 0.00 0.00 0.00 0.00 0.00 0.00 0.00 0.00 0.00 0.00 0.00 0.00 0.00 0.00 0.00 0.00 0.00 0.00 0.00 0.00 0.00 0.00 0.01 0.01 0.01
0.03 0.01 0.01 0.01 0.00 0.00 0.00 0.01 0.01 0.01 0.02 0.02 0.00 0.00 0.00 0.00 0.00 0.00 0.00 0.00 0.00 0.00 0.00 0.00 0.00 0.00 0.00 0.00 0.00 0.00 0.00 0.00 0.00 0.00 0.00 0.00 0.00 0.00 0.00 0.00 0.01 0.01 0.01 0.01
0.07 0.03 0.01 0.01 0.01 0.01 0.01 0.03 0.08 0.08 0.06 0.03 0.00 0.00 0.00 0.00 0.00 0.00 0.00 0.00 0.00 0.00 0.00 0.00 0.00 0.00 0.00 0.00 0.00 0.00 0.00 0.00 0.00 0.00 0.00 0.00 0.00 0.00 0.00 0.00 0.01 0.01 0.02 0.02
0.09 0.04 0.01 0.01 0.01 0.01 0.01 0.02 0.06 0.05 0.02 0.00 0.00 0.00 0.00 0.00 0.00 0.00 0.00 0.00 0.00 0.00 0.00 0.00 0.00 0.00 0.00 0.00 0.00 0.00 0.00 0.00 0.00 0.00 0.00 0.00 0.01 0.01 0.00 0.00 0.01 0.02 0.03 0.02
0.10 0.05 0.01 0.00 0.00 0.01 0.01 0.01 0.01 0.02 0.02 0.01 0.00 0.00 0.00 0.00 0.00 0.00 0.00 0.00 0.00 0.00 0.00 0.00 0.00 0.00 0.00 0.00 0.00 0.00 0.00 0.00 0.00 0.00 0.00 0.00 0.00 0.00 0.00 0.00 0.00 0.01 0.02 0.01
0.09 0.06 0.02 0.00 0.01 0.01 0.01 0.01 0.02 0.06 0.07 0.03 0.00 0.00 0.00 0.00 0.00 0.00 0.00 0.00 0.00 0.00 0.00 0.00 0.00 0.00 0.00 0.00 0.00 0.00 0.00 0.00 0.00 0.00 0.00 0.00 0.00 0.00 0.00 0.00 0.00 0.01 0.01 0.01
0.11 0.10 0.05 0.02 0.02 0.02 0.01 0.02 0.04 0.06 0.04 0.01 0.00 0.00 0.00 0.00 0.00 0.00 0.00 0.00 0.00 0.00 0.00 0.00 0.00 0.00 0.00 0.00 0.00 0.00 0.00 0.00 0.00 0.00 0.00 0.00 0.00 0.00 0.00 0.00 0.00 0.00 0.00 0.01
0.11 0.14 0.09 0.04 0.02 0.01 0.01 0.01 0.02 0.04 0.04 0.01 0.00 0.00 0.00 0.00 0.00 0.00 0.00 0.00 0.00 0.00 0.00 0.00 0.00 0.00 0.00 0.00 0.00 0.00 0.00 0.00 0.00 0.00 0.00 0.00 0.00 0.00 0.00 0.00 0.00 0.00 0.00 0.00
0.17 0.27 0.24 0.13 0.06 0.04 0.03 0.02 0.02 0.02 0.02 0.01 0.01 0.00 0.00 0.00 0.00 0.00 0.00 0.00 0.00 0.00 0.00 0.00 0.00 0.00 0.00 0.00 0.00 0.00 0.00 0.00 0.00 0.00 0.00 0.00 0.00 0.00 0.00 0.00 0.00 0.00 0.00 0.00
0.20 0.27 0.19 0.12 0.05 0.03 0.03 0.01 0.02 0.03 0.04 0.02 0.01 0.00 0.00 0.00 0.00 0.00 0.00 0.00 0.00 0.00 0.00 0.00 0.00 0.00 0.00 0.00 0.00 0.00 0.00 0.00 0.00 0.00 0.00 0.00 0.00 0.00 0.00 0.00 0.00 0.00 0.00 0.00
0.21 0.23 0.10 0.03 0.01 0.01 0.01 0.01 0.01 0.01 0.02 0.01 0.00 0.00 0.00 0.00 0.00 0.00 0.00 0.00 0.00 0.00 0.00 0.00 0.00 0.00 0.00 0.00 0.00 0.00 0.00 0.00 0.00 0.00 0.00 0.00 0.00 0.00 0.00 0.00 0.00 0.00 0.00 0.00
0.26 0.23 0.11 0.04 0.02 0.02 0.02 0.01 0.01 0.01 0.00 0.00 0.00 0.00 0.00 0.00 0.00 0.00 0.00 0.00 0.00 0.00 0.00 0.00 0.00 0.00 0.00 0.00 0.00 0.00 0.00 0.00 0.00 0.00 0.00 0.00 0.00 0.00 0.00 0.00 0.00 0.00 0.00 0.01
0.28 0.25 0.17 0.09 0.04 0.07 0.06 0.01 0.00 0.00 0.00 0.00 0.00 0.00 0.00 0.00 0.00 0.00 0.00 0.00 0.00 0.00 0.00 0.00 0.00 0.00 0.00 0.00 0.00 0.00 0.00 0.00 0.00 0.00 0.00 0.00 0.00 0.00 0.00 0.00 0.00 0.01 0.01 0.01
0.20 0.22 0.22 0.13 0.14 0.22 0.06 0.00 0.00 0.00 0.00 0.00 0.00 0.00 0.00 0.00 0.00 0.00 0.00 0.00 0.00 0.00 0.00 0.00 0.00 0.00 0.00 0.00 0.00 0.00 0.00 0.00 0.00 0.00 0.00 0.00 0.00 0.00 0.00 0.00 0.00 0.01 0.02 0.02
0.08 0.16 0.25 0.18 0.17 0.10 0.01 0.00 0.00 0.00 0.00 0.00 0.00 0.00 0.00 0.00 0.00 0.00 0.00 0.00 0.00 0.00 0.00 0.00 0.00 0.00 0.00 0.00 0.00 0.00 0.00 0.00 0.00 0.00 0.00 0.00 0.00 0.00 0.00 0.00 0.01 0.01 0.02 0.02
0.07 0.13 0.25 0.18 0.13 0.05 0.01 0.00 0.00 0.00 0.00 0.00 0.00 0.00 0.00 0.00 0.00 0.00 0.00 0.00 0.00 0.00 0.00 0.00 0.00 0.00 0.00 0.00 0.00 0.00 0.00 0.00 0.00 0.00 0.00 0.00 0.00 0.00 0.00 0.01 0.01 0.02 0.02 0.02
0.20 0.26 0.27 0.16 0.08 0.02 0.01 0.00 0.01 0.01 0.00 0.00 0.00 0.00 0.00 0.00 0.00 0.00 0.00 0.00 0.00 0.00 0.00 0.00 0.00 0.00 0.00 0.00 0.00 0.00 0.00 0.00 0.00 0.00 0.00 0.00 0.00 0.00 0.01 0.01 0.02 0.02 0.02 0.02
0.24 0.28 0.22 0.13 0.08 0.01 0.01 0.01 0.02 0.02 0.01 0.01 0.00 0.00 0.00 0.00 0.00 0.00 0.00 0.00 0.00 0.00 0.00 0.00 0.00 0.00 0.00 0.00 0.00 0.00 0.00 0.00 0.00 0.00 0.00 0.00 0.00 0.00 0.01 0.01 0.02 0.02 0.03 0.03
0.14 0.17 0.18 0.12 0.04 0.01 0.01 0.01 0.01 0.01 0.01 0.01 0.00 0.00 0.00 0.00 0.00 0.00 0.00 0.00 0.00 0.00 0.00 0.00 0.00 0.00 0.00 0.00 0.00 0.00 0.00 0.00 0.00 0.00 0.00 0.00 0.00 0.01 0.01 0.02 0.03 0.03 0.05 0.06
0.11 0.09 0.11 0.10 0.04 0.01 0.01 0.01 0.01 0.01 0.01 0.01 0.01 0.00 0.00 0.00 0.00 0.00 0.00 0.00 0.00 0.00 0.00 0.00 0.00 0.00 0.00 0.00 0.00 0.00 0.00 0.00 0.00 0.00 0.00 0.00 0.01 0.01 0.02 0.03 0.04 0.05 0.08 0.17
0.09 0.10 0.10 0.07 0.03 0.03 0.02 0.02 0.01 0.01 0.01 0.01 0.01 0.01 0.00 0.00 0.00 0.00 0.00 0.00 0.00 0.00 0.00 0.00 0.00 0.00 0.00 0.00 0.00 0.00 0.00 0.00 0.00 0.00 0.00 0.01 0.01 0.02 0.03 0.04 0.04 0.06 0.09 0.22
0.03 0.04 0.06 0.05 0.04 0.03 0.03 0.02 0.02 0.01 0.01 0.01 0.01 0.01 0.00 0.00 0.00 0.00 0.00 0.00 0.00 0.00 0.00 0.00 0.00 0.00 0.00 0.00 0.00 0.00 0.00 0.00 0.00 0.00 0.01 0.01 0.02 0.03 0.03 0.04 0.04 0.05 0.07 0.12

GEFSCGP_prec_meanprecacc_120.txt.gz
Total_Precipitation_Accumulation
0.13 0.15 0.11 0.04 0.01 0.01 0.00 0.00 0.00 0.00 0.00 0.00 0.00 0.00 0.00 0.00 0.00 0.00 0.00 0.00 0.00 0.00 0.00 0.00 0.00 0.00 0.00 0.00 0.00 0.00 0.00 0.00 0.00 0.01 0.01 0.02 0.02 0.02 0.02 0.01 0.01 0.01 0.01 0.01
0.18 0.15 0.07 0.03 0.01 0.01 0.01 0.01 0.00 0.00 0.00 0.00 0.00 0.00 0.00 0.00 0.00 0.00 0.00 0.00 0.00 0.00 0.00 0.00 0.00 0.00 0.00 0.00 0.00 0.00 0.00 0.00 0.00 0.00 0.00 0.01 0.01 0.01 0.01 0.01 0.01 0.01 0.01 0.01
0.14 0.09 0.04 0.04 0.04 0.04 0.02 0.01 0.00 0.00 0.00 0.00 0.00 0.00 0.00 0.00 0.00 0.00 0.00 0.00 0.00 0.00 0.00 0.00 0.00 0.00 0.00 0.00 0.00 0.00 0.00 0.00 0.00 0.00 0.00 0.00 0.01 0.01 0.01 0.01 0.01 0.01 0.01 0.01
0.12 0.05 0.04 0.05 0.04 0.04 0.04 0.02 0.01 0.01 0.01 0.01 0.00 0.01 0.00 0.00 0.00 0.00 0.00 0.00 0.00 0.00 0.00 0.00 0.00 0.00 0.00 0.00 0.00 0.00 0.00 0.00 0.00 0.00 0.00 0.00 0.00 0.01 0.00 0.01 0.01 0.01 0.01 0.01
0.15 0.06 0.06 0.07 0.04 0.02 0.01 0.01 0.02 0.02 0.02 0.02 0.01 0.01 0.00 0.00 0.00 0.00 0.00 0.00 0.00 0.00 0.00 0.00 0.00 0.00 0.00 0.00 0.00 0.00 0.00 0.00 0.00 0.00 0.00 0.00 0.00 0.00 0.00 0.00 0.01 0.01 0.01 0.01
0.17 0.08 0.07 0.06 0.03 0.03 0.03 0.03 0.04 0.06 0.09 0.12 0.03 0.01 0.00 0.00 0.00 0.00 0.00 0.00 0.00 0.00 0.00 0.00 0.00 0.00 0.00 0.00 0.00 0.00 0.00 0.00 0.00 0.00 0.00 0.00 0.00 0.00 0.00 0.00 0.01 0.01 0.01 0.02
0.26 0.14 0.08 0.05 0.06 0.07 0.09 0.13 0.24 0.26 0.25 0.15 0.02 0.01 0.00 0.00 0.00 0.00 0.00 0.00 0.00 0.00 0.00 0.00 0.00 0.00 0.00 0.00 0.00 0.00 0.00 0.00 0.00 0.00 0.00 0.00 0.01 0.01 0.01 0.01 0.01 0.01 0.02 0.02
0.28 0.18 0.09 0.07 0.06 0.08 0.09 0.13 0.20 0.18 0.09 0.03 0.00 0.00 0.00 0.00 0.00 0.00 0.00 0.00 0.00 0.00 0.00 0.00 0.00 0.00 0.00 0.00 0.00 0.00 0.00 0.00 0.00 0.00 0.00 0.00 0.01 0.01 0.01 0.01 0.01 0.02 0.03 0.02
0.27 0.16 0.07 0.05 0.03 0.04 0.06 0.07 0.05 0.07 0.06 0.02 0.01 0.00 0.00 0.00 0.00 0.00 0.00 0.00 0.00 0.00 0.00 0.00 0.00 0.00 0.00 0.00 0.00 0.00 0.00 0.00 0.00 0.00 0.00 0.00 0.01 0.01 0.01 0.01 0.01 0.02 0.02 0.01
0.25 0.18 0.08 0.05 0.07 0.07 0.07 0.07 0.10 0.18 0.17 0.06 0.02 0.00 0.00 0.00 0.00 0.00 0.00 0.00 0.00 0.00 0.00 0.00 0.00 0.00 0.00 0.00 0.00 0.00 0.00 0.00 0.00 0.00 0.00 0.00 0.00 0.01 0.01 0.01 0.01 0.01 0.01 0.01
0.30 0.24 0.14 0.10 0.12 0.11 0.09 0.11 0.18 0.21 0.12 0.04 0.01 0.00 0.00 0.00 0.00 0.00 0.00 0.00 0.00 0.00 0.00 0.00 0.00 0.00 0.00 0.00 0.00 0.00 0.00 0.00 0.00 0.00 0.00 0.00 0.00 0.00 0.01 0.01 0.01 0.01 0.01 0.01
0.32 0.35 0.22 0.11 0.08 0.06 0.07 0.08 0.12 0.18 0.13 0.03 0.01 0.00 0.00 0.00 0.00 0.00 0.00 0.00 0.00 0.00 0.00 0.00 0.00 0.00 0.00 0.00 0.00 0.00 0.00 0.00 0.00 0.00 0.00 0.00 0.00 0.00 0.01 0.01 0.00 0.01 0.01 0.01
0.42 0.55 0.48 0.28 0.17 0.14 0.15 0.12 0.11 0.11 0.08 0.04 0.02 0.01 0.00 0.00 0.00 0.00 0.00 0.00 0.00 0.00 0.00 0.00 0.00 0.00 0.00 0.00 0.00 0.00 0.00 0.00 0.00 0.00 0.00 0.00 0.00 0.00 0.00 0.00 0.00 0.00 0.00 0.01
0.46 0.55 0.43 0.31 0.18 0.14 0.14 0.11 0.09 0.12 0.13 0.06 0.02 0.00 0.00 0.00 0.00 0.00 0.00 0.00 0.00 0.00 0.00 0.00 0.00 0.00 0.00 0.00 0.00 0.00 0.00 0.00 0.00 0.00 0.00 0.00 0.00 0.00 0.00 0.00 0.00 0.00 0.00 0.01
0.42 0.45 0.23 0.10 0.06 0.05 0.04 0.04 0.05 0.06 0.07 0.04 0.01 0.00 0.00 0.00 0.00 0.00 0.00 0.00 0.00 0.00 0.00 0.00 0.00 0.00 0.00 0.00 0.00 0.00 0.00 0.00 0.00 0.00 0.00 0.00 0.00 0.00 0.00 0.00 0.00 0.00 0.00 0.01
0.44 0.41 0.21 0.10 0.06 0.06 0.05 0.02 0.02 0.03 0.01 0.01 0.00 0.00 0.00 0.00 0.00 0.00 0.00 0.00 0.00 0.00 0.00 0.00 0.00 0.00 0.00 0.00 0.00 0.00 0.00 0.00 0.00 0.00 0.00 0.00 0.00 0.00 0.00 0.00 0.00 0.01 0.01 0.01
0.44 0.42 0.31 0.17 0.09 0.15 0.12 0.03 0.01 0.01 0.01 0.00 0.00 0.00 0.00 0.00 0.00 0.00 0.00 0.00 0.00 0.00 0.00 0.00 0.00 0.00 0.00 0.00 0.00 0.00 0.00 0.00 0.00 0.00 0.00 0.00 0.00 0.00 0.00 0.00 0.00 0.01 0.01 0.01
0.30 0.35 0.36 0.23 0.24 0.37 0.10 0.01 0.00 0.00 0.00 0.00 0.00 0.00 0.00 0.00 0.00 0.00 0.00 0.00 0.00 0.00 0.00 0.00 0.00 0.00 0.00 0.00 0.00 0.00 0.00 0.00 0.00 0.00 0.00 0.00 0.00 0.00 0.00 0.00 0.01 0.01 0.02 0.02
0.12 0.25 0.37 0.29 0.29 0.16 0.02 0.01 0.01 0.01 0.01 0.01 0.00 0.00 0.00 0.00 0.00 0.00 0.00 0.00 0.00 0.00 0.00 0.00 0.00 0.00 0.00 0.00 0.00 0.00 0.00 0.00 0.00 0.00 0.00 0.00 0.00 0.00 0.00 0.00 0.01 0.01 0.02 0.02
0.12 0.22 0.37 0.29 0.22 0.08 0.02 0.02 0.01 0.01 0.02 0.02 0.01 0.01 0.00 0.00 0.00 0.00 0.00 0.00 0.00 0.00 0.00 0.00 0.00 0.00 0.00 0.00 0.00 0.00 0.00 0.00 0.00 0.00 0.00 0.00 0.00 0.00 0.00 0.01 0.01 0.02 0.02 0.02
0.33 0.43 0.42 0.26 0.15 0.03 0.03 0.03 0.03 0.05 0.05 0.03 0.01 0.01 0.01 0.00 0.00 0.00 0.00 0.00 0.00 0.00 0.00 0.00 0.00 0.00 0.00 0.00 0.00 0.00 0.00 0.00 0.00 0.00 0.00 0.00 0.00 0.00 0.01 0.01 0.02 0.02 0.02 0.02
0.35 0.42 0.35 0.23 0.14 0.04 0.04 0.06 0.11 0.08 0.04 0.03 0.02 0.01 0.00 0.00 0.00 0.00 0.00 0.00 0.00 0.00 0.00 0.00 0.00 0.00 0.00 0.00 0.00 0.00 0.00 0.00 0.00 0.00 0.00 0.00 0.00 0.00 0.01 0.01 0.02 0.02 0.03 0.03
0.21 0.27 0.30 0.22 0.09 0.03 0.04 0.06 0.07 0.04 0.03 0.03 0.02 0.01 0.01 0.00 0.00 0.00 0.00 0.00 0.00 0.00 0.00 0.00 0.00 0.00 0.00 0.00 0.00 0.00 0.00 0.00 0.00 0.00 0.00 0.00 0.00 0.01 0.01 0.02 0.03 0.04 0.05 0.06
0.15 0.15 0.18 0.15 0.07 0.05 0.05 0.04 0.04 0.03 0.03 0.03 0.02 0.02 0.01 0.01 0.00 0.00 0.00 0.00 0.00 0.00 0.00 0.00 0.00 0.00 0.00 0.00 0.00 0.00 0.00 0.00 0.00 0.00 0.00 0.00 0.01 0.01 0.02 0.03 0.04 0.05 0.08 0.17
0.12 0.14 0.15 0.10 0.06 0.07 0.07 0.04 0.03 0.03 0.02 0.03 0.03 0.02 0.01 0.01 0.01 0.00 0.00 0.00 0.00 0.00 0.00 0.00 0.00 0.00 0.00 0.00 0.00 0.00 0.00 0.00 0.00 0.00 0.00 0.01 0.01 0.02 0.03 0.04 0.04 0.06 0.09 0.22
0.04 0.06 0.09 0.07 0.05 0.07 0.07 0.05 0.04 0.03 0.02 0.03 0.03 0.02 0.01 0.01 0.01 0.00 0.00 0.00 0.00 0.00 0.00 0.00 0.00 0.00 0.00 0.00 0.00 0.00 0.00 0.00 0.00 0.00 0.01 0.01 0.02 0.03 0.03 0.04 0.04 0.05 0.07 0.12

GEFSCGP_prec_meanprecacc_126.txt.gz
Total_Precipitation_Accumulation
0.25 0.30 0.25 0.13 0.09 0.07 0.04 0.03 0.01 0.00 0.00 0.00 0.00 0.00 0.00 0.00 0.00 0.00 0.00 0.00 0.00 0.00 0.00 0.00 0.00 0.00 0.00 0.00 0.00 0.00 0.00 0.00 0.01 0.01 0.02 0.02 0.02 0.02 0.02 0.02 0.01 0.01 0.01 0.01
0.34 0.29 0.14 0.07 0.06 0.06 0.07 0.06 0.03 0.01 0.00 0.01 0.01 0.00 0.00 0.00 0.00 0.00 0.00 0.00 0.00 0.00 0.00 0.00 0.00 0.00 0.00 0.00 0.00 0.00 0.00 0.00 0.00 0.00 0.00 0.01 0.01 0.01 0.01 0.01 0.01 0.01 0.01 0.01
0.27 0.17 0.07 0.09 0.11 0.12 0.11 0.08 0.04 0.02 0.02 0.02 0.02 0.01 0.00 0.00 0.00 0.00 0.00 0.00 0.00 0.00 0.00 0.00 0.00 0.00 0.00 0.00 0.00 0.00 0.00 0.00 0.00 0.00 0.00 0.01 0.01 0.01 0.01 0.02 0.01 0.01 0.01 0.01
0.22 0.11 0.08 0.12 0.14 0.15 0.13 0.07 0.05 0.04 0.05 0.04 0.03 0.03 0.00 0.00 0.00 0.00 0.00 0.00 0.00 0.00 0.00 0.00 0.00 0.00 0.00 0.00 0.00 0.00 0.00 0.00 0.00 0.00 0.00 0.00 0.01 0.01 0.00 0.01 0.01 0.01 0.01 0.01
0.29 0.13 0.12 0.15 0.10 0.10 0.11 0.06 0.06 0.07 0.09 0.10 0.06 0.06 0.02 0.00 0.00 0.00 0.00 0.00 0.00 0.00 0.00 0.00 0.00 0.00 0.00 0.00 0.00 0.00 0.00 0.00 0.00 0.00 0.00 0.00 0.00 0.00 0.00 0.00 0.01 0.01 0.01 0.01
0.33 0.18 0.16 0.13 0.07 0.07 0.11 0.13 0.14 0.15 0.22 0.31 0.09 0.05 0.03 0.00 0.00 0.00 0.00 0.00 0.00 0.00 0.00 0.00 0.00 0.00 0.00 0.00 0.00 0.00 0.00 0.00 0.00 0.00 0.00 0.00 0.00 0.00 0.00 0.00 0.01 0.01 0.02 0.02
0.41 0.27 0.20 0.13 0.14 0.16 0.21 0.34 0.55 0.57 0.56 0.33 0.05 0.03 0.02 0.00 0.00 0.00 0.00 0.00 0.00 0.00 0.00 0.00 0.00 0.00 0.00 0.00 0.00 0.00 0.00 0.00 0.00 0.00 0.00 0.00 0.01 0.01 0.01 0.01 0.01 0.01 0.03 0.03
0.40 0.29 0.20 0.18 0.16 0.21 0.23 0.29 0.41 0.38 0.24 0.07 0.01 0.01 0.00 0.00 0.00 0.00 0.00 0.00 0.00 0.00 0.00 0.00 0.00 0.00 0.00 0.00 0.00 0.00 0.00 0.00 0.00 0.00 0.00 0.00 0.01 0.01 0.01 0.01 0.01 0.02 0.04 0.03
0.40 0.25 0.12 0.11 0.11 0.14 0.19 0.21 0.17 0.19 0.14 0.08 0.03 0.01 0.00 0.00 0.00 0.00 0.00 0.00 0.00 0.00 0.00 0.00 0.00 0.00 0.00 0.00 0.00 0.00 0.00 0.00 0.00 0.00 0.00 0.00 0.01 0.01 0.01 0.01 0.01 0.02 0.02 0.01
0.41 0.29 0.13 0.11 0.16 0.20 0.20 0.21 0.26 0.40 0.32 0.13 0.05 0.01 0.00 0.00 0.00 0.00 0.00 0.00 0.00 0.00 0.00 0.00 0.00 0.00 0.00 0.00 0.00 0.00 0.00 0.00 0.00 0.00 0.00 0.00 0.01 0.01 0.01 0.01 0.01 0.01 0.01 0.01
0.43 0.37 0.24 0.21 0.26 0.25 0.24 0.31 0.40 0.41 0.26 0.12 0.05 0.01 0.00 0.00 0.00 0.00 0.00 0.00 0.00 0.00 0.00 0.00 0.00 0.00 0.00 0.00 0.00 0.00 0.00 0.00 0.00 0.00 0.00 0.00 0.01 0.01 0.01 0.01 0.01 0.01 0.01 0.01
0.42 0.47 0.34 0.22 0.19 0.17 0.20 0.25 0.32 0.36 0.25 0.08 0.04 0.01 0.00 0.00 0.00 0.00 0.00 0.00 0.00 0.00 0.00 0.00 0.00 0.00 0.00 0.00 0.00 0.00 0.00 0.00 0.00 0.00 0.00 0.00 0.00 0.01 0.01 0.01 0.01 0.01 0.01 0.01
0.55 0.70 0.61 0.41 0.31 0.30 0.34 0.28 0.25 0.25 0.18 0.08 0.03 0.01 0.00 0.00 0.00 0.00 0.00 0.00 0.00 0.00 0.00 0.00 0.00 0.00 0.00 0.00 0.00 0.00 0.00 0.00 0.00 0.00 0.00 0.00 0.00 0.01 0.01 0.01 0.01 0.01 0.01 0.01
0.58 0.68 0.55 0.45 0.33 0.30 0.30 0.24 0.20 0.25 0.25 0.11 0.02 0.00 0.00 0.00 0.00 0.00 0.00 0.00 0.00 0.00 0.00 0.00 0.00 0.00 0.00 0.00 0.00 0.00 0.00 0.00 0.00 0.00 0.00 0.00 0.00 0.01 0.00 0.00 0.01 0.01 0.01 0.01
0.49 0.52 0.29 0.14 0.12 0.13 0.13 0.11 0.13 0.15 0.13 0.06 0.01 0.00 0.00 0.00 0.00 0.00 0.00 0.00 0.00 0.00 0.00 0.00 0.00 0.00 0.00 0.00 0.00 0.00 0.00 0.00 0.00 0.00 0.00 0.00 0.00 0.00 0.00 0.00 0.01 0.01 0.01 0.01
0.51 0.47 0.25 0.13 0.09 0.10 0.10 0.08 0.09 0.08 0.04 0.02 0.01 0.00 0.00 0.00 0.01 0.00 0.00 0.00 0.00 0.00 0.00 0.00 0.00 0.00 0.00 0.00 0.00 0.00 0.00 0.00 0.00 0.00 0.00 0.00 0.00 0.00 0.00 0.00 0.01 0.01 0.01 0.01
0.50 0.48 0.36 0.20 0.11 0.20 0.17 0.07 0.06 0.05 0.03 0.01 0.01 0.00 0.01 0.01 0.01 0.01 0.00 0.00 0.00 0.00 0.00 0.00 0.00 0.00 0.00 0.00 0.00 0.00 0.00 0.00 0.00 0.00 0.00 0.00 0.00 0.00 0.00 0.00 0.01 0.01 0.02 0.02
0.35 0.41 0.42 0.27 0.28 0.44 0.14 0.03 0.03 0.04 0.03 0.02 0.01 0.01 0.01 0.01 0.01 0.01 0.00 0.00 0.00 0.00 0.00 0.00 0.00 0.00 0.00 0.00 0.00 0.00 0.00 0.00 0.00 0.00 0.00 0.00 0.00 0.00 0.00 0.01 0.01 0.01 0.02 0.02
0.14 0.30 0.43 0.34 0.34 0.19 0.04 0.03 0.04 0.06 0.05 0.04 0.02 0.01 0.01 0.01 0.01 0.01 0.01 0.00 0.00 0.00 0.00 0.00 0.00 0.00 0.00 0.00 0.00 0.00 0.00 0.00 0.00 0.00 0.00 0.00 0.00 0.00 0.00 0.01 0.01 0.02 0.02 0.03
0.15 0.28 0.46 0.36 0.27 0.11 0.06 0.04 0.03 0.05 0.09 0.05 0.03 0.02 0.01 0.02 0.03 0.02 0.02 0.01 0.00 0.00 0.00 0.00 0.00 0.00 0.00 0.00 0.00 0.00 0.00 0.00 0.00 0.00 0.00 0.00 0.00 0.00 0.00 0.01 0.01 0.02 0.02 0.03
0.42 0.53 0.52 0.32 0.19 0.05 0.05 0.06 0.06 0.12 0.14 0.06 0.03 0.03 0.02 0.02 0.02 0.02 0.02 0.02 0.01 0.00 0.00 0.00 0.00 0.00 0.00 0.00 0.00 0.00 0.00 0.00 0.00 0.00 0.00 0.00 0.00 0.00 0.01 0.01 0.02 0.02 0.02 0.03
0.43 0.52 0.43 0.29 0.18 0.07 0.07 0.11 0.18 0.16 0.07 0.05 0.03 0.02 0.01 0.01 0.01 0.00 0.01 0.01 0.01 0.00 0.00 0.00 0.00 0.00 0.00 0.00 0.00 0.00 0.00 0.00 0.00 0.00 0.00 0.00 0.00 0.00 0.01 0.02 0.02 0.02 0.03 0.03
0.25 0.34 0.37 0.28 0.13 0.07 0.08 0.12 0.12 0.07 0.05 0.04 0.03 0.02 0.01 0.01 0.00 0.00 0.00 0.01 0.01 0.01 0.00 0.00 0.00 0.00 0.00 0.00 0.00 0.00 0.00 0.00 0.00 0.00 0.00 0.00 0.00 0.01 0.01 0.02 0.03 0.04 0.05 0.06
0.17 0.18 0.21 0.17 0.08 0.06 0.07 0.07 0.05 0.04 0.04 0.04 0.03 0.02 0.01 0.01 0.01 0.00 0.00 0.00 0.01 0.01 0.00 0.00 0.00 0.00 0.00 0.00 0.00 0.00 0.00 0.00 0.00 0.00 0.00 0.00 0.01 0.01 0.02 0.03 0.04 0.05 0.08 0.17
0.13 0.16 0.16 0.11 0.07 0.08 0.07 0.05 0.04 0.03 0.03 0.04 0.03 0.02 0.02 0.01 0.01 0.00 0.00 0.00 0.00 0.00 0.00 0.00 0.00 0.00 0.00 0.00 0.00 0.00 0.00 0.00 0.00 0.00 0.00 0.01 0.01 0.02 0.03 0.04 0.04 0.06 0.09 0.22
0.05 0.07 0.10 0.09 0.06 0.08 0.08 0.06 0.04 0.03 0.03 0.04 0.04 0.02 0.01 0.01 0.01 0.00 0.00 0.00 0.00 0.00 0.00 0.00 0.00 0.00 0.00 0.00 0.00 0.00 0.00 0.00 0.00 0.00 0.01 0.01 0.02 0.03 0.03 0.04 0.04 0.05 0.07 0.12

GEFSCGP_prec_meanprecacc_132.txt.gz
Total_Precipitation_Accumulation
0.34 0.42 0.35 0.19 0.14 0.11 0.08 0.07 0.05 0.02 0.01 0.02 0.03 0.01 0.00 0.00 0.00 0.00 0.00 0.00 0.00 0.00 0.00 0.00 0.00 0.00 0.00 0.00 0.00 0.00 0.00 0.00 0.01 0.02 0.02 0.03 0.03 0.02 0.02 0.02 0.01 0.01 0.01 0.01
0.44 0.39 0.19 0.10 0.09 0.10 0.12 0.12 0.08 0.04 0.02 0.04 0.04 0.02 0.00 0.00 0.00 0.00 0.00 0.00 0.00 0.00 0.00 0.00 0.00 0.00 0.00 0.00 0.00 0.00 0.00 0.00 0.00 0.01 0.01 0.01 0.01 0.02 0.02 0.02 0.01 0.01 0.01 0.01
0.33 0.22 0.10 0.13 0.17 0.19 0.18 0.15 0.09 0.06 0.05 0.06 0.07 0.04 0.01 0.00 0.00 0.00 0.00 0.00 0.00 0.00 0.00 0.00 0.00 0.00 0.00 0.00 0.00 0.00 0.00 0.00 0.00 0.00 0.00 0.01 0.01 0.02 0.02 0.02 0.02 0.01 0.01 0.01
0.25 0.14 0.12 0.18 0.19 0.22 0.21 0.12 0.10 0.10 0.13 0.13 0.10 0.10 0.02 0.00 0.00 0.00 0.00 0.00 0.00 0.00 0.00 0.00 0.00 0.00 0.00 0.00 0.00 0.00 0.00 0.00 0.00 0.00 0.00 0.01 0.01 0.01 0.01 0.01 0.01 0.01 0.01 0.01
0.34 0.16 0.17 0.21 0.15 0.15 0.16 0.09 0.12 0.17 0.21 0.23 0.15 0.14 0.04 0.00 0.00 0.00 0.00 0.00 0.00 0.00 0.00 0.00 0.00 0.00 0.00 0.00 0.00 0.00 0.00 0.00 0.00 0.00 0.00 0.00 0.00 0.00 0.00 0.00 0.01 0.01 0.01 0.01
0.37 0.21 0.21 0.18 0.12 0.12 0.15 0.19 0.25 0.30 0.43 0.56 0.20 0.13 0.06 0.00 0.00 0.00 0.00 0.00 0.00 0.00 0.00 0.00 0.00 0.00 0.00 0.00 0.00 0.00 0.00 0.00 0.00 0.00 0.00 0.00 0.00 0.00 0.00 0.01 0.01 0.01 0.02 0.02
0.47 0.32 0.24 0.18 0.21 0.25 0.31 0.49 0.79 0.85 0.87 0.54 0.09 0.08 0.04 0.00 0.00 0.00 0.00 0.00 0.00 0.00 0.00 0.00 0.00 0.00 0.00 0.00 0.00 0.00 0.00 0.00 0.00 0.00 0.00 0.00 0.01 0.01 0.01 0.01 0.01 0.01 0.03 0.03
0.49 0.35 0.26 0.23 0.23 0.32 0.35 0.43 0.60 0.56 0.36 0.13 0.03 0.05 0.01 0.00 0.00 0.00 0.00 0.00 0.00 0.00 0.00 0.00 0.00 0.00 0.00 0.00 0.00 0.00 0.00 0.00 0.00 0.00 0.00 0.00 0.01 0.01 0.01 0.01 0.01 0.02 0.04 0.03
0.49 0.30 0.17 0.17 0.16 0.21 0.32 0.32 0.25 0.29 0.23 0.15 0.08 0.03 0.00 0.00 0.00 0.00 0.00 0.00 0.00 0.00 0.00 0.00 0.00 0.00 0.00 0.00 0.00 0.00 0.00 0.00 0.00 0.00 0.00 0.00 0.01 0.01 0.01 0.01 0.01 0.02 0.02 0.02
0.51 0.36 0.16 0.14 0.23 0.29 0.31 0.35 0.39 0.58 0.48 0.23 0.09 0.03 0.01 0.01 0.01 0.00 0.00 0.00 0.00 0.00 0.00 0.00 0.00 0.00 0.00 0.00 0.00 0.00 0.00 0.00 0.00 0.00 0.00 0.00 0.01 0.01 0.01 0.01 0.01 0.02 0.01 0.01
0.53 0.47 0.29 0.26 0.36 0.39 0.38 0.49 0.64 0.63 0.39 0.21 0.10 0.03 0.01 0.02 0.01 0.01 0.01 0.01 0.01 0.01 0.00 0.00 0.00 0.00 0.00 0.00 0.00 0.00 0.00 0.00 0.00 0.00 0.00 0.00 0.01 0.01 0.01 0.01 0.01 0.01 0.01 0.01
0.49 0.57 0.39 0.26 0.25 0.25 0.34 0.43 0.53 0.59 0.39 0.14 0.08 0.03 0.02 0.02 0.01 0.01 0.01 0.01 0.00 0.00 0.00 0.00 0.00 0.00 0.00 0.00 0.00 0.00 0.00 0.00 0.00 0.00 0.00 0.00 0.00 0.01 0.01 0.01 0.01 0.01 0.01 0.01
0.64 0.80 0.69 0.49 0.42 0.40 0.47 0.41 0.40 0.42 0.31 0.16 0.08 0.03 0.02 0.02 0.01 0.01 0.01 0.00 0.00 0.00 0.01 0.00 0.00 0.00 0.00 0.00 0.00 0.00 0.00 0.00 0.00 0.00 0.00 0.00 0.00 0.01 0.01 0.01 0.01 0.01 0.01 0.01
0.66 0.75 0.63 0.55 0.47 0.43 0.41 0.33 0.28 0.37 0.39 0.19 0.06 0.03 0.02 0.02 0.01 0.01 0.00 0.00 0.00 0.00 0.01 0.01 0.01 0.00 0.00 0.00 0.00 0.00 0.00 0.00 0.00 0.00 0.00 0.00 0.00 0.01 0.01 0.01 0.01 0.01 0.01 0.01
0.54 0.56 0.32 0.17 0.15 0.20 0.19 0.17 0.18 0.21 0.19 0.12 0.04 0.03 0.03 0.03 0.02 0.01 0.00 0.00 0.00 0.00 0.01 0.01 0.01 0.00 0.00 0.00 0.00 0.00 0.00 0.00 0.00 0.00 0.00 0.00 0.00 0.01 0.00 0.01 0.01 0.01 0.01 0.01
0.54 0.50 0.26 0.14 0.11 0.14 0.14 0.11 0.13 0.13 0.07 0.04 0.03 0.04 0.04 0.03 0.03 0.02 0.01 0.01 0.01 0.00 0.00 0.00 0.01 0.00 0.00 0.00 0.00 0.00 0.00 0.00 0.00 0.00 0.00 0.00 0.00 0.00 0.01 0.01 0.01 0.01 0.01 0.02
0.53 0.51 0.38 0.22 0.13 0.23 0.22 0.11 0.10 0.09 0.06 0.04 0.05 0.06 0.06 0.04 0.04 0.04 0.02 0.01 0.01 0.00 0.00 0.00 0.00 0.00 0.00 0.00 0.00 0.00 0.00 0.00 0.00 0.00 0.00 0.00 0.00 0.00 0.01 0.01 0.01 0.02 0.02 0.02
0.36 0.43 0.46 0.29 0.31 0.49 0.21 0.08 0.07 0.08 0.08 0.06 0.06 0.05 0.05 0.05 0.05 0.04 0.02 0.01 0.00 0.00 0.00 0.00 0.00 0.00 0.00 0.00 0.00 0.00 0.00 0.00 0.00 0.00 0.00 0.00 0.00 0.00 0.01 0.01 0.01 0.02 0.03 0.03
0.14 0.32 0.48 0.38 0.37 0.23 0.11 0.11 0.11 0.14 0.14 0.09 0.06 0.03 0.03 0.04 0.05 0.06 0.04 0.02 0.01 0.00 0.00 0.00 0.00 0.00 0.00 0.00 0.00 0.00 0.00 0.00 0.00 0.00 0.00 0.00 0.00 0.00 0.01 0.01 0.01 0.02 0.02 0.03
0.17 0.31 0.51 0.40 0.32 0.17 0.13 0.10 0.09 0.14 0.20 0.11 0.06 0.04 0.03 0.05 0.08 0.08 0.06 0.03 0.01 0.00 0.00 0.00 0.00 0.00 0.00 0.00 0.00 0.00 0.00 0.00 0.00 0.00 0.00 0.00 0.00 0.00 0.01 0.01 0.02 0.02 0.02 0.03
0.48 0.60 0.58 0.37 0.24 0.09 0.10 0.12 0.12 0.23 0.26 0.12 0.07 0.06 0.04 0.05 0.06 0.05 0.05 0.05 0.02 0.01 0.00 0.00 0.00 0.00 0.00 0.00 0.00 0.00 0.00 0.00 0.00 0.00 0.00 0.00 0.00 0.00 0.01 0.01 0.02 0.02 0.02 0.03
0.47 0.58 0.49 0.35 0.25 0.11 0.12 0.18 0.29 0.29 0.13 0.08 0.06 0.04 0.03 0.02 0.02 0.02 0.04 0.05 0.04 0.02 0.01 0.00 0.00 0.00 0.00 0.00 0.00 0.00 0.00 0.00 0.00 0.00 0.00 0.00 0.00 0.00 0.01 0.02 0.02 0.02 0.03 0.03
0.27 0.37 0.42 0.34 0.18 0.10 0.11 0.17 0.19 0.13 0.09 0.06 0.04 0.03 0.02 0.01 0.01 0.01 0.02 0.04 0.04 0.03 0.01 0.01 0.00 0.00 0.00 0.00 0.00 0.00 0.00 0.00 0.00 0.00 0.00 0.00 0.00 0.01 0.01 0.02 0.03 0.04 0.05 0.07
0.18 0.19 0.23 0.20 0.10 0.07 0.08 0.09 0.09 0.06 0.05 0.05 0.04 0.03 0.02 0.01 0.01 0.01 0.01 0.03 0.03 0.03 0.01 0.01 0.00 0.00 0.00 0.00 0.00 0.00 0.00 0.00 0.00 0.00 0.00 0.00 0.01 0.01 0.02 0.03 0.04 0.05 0.08 0.17
0.14 0.17 0.17 0.12 0.07 0.09 0.08 0.07 0.06 0.04 0.04 0.04 0.04 0.03 0.02 0.02 0.01 0.01 0.01 0.02 0.03 0.03 0.02 0.01 0.01 0.00 0.00 0.00 0.00 0.00 0.00 0.00 0.00 0.00 0.00 0.01 0.01 0.02 0.03 0.04 0.04 0.06 0.09 0.22
0.05 0.08 0.11 0.09 0.07 0.08 0.08 0.06 0.05 0.04 0.04 0.05 0.04 0.03 0.02 0.01 0.01 0.01 0.01 0.01 0.02 0.02 0.02 0.01 0.01 0.00 0.00 0.00 0.00 0.00 0.00 0.00 0.00 0.01 0.01 0.01 0.02 0.03 0.03 0.04 0.04 0.05 0.07 0.12

GEFSCGP_prec_meanprecacc_138.txt.gz
Total_Precipitation_Accumulation
0.41 0.51 0.42 0.24 0.20 0.16 0.13 0.14 0.12 0.07 0.05 0.08 0.08 0.05 0.02 0.01 0.01 0.01 0.00 0.00 0.00 0.01 0.00 0.00 0.00 0.00 0.01 0.02 0.02 0.02 0.03 0.03 0.04 0.03 0.03 0.04 0.03 0.03 0.03 0.02 0.01 0.01 0.01 0.01
0.53 0.47 0.24 0.15 0.15 0.18 0.19 0.20 0.16 0.11 0.08 0.12 0.11 0.05 0.02 0.01 0.01 0.01 0.01 0.00 0.00 0.00 0.00 0.00 0.00 0.00 0.00 0.02 0.02 0.02 0.02 0.02 0.03 0.02 0.01 0.01 0.02 0.02 0.02 0.02 0.02 0.01 0.01 0.01
0.39 0.26 0.13 0.19 0.24 0.29 0.26 0.21 0.13 0.11 0.10 0.13 0.15 0.10 0.02 0.00 0.00 0.01 0.01 0.00 0.00 0.00 0.00 0.00 0.00 0.00 0.00 0.01 0.02 0.02 0.02 0.02 0.03 0.02 0.02 0.02 0.02 0.03 0.02 0.02 0.02 0.01 0.01 0.01
0.28 0.15 0.16 0.24 0.26 0.30 0.28 0.15 0.14 0.15 0.22 0.24 0.19 0.19 0.03 0.00 0.00 0.00 0.00 0.00 0.00 0.00 0.00 0.00 0.00 0.00 0.00 0.00 0.01 0.02 0.02 0.02 0.03 0.04 0.03 0.02 0.01 0.01 0.01 0.01 0.01 0.01 0.01 0.01
0.39 0.18 0.21 0.28 0.20 0.21 0.22 0.13 0.17 0.24 0.32 0.36 0.25 0.24 0.07 0.00 0.00 0.00 0.00 0.00 0.00 0.00 0.00 0.00 0.00 0.00 0.00 0.00 0.01 0.01 0.02 0.02 0.02 0.03 0.03 0.02 0.01 0.00 0.00 0.00 0.01 0.01 0.01 0.01
0.39 0.23 0.25 0.21 0.15 0.17 0.22 0.27 0.33 0.39 0.58 0.74 0.27 0.21 0.10 0.01 0.00 0.00 0.00 0.00 0.00 0.00 0.00 0.00 0.00 0.00 0.00 0.00 0.01 0.01 0.02 0.03 0.02 0.02 0.02 0.02 0.01 0.01 0.01 0.01 0.01 0.01 0.02 0.02
0.49 0.33 0.27 0.22 0.25 0.31 0.41 0.62 0.96 1.02 1.04 0.64 0.11 0.12 0.07 0.00 0.00 0.00 0.00 0.00 0.00 0.00 0.00 0.00 0.00 0.00 0.00 0.00 0.01 0.02 0.03 0.03 0.03 0.02 0.02 0.02 0.02 0.01 0.01 0.01 0.01 0.02 0.03 0.03
0.53 0.38 0.31 0.29 0.29 0.38 0.44 0.55 0.73 0.68 0.44 0.16 0.04 0.06 0.02 0.00 0.00 0.00 0.00 0.00 0.00 0.00 0.00 0.00 0.00 0.00 0.00 0.00 0.00 0.01 0.02 0.02 0.03 0.03 0.02 0.02 0.02 0.02 0.01 0.01 0.01 0.02 0.04 0.03
0.55 0.34 0.20 0.22 0.20 0.27 0.41 0.41 0.32 0.40 0.32 0.20 0.11 0.04 0.01 0.00 0.00 0.00 0.00 0.00 0.00 0.00 0.00 0.00 0.00 0.00 0.00 0.00 0.00 0.01 0.01 0.01 0.02 0.03 0.03 0.03 0.02 0.02 0.01 0.01 0.02 0.02 0.02 0.02
0.58 0.42 0.19 0.18 0.28 0.36 0.37 0.42 0.49 0.71 0.59 0.29 0.13 0.04 0.03 0.02 0.01 0.00 0.00 0.00 0.00 0.00 0.00 0.00 0.00 0.00 0.00 0.00 0.00 0.00 0.01 0.02 0.01 0.02 0.03 0.04 0.03 0.02 0.02 0.02 0.02 0.02 0.02 0.01
0.59 0.55 0.33 0.29 0.44 0.50 0.48 0.59 0.74 0.74 0.47 0.28 0.15 0.08 0.06 0.04 0.02 0.01 0.01 0.01 0.01 0.01 0.00 0.00 0.01 0.00 0.00 0.00 0.00 0.00 0.01 0.02 0.02 0.02 0.02 0.03 0.04 0.03 0.02 0.02 0.02 0.02 0.02 0.02
0.55 0.64 0.43 0.28 0.29 0.32 0.43 0.53 0.64 0.72 0.49 0.20 0.14 0.10 0.08 0.05 0.03 0.02 0.01 0.01 0.01 0.01 0.01 0.01 0.00 0.01 0.01 0.01 0.00 0.00 0.01 0.01 0.01 0.01 0.02 0.01 0.02 0.02 0.03 0.02 0.02 0.02 0.02 0.02
0.70 0.88 0.74 0.52 0.46 0.45 0.54 0.49 0.49 0.51 0.39 0.21 0.12 0.07 0.06 0.05 0.03 0.02 0.02 0.01 0.01 0.00 0.01 0.01 0.01 0.01 0.00 0.01 0.01 0.01 0.01 0.01 0.01 0.02 0.02 0.02 0.02 0.01 0.02 0.02 0.02 0.02 0.02 0.02
0.74 0.81 0.66 0.59 0.50 0.47 0.46 0.39 0.35 0.47 0.48 0.25 0.10 0.06 0.05 0.06 0.05 0.04 0.04 0.03 0.02 0.01 0.01 0.02 0.02 0.01 0.00 0.00 0.00 0.01 0.01 0.01 0.01 0.01 0.02 0.02 0.02 0.02 0.01 0.01 0.01 0.02 0.02 0.02
0.60 0.59 0.32 0.18 0.16 0.22 0.22 0.21 0.24 0.28 0.25 0.16 0.08 0.07 0.07 0.07 0.07 0.05 0.05 0.04 0.04 0.03 0.02 0.02 0.02 0.01 0.01 0.01 0.00 0.00 0.00 0.01 0.01 0.01 0.01 0.01 0.02 0.02 0.02 0.02 0.01 0.01 0.02 0.02
0.58 0.52 0.27 0.15 0.11 0.15 0.17 0.14 0.15 0.16 0.11 0.07 0.05 0.07 0.09 0.09 0.08 0.07 0.05 0.04 0.05 0.03 0.02 0.02 0.03 0.02 0.01 0.01 0.01 0.00 0.00 0.00 0.01 0.01 0.01 0.01 0.02 0.02 0.02 0.02 0.02 0.02 0.02 0.02
0.54 0.53 0.40 0.23 0.14 0.24 0.26 0.15 0.13 0.12 0.10 0.08 0.08 0.10 0.10 0.10 0.10 0.09 0.07 0.05 0.04 0.03 0.02 0.02 0.03 0.03 0.02 0.01 0.01 0.00 0.00 0.00 0.01 0.01 0.01 0.02 0.02 0.02 0.02 0.03 0.03 0.03 0.03 0.04
0.37 0.45 0.49 0.30 0.31 0.52 0.27 0.12 0.11 0.13 0.12 0.10 0.09 0.08 0.08 0.11 0.12 0.12 0.08 0.06 0.04 0.02 0.02 0.01 0.02 0.03 0.02 0.01 0.01 0.00 0.00 0.00 0.00 0.01 0.01 0.01 0.01 0.01 0.02 0.03 0.03 0.04 0.04 0.04
0.15 0.34 0.51 0.41 0.38 0.24 0.14 0.14 0.17 0.21 0.21 0.13 0.09 0.05 0.05 0.08 0.12 0.14 0.09 0.06 0.05 0.03 0.02 0.01 0.01 0.02 0.02 0.01 0.01 0.00 0.00 0.00 0.00 0.01 0.01 0.01 0.01 0.01 0.02 0.02 0.03 0.04 0.04 0.05
0.18 0.32 0.55 0.43 0.35 0.19 0.16 0.13 0.14 0.21 0.28 0.15 0.09 0.07 0.06 0.08 0.14 0.16 0.11 0.07 0.06 0.03 0.02 0.01 0.01 0.02 0.03 0.02 0.01 0.01 0.00 0.00 0.00 0.01 0.01 0.01 0.01 0.01 0.01 0.02 0.03 0.03 0.04 0.04
0.49 0.63 0.62 0.40 0.26 0.11 0.12 0.14 0.16 0.31 0.35 0.16 0.11 0.08 0.07 0.09 0.11 0.10 0.10 0.09 0.06 0.04 0.02 0.01 0.01 0.01 0.02 0.02 0.02 0.01 0.00 0.01 0.00 0.01 0.01 0.01 0.01 0.01 0.02 0.02 0.03 0.03 0.04 0.04
0.47 0.59 0.51 0.38 0.29 0.13 0.13 0.20 0.33 0.36 0.18 0.11 0.09 0.07 0.05 0.04 0.04 0.05 0.07 0.08 0.07 0.05 0.03 0.02 0.01 0.01 0.01 0.02 0.02 0.01 0.01 0.00 0.00 0.00 0.01 0.01 0.01 0.02 0.02 0.03 0.03 0.03 0.04 0.04
0.28 0.38 0.43 0.36 0.20 0.12 0.13 0.20 0.22 0.16 0.12 0.09 0.06 0.05 0.03 0.03 0.03 0.04 0.05 0.06 0.07 0.06 0.04 0.03 0.01 0.01 0.01 0.01 0.01 0.01 0.00 0.00 0.01 0.00 0.01 0.01 0.02 0.02 0.03 0.03 0.04 0.04 0.06 0.07
0.19 0.20 0.24 0.21 0.10 0.08 0.09 0.11 0.11 0.08 0.07 0.07 0.05 0.04 0.03 0.03 0.02 0.02 0.03 0.05 0.06 0.06 0.05 0.04 0.02 0.01 0.01 0.01 0.01 0.00 0.00 0.00 0.00 0.01 0.01 0.01 0.02 0.02 0.03 0.04 0.04 0.06 0.09 0.17
0.14 0.17 0.18 0.12 0.07 0.09 0.09 0.07 0.07 0.05 0.05 0.05 0.05 0.04 0.03 0.03 0.02 0.02 0.02 0.04 0.05 0.05 0.05 0.04 0.02 0.01 0.01 0.01 0.00 0.00 0.00 0.00 0.00 0.01 0.01 0.02 0.02 0.03 0.04 0.04 0.04 0.06 0.10 0.22
0.05 0.08 0.11 0.09 0.07 0.08 0.09 0.06 0.06 0.05 0.05 0.05 0.05 0.04 0.02 0.02 0.02 0.01 0.01 0.03 0.04 0.04 0.04 0.03 0.02 0.01 0.01 0.01 0.01 0.00 0.00 0.00 0.01 0.01 0.02 0.03 0.03 0.03 0.04 0.04 0.05 0.06 0.08 0.12

GEFSCGP_prec_meanprecacc_144.txt.gz
Total_Precipitation_Accumulation
0.44 0.57 0.48 0.29 0.25 0.21 0.18 0.21 0.17 0.09 0.07 0.13 0.13 0.08 0.03 0.01 0.02 0.02 0.01 0.01 0.01 0.02 0.03 0.03 0.05 0.06 0.10 0.14 0.14 0.13 0.12 0.11 0.12 0.10 0.08 0.07 0.06 0.05 0.05 0.04 0.02 0.02 0.01 0.01
0.58 0.52 0.27 0.18 0.20 0.24 0.26 0.27 0.20 0.14 0.11 0.19 0.17 0.08 0.03 0.02 0.02 0.02 0.01 0.01 0.01 0.01 0.01 0.02 0.04 0.05 0.07 0.11 0.13 0.13 0.13 0.11 0.11 0.08 0.05 0.04 0.04 0.04 0.04 0.04 0.03 0.02 0.02 0.02
0.43 0.28 0.15 0.23 0.31 0.37 0.34 0.27 0.17 0.15 0.14 0.20 0.22 0.14 0.02 0.01 0.01 0.01 0.01 0.01 0.01 0.00 0.01 0.01 0.03 0.05 0.05 0.06 0.09 0.11 0.11 0.11 0.12 0.10 0.07 0.06 0.06 0.06 0.06 0.05 0.04 0.02 0.01 0.01
0.33 0.19 0.19 0.29 0.33 0.38 0.36 0.18 0.17 0.20 0.31 0.33 0.26 0.25 0.04 0.00 0.00 0.00 0.00 0.00 0.00 0.00 0.00 0.01 0.01 0.03 0.04 0.04 0.06 0.09 0.11 0.10 0.11 0.14 0.10 0.06 0.05 0.04 0.03 0.03 0.02 0.01 0.01 0.01
0.43 0.23 0.24 0.32 0.24 0.26 0.29 0.18 0.22 0.29 0.41 0.46 0.32 0.31 0.09 0.01 0.01 0.00 0.00 0.00 0.00 0.00 0.00 0.00 0.00 0.02 0.03 0.03 0.04 0.07 0.10 0.13 0.11 0.13 0.12 0.07 0.05 0.03 0.02 0.02 0.02 0.02 0.02 0.01
0.41 0.26 0.28 0.25 0.17 0.21 0.28 0.35 0.39 0.45 0.68 0.84 0.31 0.25 0.11 0.02 0.01 0.00 0.00 0.00 0.00 0.00 0.00 0.00 0.00 0.01 0.01 0.02 0.04 0.06 0.08 0.11 0.12 0.11 0.12 0.10 0.06 0.05 0.04 0.03 0.02 0.02 0.02 0.02
0.50 0.35 0.29 0.24 0.28 0.34 0.48 0.73 1.06 1.10 1.13 0.70 0.12 0.12 0.08 0.02 0.01 0.00 0.00 0.00 0.00 0.00 0.00 0.00 0.00 0.00 0.01 0.02 0.03 0.06 0.07 0.08 0.10 0.11 0.10 0.08 0.08 0.07 0.06 0.05 0.03 0.03 0.03 0.03
0.55 0.39 0.31 0.30 0.31 0.42 0.50 0.65 0.84 0.77 0.51 0.18 0.05 0.07 0.03 0.01 0.01 0.01 0.00 0.00 0.00 0.00 0.00 0.00 0.00 0.00 0.00 0.01 0.02 0.04 0.05 0.06 0.08 0.10 0.09 0.08 0.09 0.09 0.08 0.06 0.05 0.05 0.05 0.03
0.58 0.36 0.21 0.22 0.22 0.32 0.47 0.49 0.40 0.49 0.38 0.23 0.13 0.06 0.03 0.01 0.01 0.01 0.01 0.00 0.00 0.00 0.01 0.00 0.00 0.00 0.00 0.01 0.01 0.02 0.03 0.05 0.06 0.07 0.09 0.09 0.09 0.09 0.08 0.07 0.06 0.06 0.04 0.03
0.61 0.45 0.20 0.19 0.30 0.39 0.42 0.48 0.58 0.80 0.65 0.33 0.15 0.08 0.08 0.05 0.03 0.01 0.01 0.00 0.00 0.00 0.01 0.01 0.00 0.00 0.00 0.00 0.01 0.01 0.02 0.04 0.05 0.06 0.08 0.09 0.09 0.09 0.08 0.08 0.07 0.05 0.04 0.03
0.61 0.58 0.35 0.31 0.47 0.54 0.53 0.66 0.82 0.81 0.54 0.34 0.19 0.13 0.14 0.10 0.05 0.03 0.02 0.01 0.01 0.01 0.01 0.01 0.01 0.01 0.00 0.00 0.00 0.01 0.01 0.03 0.04 0.05 0.06 0.07 0.08 0.11 0.11 0.09 0.06 0.05 0.04 0.04
0.56 0.67 0.45 0.29 0.30 0.33 0.46 0.59 0.71 0.80 0.55 0.25 0.18 0.15 0.14 0.10 0.07 0.05 0.03 0.02 0.01 0.01 0.01 0.01 0.01 0.01 0.01 0.01 0.00 0.00 0.01 0.02 0.03 0.04 0.06 0.06 0.05 0.08 0.12 0.13 0.09 0.06 0.05 0.04
0.74 0.94 0.78 0.53 0.47 0.46 0.56 0.51 0.53 0.58 0.45 0.25 0.16 0.11 0.08 0.07 0.06 0.05 0.04 0.02 0.02 0.01 0.01 0.01 0.01 0.01 0.00 0.01 0.01 0.01 0.01 0.01 0.02 0.04 0.06 0.07 0.05 0.05 0.06 0.09 0.12 0.09 0.06 0.05
0.84 0.90 0.70 0.61 0.52 0.48 0.48 0.40 0.37 0.51 0.54 0.27 0.11 0.08 0.06 0.07 0.07 0.06 0.05 0.04 0.03 0.02 0.02 0.02 0.02 0.01 0.01 0.00 0.00 0.01 0.01 0.01 0.02 0.05 0.06 0.07 0.05 0.04 0.04 0.05 0.07 0.09 0.08 0.06
0.66 0.64 0.34 0.18 0.17 0.23 0.24 0.22 0.25 0.31 0.29 0.19 0.09 0.08 0.09 0.09 0.10 0.09 0.08 0.06 0.06 0.04 0.03 0.03 0.03 0.02 0.01 0.01 0.00 0.01 0.01 0.01 0.02 0.04 0.05 0.04 0.04 0.04 0.05 0.05 0.06 0.06 0.07 0.06
0.61 0.55 0.28 0.15 0.12 0.16 0.18 0.15 0.16 0.17 0.12 0.09 0.07 0.09 0.11 0.12 0.11 0.10 0.09 0.08 0.08 0.06 0.04 0.04 0.04 0.03 0.02 0.01 0.01 0.01 0.01 0.01 0.02 0.02 0.03 0.04 0.06 0.06 0.05 0.05 0.05 0.06 0.06 0.07
0.57 0.56 0.43 0.24 0.14 0.25 0.27 0.16 0.14 0.14 0.12 0.10 0.11 0.12 0.12 0.12 0.13 0.12 0.10 0.09 0.07 0.05 0.04 0.04 0.04 0.04 0.02 0.01 0.01 0.01 0.00 0.01 0.01 0.02 0.03 0.05 0.05 0.06 0.06 0.06 0.06 0.06 0.07 0.08
0.40 0.48 0.53 0.33 0.32 0.53 0.28 0.12 0.11 0.14 0.14 0.12 0.11 0.09 0.10 0.13 0.15 0.16 0.13 0.11 0.08 0.05 0.05 0.04 0.03 0.04 0.03 0.02 0.01 0.01 0.01 0.01 0.01 0.02 0.03 0.04 0.04 0.05 0.07 0.07 0.07 0.07 0.08 0.08
0.17 0.38 0.56 0.44 0.40 0.25 0.15 0.15 0.17 0.22 0.22 0.15 0.10 0.06 0.05 0.09 0.13 0.17 0.13 0.10 0.09 0.07 0.06 0.04 0.03 0.04 0.03 0.02 0.01 0.01 0.01 0.01 0.02 0.02 0.02 0.02 0.03 0.04 0.05 0.07 0.07 0.08 0.09 0.09
0.19 0.36 0.59 0.47 0.37 0.20 0.16 0.13 0.15 0.22 0.29 0.16 0.10 0.08 0.06 0.09 0.16 0.18 0.14 0.11 0.09 0.07 0.06 0.05 0.04 0.04 0.05 0.03 0.01 0.01 0.01 0.01 0.01 0.01 0.01 0.02 0.02 0.03 0.04 0.05 0.07 0.08 0.08 0.08
0.50 0.66 0.65 0.42 0.29 0.11 0.12 0.14 0.17 0.32 0.36 0.17 0.11 0.09 0.08 0.10 0.13 0.12 0.12 0.12 0.10 0.07 0.06 0.04 0.04 0.04 0.05 0.04 0.02 0.01 0.01 0.01 0.01 0.02 0.02 0.03 0.03 0.04 0.04 0.05 0.07 0.07 0.07 0.08
0.48 0.60 0.52 0.39 0.31 0.14 0.14 0.20 0.34 0.37 0.19 0.12 0.09 0.07 0.06 0.05 0.05 0.06 0.09 0.11 0.11 0.08 0.07 0.05 0.04 0.04 0.04 0.03 0.03 0.02 0.01 0.01 0.02 0.02 0.03 0.04 0.04 0.04 0.05 0.05 0.05 0.06 0.07 0.08
0.28 0.39 0.44 0.37 0.21 0.12 0.13 0.20 0.23 0.17 0.14 0.09 0.07 0.06 0.04 0.03 0.03 0.05 0.08 0.09 0.11 0.09 0.08 0.07 0.05 0.04 0.04 0.04 0.03 0.02 0.02 0.02 0.02 0.02 0.03 0.04 0.04 0.05 0.05 0.06 0.06 0.07 0.08 0.10
0.19 0.20 0.25 0.21 0.10 0.08 0.09 0.11 0.11 0.09 0.08 0.07 0.06 0.05 0.04 0.03 0.03 0.04 0.06 0.08 0.08 0.09 0.08 0.07 0.05 0.05 0.05 0.04 0.03 0.02 0.02 0.02 0.02 0.02 0.03 0.04 0.05 0.06 0.06 0.07 0.07 0.08 0.11 0.20
0.14 0.17 0.18 0.13 0.07 0.09 0.09 0.07 0.07 0.06 0.05 0.06 0.05 0.04 0.03 0.03 0.04 0.04 0.04 0.06 0.07 0.07 0.07 0.07 0.05 0.05 0.05 0.05 0.05 0.04 0.02 0.02 0.02 0.03 0.03 0.04 0.05 0.07 0.07 0.07 0.07 0.09 0.11 0.24
0.05 0.08 0.11 0.10 0.07 0.09 0.09 0.07 0.06 0.06 0.05 0.05 0.05 0.04 0.03 0.03 0.03 0.03 0.03 0.04 0.05 0.06 0.07 0.06 0.05 0.05 0.06 0.06 0.06 0.06 0.04 0.03 0.03 0.03 0.04 0.05 0.06 0.07 0.08 0.08 0.08 0.10 0.11 0.15

GEFSCGP_prec_meanprecacc_150.txt.gz
Total_Precipitation_Accumulation
0.46 0.59 0.50 0.32 0.29 0.27 0.23 0.26 0.21 0.12 0.10 0.16 0.16 0.10 0.04 0.03 0.03 0.03 0.02 0.02 0.02 0.03 0.03 0.04 0.07 0.09 0.13 0.19 0.23 0.25 0.24 0.26 0.32 0.32 0.28 0.24 0.18 0.13 0.10 0.08 0.07 0.06 0.07 0.08
0.60 0.54 0.28 0.20 0.22 0.28 0.31 0.33 0.25 0.17 0.13 0.22 0.20 0.10 0.04 0.03 0.03 0.03 0.02 0.02 0.02 0.01 0.02 0.03 0.05 0.08 0.11 0.15 0.20 0.23 0.25 0.26 0.29 0.30 0.24 0.19 0.15 0.12 0.09 0.07 0.07 0.06 0.07 0.08
0.45 0.30 0.16 0.25 0.32 0.40 0.38 0.31 0.21 0.19 0.18 0.23 0.26 0.17 0.04 0.02 0.01 0.01 0.02 0.02 0.02 0.01 0.01 0.02 0.04 0.07 0.09 0.12 0.16 0.18 0.22 0.25 0.28 0.33 0.31 0.26 0.24 0.20 0.14 0.09 0.09 0.07 0.06 0.07
0.34 0.19 0.20 0.30 0.34 0.40 0.40 0.21 0.19 0.22 0.35 0.38 0.30 0.30 0.05 0.02 0.01 0.01 0.01 0.02 0.02 0.02 0.01 0.01 0.02 0.06 0.07 0.09 0.13 0.17 0.21 0.25 0.26 0.35 0.37 0.27 0.22 0.20 0.13 0.07 0.06 0.07 0.08 0.07
0.44 0.23 0.25 0.33 0.24 0.27 0.31 0.20 0.24 0.31 0.43 0.49 0.35 0.34 0.10 0.02 0.02 0.01 0.01 0.01 0.01 0.01 0.01 0.00 0.01 0.03 0.05 0.08 0.12 0.16 0.20 0.28 0.27 0.31 0.37 0.30 0.21 0.17 0.13 0.09 0.06 0.07 0.09 0.09
0.41 0.27 0.30 0.26 0.18 0.21 0.30 0.37 0.41 0.47 0.71 0.87 0.32 0.26 0.14 0.06 0.06 0.02 0.01 0.01 0.01 0.01 0.01 0.00 0.00 0.02 0.05 0.07 0.12 0.16 0.19 0.26 0.28 0.27 0.31 0.33 0.25 0.19 0.16 0.12 0.07 0.07 0.09 0.10
0.51 0.35 0.29 0.25 0.29 0.35 0.50 0.77 1.11 1.13 1.16 0.72 0.13 0.14 0.13 0.08 0.06 0.05 0.03 0.02 0.02 0.01 0.01 0.01 0.01 0.01 0.03 0.06 0.10 0.15 0.18 0.21 0.24 0.24 0.26 0.26 0.28 0.24 0.18 0.14 0.09 0.07 0.08 0.09
0.55 0.40 0.32 0.30 0.32 0.44 0.53 0.70 0.90 0.82 0.53 0.19 0.06 0.10 0.09 0.06 0.04 0.04 0.03 0.02 0.01 0.01 0.01 0.01 0.01 0.02 0.02 0.04 0.08 0.12 0.15 0.17 0.19 0.20 0.21 0.20 0.25 0.30 0.23 0.17 0.13 0.10 0.09 0.07
0.59 0.36 0.21 0.23 0.23 0.33 0.50 0.53 0.45 0.55 0.41 0.25 0.15 0.09 0.07 0.03 0.03 0.03 0.02 0.02 0.02 0.02 0.01 0.01 0.01 0.02 0.02 0.03 0.06 0.10 0.12 0.14 0.15 0.17 0.19 0.19 0.19 0.25 0.27 0.21 0.15 0.13 0.10 0.08
0.62 0.46 0.20 0.19 0.30 0.39 0.43 0.50 0.62 0.86 0.70 0.36 0.17 0.11 0.13 0.08 0.06 0.04 0.04 0.03 0.02 0.02 0.02 0.02 0.01 0.02 0.02 0.02 0.04 0.08 0.12 0.12 0.11 0.13 0.18 0.19 0.17 0.18 0.23 0.25 0.19 0.13 0.11 0.10
0.62 0.60 0.35 0.31 0.47 0.55 0.54 0.68 0.85 0.85 0.57 0.38 0.22 0.18 0.20 0.14 0.11 0.09 0.07 0.05 0.03 0.03 0.03 0.03 0.03 0.03 0.03 0.03 0.03 0.07 0.12 0.11 0.10 0.11 0.13 0.17 0.17 0.18 0.22 0.24 0.20 0.14 0.10 0.09
0.57 0.70 0.46 0.29 0.30 0.33 0.47 0.60 0.74 0.85 0.58 0.28 0.22 0.19 0.17 0.13 0.11 0.10 0.08 0.05 0.03 0.02 0.02 0.02 0.02 0.03 0.04 0.04 0.04 0.07 0.11 0.10 0.08 0.10 0.12 0.13 0.15 0.16 0.21 0.23 0.22 0.18 0.13 0.09
0.79 1.02 0.82 0.54 0.47 0.47 0.56 0.51 0.55 0.61 0.49 0.28 0.18 0.12 0.09 0.08 0.07 0.08 0.08 0.06 0.04 0.02 0.02 0.02 0.02 0.02 0.03 0.03 0.03 0.06 0.09 0.08 0.07 0.10 0.12 0.13 0.15 0.15 0.14 0.17 0.21 0.21 0.16 0.11
0.92 1.00 0.74 0.62 0.52 0.49 0.49 0.41 0.38 0.54 0.58 0.29 0.12 0.08 0.06 0.08 0.08 0.08 0.08 0.07 0.06 0.04 0.03 0.03 0.03 0.02 0.03 0.02 0.02 0.03 0.06 0.07 0.08 0.10 0.11 0.12 0.12 0.13 0.12 0.12 0.14 0.16 0.16 0.13
0.70 0.69 0.35 0.19 0.17 0.23 0.25 0.23 0.26 0.33 0.30 0.21 0.10 0.09 0.09 0.10 0.11 0.12 0.11 0.09 0.08 0.06 0.05 0.04 0.04 0.03 0.03 0.03 0.02 0.02 0.03 0.05 0.07 0.09 0.09 0.09 0.10 0.13 0.14 0.12 0.11 0.11 0.12 0.12
0.63 0.59 0.29 0.16 0.12 0.16 0.19 0.16 0.17 0.18 0.13 0.10 0.08 0.09 0.11 0.12 0.12 0.12 0.11 0.10 0.10 0.07 0.06 0.05 0.04 0.03 0.03 0.03 0.03 0.02 0.02 0.03 0.05 0.06 0.07 0.08 0.10 0.14 0.15 0.14 0.12 0.10 0.10 0.10
0.61 0.59 0.46 0.26 0.14 0.26 0.28 0.17 0.15 0.15 0.12 0.11 0.12 0.12 0.12 0.13 0.13 0.13 0.12 0.10 0.09 0.07 0.06 0.05 0.05 0.04 0.03 0.03 0.03 0.02 0.01 0.02 0.03 0.05 0.07 0.10 0.10 0.11 0.15 0.17 0.15 0.12 0.11 0.11
0.42 0.52 0.59 0.36 0.34 0.55 0.28 0.13 0.12 0.14 0.14 0.12 0.11 0.09 0.10 0.13 0.15 0.16 0.14 0.12 0.09 0.07 0.07 0.05 0.04 0.05 0.04 0.03 0.02 0.02 0.02 0.02 0.03 0.05 0.07 0.08 0.09 0.09 0.14 0.18 0.17 0.15 0.13 0.12
0.18 0.42 0.62 0.48 0.42 0.25 0.15 0.15 0.18 0.23 0.23 0.15 0.10 0.06 0.05 0.09 0.13 0.17 0.13 0.11 0.09 0.08 0.08 0.07 0.06 0.05 0.05 0.04 0.03 0.02 0.02 0.02 0.03 0.04 0.05 0.05 0.08 0.08 0.11 0.15 0.15 0.15 0.14 0.13
0.19 0.38 0.64 0.51 0.40 0.21 0.16 0.13 0.15 0.23 0.30 0.16 0.10 0.08 0.07 0.09 0.16 0.18 0.14 0.11 0.09 0.07 0.07 0.07 0.07 0.07 0.07 0.05 0.04 0.03 0.02 0.02 0.03 0.02 0.03 0.04 0.06 0.07 0.09 0.11 0.14 0.14 0.14 0.14
0.51 0.68 0.68 0.45 0.31 0.12 0.12 0.14 0.17 0.33 0.37 0.17 0.11 0.09 0.09 0.11 0.13 0.13 0.13 0.12 0.10 0.07 0.07 0.06 0.07 0.08 0.08 0.07 0.05 0.04 0.03 0.02 0.02 0.02 0.03 0.05 0.07 0.07 0.09 0.12 0.13 0.14 0.13 0.14
0.48 0.62 0.54 0.41 0.33 0.15 0.14 0.21 0.34 0.37 0.19 0.12 0.10 0.08 0.06 0.06 0.05 0.06 0.09 0.11 0.11 0.08 0.07 0.08 0.07 0.07 0.07 0.07 0.07 0.05 0.04 0.03 0.03 0.03 0.05 0.06 0.08 0.08 0.10 0.11 0.11 0.12 0.14 0.14
0.28 0.39 0.45 0.38 0.21 0.12 0.13 0.20 0.23 0.17 0.14 0.10 0.08 0.06 0.04 0.04 0.03 0.05 0.08 0.10 0.11 0.10 0.09 0.10 0.09 0.07 0.07 0.07 0.07 0.07 0.05 0.04 0.04 0.04 0.06 0.08 0.09 0.09 0.10 0.10 0.11 0.12 0.15 0.16
0.19 0.20 0.26 0.22 0.10 0.08 0.09 0.11 0.11 0.09 0.08 0.08 0.07 0.05 0.04 0.04 0.04 0.05 0.07 0.09 0.09 0.10 0.10 0.11 0.10 0.08 0.07 0.07 0.07 0.07 0.06 0.05 0.05 0.05 0.05 0.07 0.09 0.11 0.12 0.11 0.11 0.12 0.15 0.24
0.14 0.18 0.19 0.13 0.07 0.09 0.09 0.07 0.07 0.06 0.05 0.06 0.06 0.04 0.04 0.04 0.04 0.04 0.05 0.07 0.08 0.10 0.10 0.09 0.10 0.08 0.08 0.08 0.08 0.08 0.06 0.06 0.06 0.05 0.06 0.08 0.10 0.13 0.14 0.13 0.12 0.12 0.13 0.26
0.05 0.08 0.12 0.10 0.07 0.09 0.09 0.07 0.06 0.06 0.06 0.06 0.06 0.05 0.03 0.03 0.03 0.04 0.04 0.06 0.08 0.09 0.09 0.09 0.09 0.09 0.09 0.09 0.10 0.11 0.09 0.07 0.07 0.07 0.08 0.10 0.11 0.13 0.15 0.15 0.15 0.17 0.16 0.19

GEFSCGP_prec_meanprecacc_156.txt.gz
Total_Precipitation_Accumulation
0.47 0.61 0.52 0.33 0.31 0.29 0.25 0.29 0.25 0.16 0.13 0.20 0.20 0.12 0.06 0.06 0.06 0.06 0.05 0.04 0.04 0.04 0.04 0.06 0.10 0.13 0.18 0.24 0.29 0.33 0.36 0.39 0.47 0.55 0.65 0.59 0.51 0.48 0.41 0.34 0.32 0.28 0.25 0.21
0.60 0.55 0.29 0.20 0.23 0.30 0.32 0.35 0.27 0.20 0.16 0.25 0.22 0.12 0.05 0.05 0.06 0.05 0.04 0.04 0.03 0.03 0.03 0.05 0.09 0.13 0.16 0.21 0.26 0.30 0.36 0.38 0.43 0.49 0.54 0.58 0.48 0.46 0.43 0.35 0.32 0.29 0.26 0.22
0.45 0.31 0.16 0.25 0.33 0.42 0.39 0.32 0.23 0.22 0.21 0.26 0.29 0.20 0.06 0.04 0.04 0.03 0.03 0.03 0.04 0.04 0.03 0.03 0.07 0.13 0.14 0.18 0.22 0.25 0.32 0.39 0.42 0.52 0.59 0.64 0.66 0.55 0.51 0.43 0.34 0.32 0.29 0.24
0.35 0.20 0.20 0.31 0.36 0.42 0.42 0.22 0.20 0.24 0.38 0.43 0.34 0.36 0.09 0.05 0.05 0.04 0.03 0.04 0.05 0.05 0.03 0.02 0.04 0.11 0.13 0.14 0.20 0.26 0.32 0.38 0.39 0.54 0.64 0.59 0.60 0.51 0.42 0.36 0.31 0.30 0.30 0.26
0.45 0.24 0.26 0.34 0.26 0.29 0.33 0.20 0.24 0.32 0.45 0.52 0.37 0.39 0.15 0.04 0.04 0.04 0.03 0.03 0.04 0.05 0.04 0.02 0.03 0.06 0.11 0.12 0.17 0.26 0.33 0.41 0.40 0.48 0.63 0.61 0.53 0.45 0.36 0.34 0.32 0.30 0.30 0.29
0.42 0.27 0.31 0.27 0.18 0.22 0.30 0.37 0.42 0.48 0.73 0.91 0.34 0.29 0.17 0.10 0.10 0.06 0.04 0.03 0.04 0.04 0.04 0.03 0.02 0.04 0.10 0.13 0.17 0.25 0.34 0.41 0.42 0.44 0.54 0.62 0.54 0.47 0.40 0.34 0.31 0.30 0.29 0.29
0.51 0.36 0.30 0.26 0.30 0.35 0.51 0.79 1.13 1.16 1.20 0.75 0.14 0.17 0.17 0.11 0.10 0.10 0.07 0.04 0.04 0.03 0.04 0.04 0.03 0.04 0.07 0.12 0.16 0.22 0.32 0.39 0.43 0.41 0.45 0.50 0.55 0.51 0.41 0.32 0.29 0.27 0.26 0.25
0.55 0.40 0.32 0.31 0.33 0.45 0.54 0.72 0.94 0.85 0.56 0.21 0.07 0.14 0.13 0.08 0.06 0.07 0.05 0.03 0.02 0.03 0.03 0.04 0.04 0.04 0.07 0.09 0.13 0.18 0.26 0.35 0.44 0.43 0.41 0.42 0.47 0.54 0.46 0.35 0.29 0.25 0.22 0.20
0.59 0.36 0.21 0.23 0.23 0.33 0.50 0.54 0.46 0.59 0.43 0.27 0.17 0.11 0.09 0.03 0.03 0.04 0.04 0.03 0.03 0.03 0.04 0.04 0.04 0.05 0.06 0.09 0.10 0.15 0.21 0.29 0.39 0.46 0.43 0.39 0.40 0.46 0.48 0.39 0.31 0.28 0.21 0.19
0.63 0.47 0.21 0.19 0.30 0.39 0.44 0.51 0.63 0.89 0.74 0.38 0.19 0.14 0.16 0.09 0.07 0.06 0.05 0.05 0.04 0.03 0.04 0.05 0.05 0.06 0.06 0.08 0.09 0.14 0.19 0.25 0.31 0.42 0.49 0.43 0.37 0.38 0.43 0.44 0.35 0.27 0.24 0.20
0.63 0.62 0.35 0.31 0.47 0.55 0.54 0.68 0.86 0.88 0.60 0.41 0.24 0.21 0.22 0.15 0.12 0.11 0.09 0.07 0.06 0.05 0.05 0.06 0.06 0.06 0.07 0.08 0.09 0.13 0.20 0.24 0.28 0.34 0.42 0.46 0.39 0.38 0.41 0.45 0.39 0.30 0.23 0.21
0.58 0.71 0.47 0.29 0.30 0.33 0.47 0.61 0.75 0.88 0.60 0.30 0.24 0.21 0.18 0.14 0.12 0.12 0.10 0.07 0.05 0.04 0.04 0.04 0.04 0.06 0.08 0.10 0.11 0.13 0.20 0.23 0.24 0.29 0.35 0.39 0.39 0.38 0.42 0.41 0.43 0.38 0.28 0.21
0.80 1.05 0.85 0.55 0.48 0.47 0.57 0.52 0.55 0.62 0.52 0.31 0.20 0.13 0.09 0.08 0.08 0.08 0.09 0.08 0.06 0.04 0.03 0.03 0.03 0.04 0.06 0.08 0.09 0.12 0.19 0.24 0.23 0.27 0.32 0.34 0.35 0.35 0.34 0.34 0.36 0.41 0.37 0.27
0.96 1.05 0.77 0.64 0.53 0.50 0.50 0.41 0.39 0.57 0.62 0.31 0.13 0.08 0.06 0.08 0.09 0.08 0.09 0.10 0.08 0.06 0.04 0.04 0.04 0.04 0.04 0.05 0.05 0.08 0.16 0.24 0.26 0.27 0.31 0.31 0.30 0.30 0.28 0.30 0.30 0.32 0.34 0.34
0.72 0.72 0.36 0.19 0.17 0.24 0.25 0.24 0.27 0.35 0.32 0.23 0.11 0.09 0.09 0.10 0.12 0.13 0.12 0.11 0.10 0.07 0.06 0.06 0.05 0.05 0.05 0.06 0.05 0.06 0.10 0.20 0.27 0.26 0.29 0.25 0.25 0.28 0.28 0.28 0.28 0.28 0.28 0.28
0.65 0.61 0.30 0.17 0.12 0.17 0.19 0.16 0.17 0.19 0.14 0.11 0.09 0.10 0.11 0.13 0.13 0.12 0.11 0.11 0.11 0.09 0.07 0.06 0.06 0.05 0.06 0.08 0.06 0.05 0.07 0.15 0.23 0.22 0.26 0.25 0.24 0.27 0.29 0.28 0.26 0.27 0.27 0.25
0.63 0.62 0.49 0.27 0.14 0.27 0.29 0.17 0.15 0.15 0.13 0.11 0.12 0.13 0.12 0.13 0.14 0.14 0.13 0.11 0.10 0.08 0.07 0.06 0.06 0.05 0.06 0.08 0.06 0.05 0.05 0.11 0.19 0.20 0.23 0.27 0.24 0.24 0.28 0.30 0.29 0.26 0.26 0.26
0.44 0.56 0.64 0.39 0.35 0.56 0.29 0.13 0.12 0.14 0.15 0.13 0.11 0.10 0.11 0.14 0.15 0.17 0.15 0.13 0.10 0.08 0.08 0.05 0.05 0.06 0.06 0.07 0.05 0.05 0.04 0.08 0.15 0.18 0.20 0.23 0.23 0.23 0.27 0.31 0.30 0.28 0.25 0.24
0.19 0.45 0.67 0.52 0.45 0.26 0.15 0.15 0.18 0.24 0.23 0.15 0.10 0.07 0.06 0.09 0.13 0.18 0.14 0.11 0.10 0.09 0.09 0.07 0.06 0.06 0.06 0.06 0.05 0.04 0.05 0.07 0.14 0.17 0.16 0.19 0.22 0.21 0.24 0.28 0.30 0.28 0.27 0.24
0.20 0.40 0.69 0.54 0.43 0.22 0.17 0.13 0.15 0.23 0.31 0.16 0.10 0.08 0.07 0.10 0.17 0.19 0.14 0.11 0.09 0.08 0.08 0.08 0.08 0.08 0.08 0.06 0.05 0.04 0.04 0.06 0.11 0.13 0.11 0.16 0.19 0.19 0.21 0.22 0.27 0.28 0.26 0.25
0.52 0.71 0.73 0.48 0.35 0.13 0.12 0.14 0.17 0.34 0.38 0.17 0.11 0.10 0.09 0.12 0.14 0.13 0.13 0.13 0.10 0.08 0.07 0.07 0.08 0.09 0.08 0.07 0.07 0.06 0.05 0.05 0.09 0.11 0.09 0.14 0.18 0.18 0.20 0.22 0.23 0.27 0.26 0.24
0.49 0.63 0.55 0.42 0.37 0.16 0.14 0.21 0.35 0.38 0.19 0.12 0.10 0.08 0.07 0.07 0.06 0.07 0.09 0.12 0.12 0.09 0.08 0.09 0.08 0.08 0.07 0.08 0.08 0.07 0.06 0.06 0.08 0.09 0.10 0.14 0.18 0.19 0.21 0.21 0.20 0.23 0.27 0.25
0.28 0.40 0.45 0.39 0.22 0.12 0.13 0.21 0.23 0.17 0.14 0.10 0.08 0.07 0.06 0.05 0.04 0.06 0.09 0.10 0.12 0.11 0.10 0.10 0.10 0.08 0.08 0.07 0.09 0.09 0.07 0.07 0.07 0.08 0.10 0.13 0.18 0.21 0.21 0.20 0.20 0.23 0.27 0.27
0.19 0.20 0.26 0.22 0.10 0.08 0.09 0.11 0.11 0.09 0.08 0.08 0.08 0.07 0.06 0.05 0.04 0.05 0.07 0.09 0.10 0.11 0.11 0.11 0.10 0.09 0.09 0.08 0.08 0.09 0.08 0.08 0.08 0.08 0.09 0.12 0.17 0.23 0.25 0.22 0.20 0.21 0.25 0.32
0.15 0.18 0.19 0.14 0.07 0.09 0.09 0.08 0.07 0.06 0.06 0.07 0.07 0.06 0.05 0.05 0.05 0.05 0.06 0.08 0.10 0.11 0.11 0.10 0.10 0.09 0.09 0.09 0.10 0.12 0.09 0.09 0.10 0.09 0.10 0.12 0.16 0.23 0.27 0.25 0.22 0.21 0.21 0.33
0.05 0.09 0.13 0.11 0.07 0.10 0.09 0.07 0.06 0.06 0.06 0.07 0.07 0.06 0.05 0.04 0.05 0.05 0.05 0.07 0.10 0.12 0.11 0.09 0.09 0.09 0.10 0.10 0.12 0.15 0.12 0.11 0.12 0.11 0.12 0.15 0.17 0.22 0.26 0.26 0.28 0.31 0.27 0.29

GEFSCGP_prec_meanprecacc_162.txt.gz
Total_Precipitation_Accumulation
0.49 0.62 0.53 0.34 0.32 0.29 0.26 0.31 0.27 0.17 0.15 0.21 0.22 0.15 0.09 0.09 0.08 0.08 0.07 0.06 0.07 0.08 0.07 0.08 0.12 0.17 0.22 0.29 0.35 0.39 0.43 0.49 0.58 0.69 0.82 0.80 0.73 0.73 0.68 0.63 0.60 0.53 0.50 0.48
0.61 0.56 0.30 0.21 0.24 0.30 0.34 0.36 0.29 0.21 0.17 0.26 0.25 0.16 0.09 0.08 0.07 0.07 0.06 0.06 0.06 0.06 0.06 0.08 0.12 0.16 0.20 0.27 0.32 0.37 0.43 0.48 0.56 0.63 0.67 0.75 0.72 0.72 0.72 0.65 0.63 0.56 0.50 0.47
0.45 0.31 0.17 0.26 0.34 0.43 0.40 0.33 0.24 0.24 0.22 0.28 0.33 0.24 0.09 0.07 0.06 0.05 0.05 0.05 0.07 0.07 0.06 0.06 0.12 0.17 0.20 0.26 0.29 0.32 0.39 0.47 0.54 0.68 0.77 0.82 0.93 0.90 0.86 0.79 0.69 0.58 0.52 0.48
0.35 0.21 0.21 0.32 0.36 0.43 0.43 0.23 0.21 0.25 0.39 0.45 0.39 0.43 0.13 0.08 0.07 0.06 0.06 0.06 0.08 0.08 0.06 0.06 0.09 0.16 0.18 0.22 0.28 0.34 0.39 0.48 0.53 0.70 0.86 0.80 0.86 0.84 0.75 0.69 0.68 0.60 0.53 0.50
0.45 0.24 0.26 0.34 0.26 0.30 0.33 0.20 0.25 0.32 0.45 0.54 0.40 0.44 0.18 0.07 0.07 0.05 0.05 0.05 0.06 0.07 0.07 0.06 0.07 0.10 0.15 0.19 0.26 0.34 0.41 0.51 0.56 0.65 0.84 0.84 0.74 0.71 0.68 0.68 0.68 0.64 0.56 0.52
0.42 0.27 0.31 0.28 0.19 0.22 0.31 0.38 0.43 0.49 0.74 0.92 0.36 0.34 0.22 0.14 0.14 0.08 0.05 0.04 0.05 0.05 0.07 0.06 0.06 0.07 0.14 0.19 0.25 0.34 0.45 0.51 0.57 0.60 0.71 0.85 0.77 0.71 0.68 0.69 0.70 0.67 0.61 0.54
0.51 0.36 0.30 0.26 0.30 0.36 0.52 0.80 1.15 1.17 1.21 0.76 0.16 0.23 0.24 0.15 0.12 0.12 0.08 0.05 0.04 0.04 0.06 0.07 0.07 0.08 0.12 0.18 0.24 0.32 0.44 0.51 0.56 0.58 0.62 0.71 0.79 0.76 0.68 0.61 0.60 0.62 0.61 0.56
0.56 0.40 0.33 0.31 0.33 0.45 0.54 0.73 0.95 0.87 0.57 0.22 0.10 0.20 0.19 0.12 0.08 0.08 0.06 0.04 0.03 0.03 0.04 0.06 0.07 0.09 0.12 0.15 0.20 0.27 0.36 0.47 0.57 0.62 0.62 0.64 0.71 0.81 0.73 0.64 0.56 0.53 0.52 0.48
0.60 0.37 0.22 0.23 0.23 0.34 0.51 0.54 0.47 0.59 0.43 0.27 0.18 0.14 0.12 0.06 0.04 0.05 0.05 0.04 0.03 0.04 0.05 0.06 0.07 0.09 0.12 0.16 0.17 0.22 0.28 0.39 0.51 0.62 0.67 0.66 0.66 0.72 0.77 0.67 0.58 0.52 0.46 0.44
0.63 0.47 0.21 0.19 0.31 0.40 0.44 0.51 0.63 0.90 0.75 0.39 0.20 0.17 0.19 0.11 0.09 0.07 0.06 0.06 0.04 0.04 0.05 0.06 0.07 0.10 0.12 0.15 0.16 0.20 0.26 0.33 0.42 0.55 0.70 0.70 0.65 0.64 0.71 0.72 0.64 0.54 0.46 0.41
0.63 0.62 0.36 0.31 0.47 0.55 0.54 0.68 0.86 0.88 0.61 0.42 0.25 0.22 0.23 0.16 0.13 0.12 0.10 0.08 0.06 0.05 0.06 0.07 0.07 0.09 0.12 0.15 0.18 0.22 0.28 0.32 0.37 0.44 0.59 0.69 0.68 0.68 0.70 0.73 0.69 0.59 0.46 0.39
0.58 0.72 0.48 0.29 0.30 0.33 0.47 0.61 0.76 0.89 0.61 0.31 0.26 0.21 0.18 0.14 0.13 0.13 0.11 0.08 0.06 0.04 0.04 0.05 0.06 0.09 0.12 0.15 0.18 0.22 0.29 0.31 0.33 0.38 0.48 0.59 0.65 0.67 0.70 0.67 0.69 0.69 0.58 0.43
0.81 1.07 0.86 0.55 0.48 0.47 0.57 0.52 0.55 0.63 0.55 0.33 0.22 0.14 0.09 0.08 0.08 0.08 0.10 0.09 0.07 0.04 0.03 0.04 0.05 0.07 0.10 0.13 0.16 0.20 0.27 0.30 0.30 0.36 0.43 0.52 0.61 0.64 0.64 0.59 0.57 0.67 0.71 0.62
0.98 1.08 0.79 0.64 0.53 0.50 0.50 0.42 0.39 0.58 0.65 0.33 0.13 0.08 0.06 0.08 0.09 0.08 0.10 0.11 0.09 0.06 0.05 0.05 0.05 0.06 0.07 0.09 0.11 0.16 0.24 0.30 0.33 0.35 0.40 0.45 0.53 0.57 0.56 0.55 0.50 0.53 0.60 0.64
0.75 0.75 0.37 0.20 0.17 0.24 0.26 0.24 0.27 0.35 0.33 0.24 0.11 0.09 0.10 0.11 0.12 0.13 0.13 0.12 0.10 0.07 0.07 0.06 0.06 0.06 0.07 0.09 0.10 0.12 0.18 0.28 0.35 0.35 0.38 0.36 0.43 0.52 0.53 0.51 0.49 0.49 0.51 0.51
0.69 0.65 0.32 0.17 0.12 0.17 0.20 0.16 0.17 0.19 0.14 0.11 0.09 0.10 0.11 0.13 0.13 0.13 0.12 0.11 0.12 0.09 0.07 0.06 0.06 0.06 0.08 0.11 0.11 0.10 0.14 0.23 0.33 0.33 0.36 0.36 0.40 0.48 0.52 0.49 0.48 0.48 0.49 0.48
0.67 0.66 0.54 0.29 0.15 0.27 0.30 0.17 0.15 0.15 0.13 0.12 0.12 0.13 0.12 0.13 0.14 0.15 0.13 0.12 0.11 0.09 0.08 0.06 0.06 0.06 0.08 0.13 0.11 0.11 0.12 0.19 0.31 0.32 0.34 0.38 0.39 0.42 0.49 0.50 0.49 0.48 0.48 0.47
0.47 0.60 0.71 0.43 0.37 0.57 0.29 0.13 0.12 0.14 0.15 0.13 0.12 0.10 0.11 0.14 0.15 0.17 0.15 0.14 0.10 0.09 0.08 0.06 0.06 0.06 0.08 0.11 0.10 0.10 0.12 0.18 0.28 0.33 0.32 0.36 0.37 0.37 0.45 0.49 0.48 0.48 0.47 0.43
0.20 0.48 0.74 0.58 0.48 0.27 0.15 0.15 0.18 0.24 0.23 0.15 0.11 0.07 0.06 0.09 0.14 0.18 0.14 0.11 0.10 0.10 0.09 0.08 0.07 0.07 0.08 0.11 0.11 0.10 0.12 0.16 0.24 0.30 0.29 0.32 0.34 0.34 0.39 0.44 0.46 0.45 0.47 0.43
0.21 0.43 0.75 0.60 0.47 0.23 0.17 0.13 0.15 0.23 0.31 0.17 0.11 0.08 0.07 0.10 0.18 0.19 0.14 0.11 0.10 0.08 0.08 0.08 0.08 0.08 0.10 0.11 0.11 0.10 0.12 0.13 0.20 0.26 0.24 0.29 0.30 0.29 0.33 0.36 0.41 0.43 0.43 0.43
0.53 0.74 0.78 0.52 0.39 0.14 0.12 0.15 0.17 0.35 0.38 0.17 0.12 0.10 0.10 0.13 0.16 0.14 0.13 0.13 0.10 0.09 0.08 0.08 0.08 0.09 0.11 0.12 0.12 0.11 0.11 0.10 0.15 0.23 0.22 0.26 0.27 0.26 0.29 0.33 0.34 0.39 0.42 0.40
0.49 0.64 0.57 0.45 0.41 0.18 0.14 0.21 0.35 0.38 0.19 0.12 0.10 0.08 0.08 0.08 0.07 0.07 0.10 0.12 0.12 0.10 0.09 0.09 0.08 0.10 0.10 0.11 0.12 0.11 0.10 0.10 0.15 0.21 0.22 0.24 0.25 0.26 0.29 0.31 0.29 0.32 0.40 0.41
0.28 0.40 0.46 0.40 0.23 0.12 0.13 0.21 0.23 0.18 0.14 0.10 0.08 0.07 0.07 0.06 0.06 0.07 0.09 0.11 0.12 0.11 0.11 0.12 0.11 0.10 0.10 0.09 0.11 0.12 0.11 0.12 0.17 0.20 0.20 0.22 0.24 0.27 0.30 0.30 0.28 0.31 0.37 0.40
0.19 0.20 0.26 0.23 0.11 0.08 0.09 0.11 0.11 0.09 0.08 0.08 0.08 0.08 0.07 0.07 0.06 0.07 0.08 0.10 0.11 0.12 0.12 0.13 0.12 0.10 0.10 0.10 0.10 0.12 0.12 0.13 0.19 0.19 0.17 0.19 0.24 0.30 0.35 0.32 0.28 0.28 0.34 0.42
0.15 0.18 0.20 0.15 0.07 0.09 0.09 0.08 0.07 0.06 0.06 0.07 0.07 0.06 0.06 0.07 0.07 0.07 0.07 0.09 0.11 0.12 0.12 0.11 0.11 0.10 0.10 0.10 0.12 0.14 0.14 0.16 0.20 0.18 0.16 0.19 0.23 0.32 0.38 0.35 0.30 0.28 0.28 0.42
0.05 0.09 0.14 0.12 0.07 0.10 0.09 0.07 0.06 0.06 0.06 0.07 0.07 0.06 0.05 0.05 0.06 0.07 0.07 0.08 0.11 0.14 0.13 0.11 0.10 0.10 0.11 0.12 0.15 0.19 0.17 0.17 0.20 0.19 0.18 0.21 0.24 0.30 0.36 0.36 0.36 0.41 0.37 0.40

GEFSCGP_prec_meanprecacc_168.txt.gz
Total_Precipitation_Accumulation
0.49 0.62 0.53 0.34 0.32 0.30 0.26 0.31 0.28 0.18 0.17 0.23 0.23 0.16 0.11 0.09 0.10 0.11 0.10 0.09 0.09 0.10 0.09 0.10 0.15 0.20 0.27 0.36 0.41 0.47 0.52 0.58 0.68 0.77 0.89 0.85 0.80 0.83 0.83 0.81 0.79 0.73 0.73 0.69
0.61 0.56 0.30 0.21 0.24 0.31 0.34 0.38 0.30 0.22 0.17 0.27 0.26 0.17 0.10 0.09 0.09 0.09 0.07 0.07 0.08 0.08 0.08 0.10 0.15 0.20 0.25 0.33 0.38 0.44 0.52 0.57 0.65 0.70 0.73 0.81 0.78 0.80 0.85 0.82 0.82 0.76 0.69 0.68
0.45 0.31 0.17 0.26 0.34 0.43 0.40 0.34 0.25 0.24 0.23 0.29 0.34 0.26 0.11 0.08 0.07 0.07 0.07 0.06 0.08 0.10 0.08 0.08 0.14 0.20 0.24 0.31 0.37 0.40 0.48 0.56 0.63 0.76 0.83 0.89 1.01 0.99 0.99 0.97 0.89 0.80 0.73 0.65
0.35 0.21 0.21 0.32 0.36 0.44 0.44 0.23 0.22 0.26 0.41 0.47 0.41 0.45 0.14 0.10 0.09 0.08 0.08 0.08 0.09 0.09 0.08 0.08 0.12 0.20 0.22 0.28 0.38 0.44 0.47 0.56 0.61 0.80 0.94 0.88 0.95 0.94 0.87 0.85 0.87 0.84 0.76 0.69
0.45 0.24 0.27 0.34 0.26 0.30 0.34 0.21 0.25 0.33 0.46 0.55 0.41 0.46 0.21 0.09 0.09 0.07 0.07 0.07 0.08 0.09 0.09 0.08 0.09 0.13 0.20 0.26 0.35 0.45 0.52 0.60 0.65 0.74 0.93 0.93 0.84 0.81 0.80 0.85 0.87 0.88 0.84 0.77
0.42 0.27 0.31 0.28 0.19 0.22 0.32 0.38 0.44 0.49 0.74 0.93 0.37 0.36 0.25 0.17 0.17 0.11 0.07 0.06 0.07 0.08 0.09 0.08 0.07 0.10 0.19 0.27 0.34 0.44 0.54 0.61 0.66 0.67 0.79 0.94 0.87 0.81 0.80 0.85 0.90 0.90 0.89 0.83
0.51 0.36 0.30 0.26 0.31 0.36 0.52 0.81 1.16 1.18 1.22 0.77 0.17 0.24 0.26 0.17 0.14 0.15 0.10 0.06 0.06 0.06 0.08 0.09 0.09 0.10 0.16 0.25 0.32 0.40 0.52 0.59 0.65 0.65 0.69 0.79 0.89 0.86 0.79 0.74 0.78 0.85 0.87 0.81
0.56 0.40 0.33 0.32 0.34 0.46 0.55 0.74 0.97 0.89 0.58 0.23 0.10 0.21 0.21 0.13 0.09 0.10 0.07 0.04 0.04 0.04 0.05 0.08 0.10 0.11 0.15 0.19 0.26 0.35 0.44 0.56 0.66 0.69 0.68 0.72 0.81 0.93 0.85 0.76 0.71 0.74 0.77 0.71
0.60 0.37 0.22 0.23 0.23 0.34 0.52 0.55 0.48 0.61 0.45 0.29 0.19 0.16 0.13 0.06 0.05 0.06 0.05 0.04 0.04 0.04 0.05 0.06 0.08 0.11 0.14 0.19 0.22 0.31 0.37 0.48 0.61 0.72 0.74 0.72 0.75 0.85 0.87 0.78 0.72 0.69 0.69 0.68
0.63 0.48 0.21 0.19 0.31 0.40 0.44 0.51 0.63 0.91 0.76 0.40 0.21 0.17 0.19 0.12 0.09 0.08 0.07 0.06 0.05 0.04 0.05 0.07 0.08 0.11 0.14 0.18 0.20 0.26 0.33 0.40 0.50 0.65 0.79 0.78 0.74 0.75 0.82 0.82 0.77 0.69 0.66 0.66
0.64 0.63 0.36 0.31 0.47 0.55 0.54 0.68 0.87 0.89 0.62 0.44 0.26 0.23 0.24 0.17 0.14 0.13 0.10 0.09 0.07 0.06 0.06 0.07 0.09 0.12 0.14 0.18 0.22 0.28 0.33 0.38 0.43 0.52 0.68 0.78 0.76 0.78 0.82 0.86 0.82 0.74 0.65 0.60
0.58 0.73 0.48 0.29 0.30 0.33 0.47 0.61 0.76 0.90 0.62 0.32 0.27 0.22 0.18 0.14 0.13 0.13 0.11 0.09 0.07 0.05 0.05 0.06 0.07 0.12 0.15 0.18 0.22 0.28 0.35 0.37 0.38 0.43 0.56 0.67 0.73 0.76 0.82 0.81 0.85 0.86 0.78 0.62
0.81 1.08 0.88 0.55 0.48 0.47 0.57 0.52 0.55 0.64 0.57 0.34 0.24 0.15 0.10 0.09 0.08 0.09 0.10 0.09 0.07 0.05 0.04 0.05 0.06 0.10 0.13 0.16 0.20 0.27 0.35 0.35 0.35 0.41 0.50 0.60 0.69 0.72 0.74 0.72 0.76 0.88 0.93 0.83
1.00 1.10 0.81 0.65 0.53 0.50 0.50 0.42 0.39 0.59 0.67 0.34 0.13 0.09 0.07 0.08 0.09 0.08 0.10 0.11 0.09 0.07 0.06 0.06 0.07 0.08 0.10 0.12 0.15 0.21 0.31 0.36 0.38 0.40 0.47 0.53 0.62 0.65 0.65 0.66 0.65 0.73 0.85 0.89
0.78 0.79 0.38 0.20 0.17 0.24 0.26 0.24 0.27 0.36 0.34 0.25 0.11 0.09 0.10 0.11 0.13 0.13 0.13 0.12 0.11 0.08 0.07 0.07 0.07 0.08 0.10 0.13 0.15 0.18 0.25 0.34 0.40 0.40 0.45 0.44 0.51 0.61 0.62 0.60 0.62 0.66 0.72 0.77
0.73 0.69 0.34 0.18 0.12 0.17 0.20 0.17 0.17 0.19 0.14 0.11 0.09 0.10 0.11 0.13 0.13 0.13 0.12 0.12 0.12 0.09 0.07 0.07 0.07 0.08 0.11 0.17 0.18 0.19 0.23 0.30 0.38 0.39 0.43 0.43 0.48 0.57 0.61 0.57 0.60 0.66 0.68 0.72
0.72 0.71 0.58 0.32 0.15 0.28 0.31 0.18 0.15 0.15 0.13 0.12 0.13 0.13 0.12 0.13 0.14 0.15 0.14 0.12 0.11 0.09 0.08 0.06 0.07 0.08 0.11 0.18 0.18 0.20 0.23 0.29 0.37 0.39 0.40 0.46 0.48 0.52 0.59 0.60 0.61 0.65 0.68 0.69
0.51 0.65 0.78 0.49 0.39 0.59 0.29 0.13 0.12 0.14 0.15 0.13 0.12 0.10 0.11 0.14 0.16 0.17 0.16 0.14 0.10 0.09 0.08 0.06 0.06 0.08 0.11 0.16 0.15 0.18 0.22 0.31 0.39 0.42 0.39 0.43 0.47 0.48 0.57 0.62 0.61 0.65 0.67 0.64
0.21 0.53 0.83 0.66 0.52 0.28 0.15 0.15 0.18 0.24 0.23 0.15 0.11 0.07 0.06 0.09 0.14 0.18 0.14 0.12 0.10 0.10 0.10 0.08 0.07 0.08 0.11 0.15 0.14 0.14 0.19 0.28 0.38 0.43 0.39 0.39 0.44 0.45 0.51 0.57 0.61 0.62 0.66 0.63
0.23 0.48 0.85 0.69 0.52 0.24 0.17 0.13 0.15 0.23 0.31 0.17 0.11 0.08 0.07 0.10 0.19 0.19 0.14 0.11 0.10 0.09 0.08 0.09 0.09 0.09 0.12 0.14 0.15 0.14 0.17 0.23 0.33 0.40 0.34 0.36 0.39 0.38 0.43 0.47 0.53 0.58 0.60 0.60
0.55 0.80 0.86 0.57 0.44 0.15 0.12 0.15 0.17 0.35 0.38 0.17 0.12 0.10 0.10 0.13 0.16 0.15 0.14 0.13 0.11 0.09 0.09 0.08 0.09 0.10 0.12 0.15 0.16 0.16 0.17 0.17 0.26 0.36 0.32 0.35 0.37 0.36 0.39 0.42 0.44 0.52 0.57 0.56
0.49 0.65 0.59 0.47 0.46 0.19 0.14 0.21 0.35 0.38 0.19 0.13 0.10 0.08 0.08 0.08 0.07 0.08 0.10 0.12 0.12 0.10 0.09 0.10 0.09 0.10 0.11 0.14 0.17 0.17 0.16 0.17 0.25 0.32 0.32 0.34 0.36 0.36 0.38 0.40 0.38 0.42 0.52 0.54
0.29 0.40 0.46 0.40 0.23 0.12 0.13 0.21 0.23 0.18 0.14 0.10 0.09 0.08 0.07 0.06 0.06 0.08 0.10 0.11 0.12 0.12 0.11 0.12 0.11 0.11 0.11 0.12 0.16 0.18 0.19 0.21 0.27 0.29 0.29 0.32 0.34 0.36 0.38 0.38 0.36 0.39 0.47 0.52
0.19 0.20 0.27 0.23 0.11 0.08 0.09 0.11 0.12 0.10 0.09 0.09 0.08 0.08 0.07 0.07 0.06 0.08 0.09 0.10 0.11 0.12 0.12 0.13 0.12 0.11 0.12 0.12 0.13 0.18 0.21 0.22 0.27 0.27 0.25 0.27 0.32 0.37 0.42 0.38 0.34 0.35 0.40 0.51
0.15 0.19 0.21 0.15 0.07 0.09 0.09 0.08 0.07 0.06 0.06 0.07 0.07 0.06 0.06 0.07 0.07 0.07 0.08 0.09 0.11 0.13 0.12 0.12 0.13 0.11 0.12 0.13 0.15 0.20 0.22 0.24 0.28 0.26 0.24 0.26 0.29 0.38 0.45 0.42 0.36 0.34 0.33 0.47
0.05 0.09 0.14 0.12 0.07 0.10 0.10 0.07 0.06 0.06 0.06 0.07 0.07 0.06 0.05 0.05 0.06 0.08 0.08 0.08 0.12 0.15 0.14 0.12 0.12 0.12 0.13 0.15 0.18 0.23 0.25 0.24 0.26 0.26 0.25 0.26 0.29 0.35 0.41 0.43 0.43 0.47 0.43 0.45

GEFSCGP_prec_meanprecacc_174.txt.gz
Total_Precipitation_Accumulation
0.49 0.62 0.53 0.34 0.32 0.30 0.27 0.32 0.28 0.19 0.18 0.24 0.23 0.17 0.11 0.10 0.10 0.12 0.12 0.12 0.11 0.10 0.10 0.11 0.16 0.22 0.30 0.41 0.44 0.52 0.58 0.65 0.76 0.87 0.98 0.94 0.88 0.89 0.90 0.87 0.84 0.79 0.82 0.83
0.61 0.56 0.30 0.21 0.24 0.31 0.34 0.38 0.30 0.22 0.18 0.28 0.27 0.17 0.11 0.10 0.10 0.11 0.10 0.11 0.12 0.10 0.09 0.10 0.16 0.22 0.28 0.41 0.44 0.49 0.58 0.65 0.74 0.82 0.84 0.89 0.87 0.87 0.90 0.87 0.87 0.81 0.76 0.78
0.45 0.31 0.17 0.26 0.34 0.43 0.41 0.34 0.26 0.25 0.23 0.30 0.35 0.27 0.12 0.09 0.09 0.10 0.09 0.09 0.13 0.14 0.11 0.11 0.17 0.23 0.27 0.39 0.46 0.49 0.57 0.64 0.72 0.87 0.94 0.99 1.11 1.08 1.05 1.03 0.94 0.85 0.78 0.73
0.35 0.21 0.21 0.32 0.36 0.44 0.44 0.23 0.22 0.26 0.41 0.48 0.41 0.46 0.15 0.11 0.11 0.10 0.09 0.09 0.11 0.12 0.11 0.12 0.15 0.22 0.25 0.32 0.45 0.53 0.60 0.66 0.69 0.88 1.03 0.97 1.05 1.04 0.95 0.91 0.92 0.89 0.81 0.75
0.45 0.24 0.27 0.34 0.26 0.30 0.34 0.21 0.25 0.33 0.47 0.56 0.42 0.48 0.22 0.11 0.10 0.08 0.08 0.08 0.09 0.11 0.11 0.10 0.11 0.15 0.22 0.28 0.41 0.53 0.64 0.71 0.73 0.80 1.01 1.03 0.95 0.92 0.89 0.93 0.94 0.93 0.90 0.83
0.42 0.27 0.31 0.28 0.19 0.22 0.32 0.39 0.44 0.49 0.75 0.94 0.37 0.37 0.27 0.19 0.19 0.12 0.07 0.07 0.09 0.09 0.11 0.10 0.09 0.11 0.20 0.28 0.38 0.49 0.60 0.72 0.78 0.78 0.89 1.04 0.97 0.91 0.89 0.94 0.99 0.98 0.96 0.91
0.51 0.36 0.30 0.26 0.31 0.36 0.53 0.81 1.17 1.18 1.22 0.77 0.17 0.25 0.27 0.18 0.15 0.15 0.10 0.07 0.07 0.08 0.10 0.12 0.11 0.11 0.17 0.26 0.34 0.44 0.56 0.64 0.71 0.75 0.79 0.87 0.97 0.94 0.86 0.81 0.86 0.95 0.98 0.91
0.56 0.40 0.33 0.32 0.34 0.46 0.55 0.75 0.98 0.89 0.58 0.23 0.10 0.21 0.21 0.14 0.09 0.10 0.07 0.05 0.05 0.05 0.07 0.10 0.11 0.12 0.16 0.21 0.27 0.38 0.47 0.59 0.71 0.76 0.76 0.80 0.87 0.99 0.91 0.83 0.78 0.82 0.87 0.83
0.60 0.37 0.22 0.23 0.23 0.34 0.52 0.56 0.49 0.63 0.46 0.30 0.20 0.17 0.14 0.06 0.05 0.06 0.05 0.04 0.04 0.05 0.07 0.08 0.10 0.12 0.14 0.20 0.24 0.34 0.41 0.52 0.66 0.78 0.80 0.79 0.81 0.90 0.93 0.85 0.79 0.78 0.78 0.78
0.63 0.48 0.21 0.19 0.31 0.40 0.44 0.52 0.64 0.92 0.78 0.41 0.21 0.18 0.20 0.12 0.09 0.08 0.07 0.06 0.05 0.05 0.06 0.08 0.09 0.12 0.15 0.18 0.22 0.29 0.37 0.45 0.55 0.69 0.84 0.84 0.79 0.79 0.86 0.87 0.84 0.78 0.75 0.76
0.64 0.63 0.36 0.31 0.47 0.55 0.54 0.69 0.87 0.90 0.63 0.45 0.28 0.24 0.24 0.17 0.14 0.13 0.10 0.09 0.07 0.06 0.07 0.08 0.10 0.13 0.15 0.19 0.24 0.30 0.37 0.42 0.47 0.56 0.73 0.83 0.82 0.83 0.87 0.90 0.88 0.83 0.76 0.73
0.58 0.73 0.48 0.29 0.30 0.34 0.47 0.61 0.76 0.91 0.63 0.33 0.29 0.24 0.19 0.14 0.13 0.13 0.11 0.09 0.07 0.05 0.05 0.06 0.07 0.13 0.17 0.20 0.25 0.31 0.38 0.41 0.42 0.49 0.60 0.71 0.79 0.82 0.87 0.87 0.92 0.95 0.89 0.75
0.81 1.08 0.88 0.55 0.48 0.47 0.57 0.52 0.56 0.65 0.58 0.35 0.25 0.17 0.11 0.09 0.08 0.09 0.10 0.09 0.08 0.06 0.05 0.05 0.07 0.12 0.16 0.19 0.23 0.30 0.38 0.38 0.38 0.47 0.56 0.65 0.75 0.77 0.79 0.78 0.83 0.99 1.06 0.95
1.01 1.11 0.81 0.65 0.53 0.50 0.50 0.42 0.39 0.60 0.69 0.35 0.15 0.11 0.08 0.09 0.09 0.09 0.10 0.11 0.09 0.07 0.06 0.07 0.08 0.10 0.13 0.16 0.19 0.25 0.34 0.39 0.41 0.43 0.52 0.59 0.67 0.70 0.70 0.71 0.73 0.85 0.98 1.02
0.81 0.81 0.39 0.20 0.17 0.24 0.27 0.25 0.28 0.36 0.35 0.27 0.13 0.11 0.11 0.12 0.13 0.14 0.13 0.12 0.11 0.08 0.07 0.08 0.09 0.11 0.14 0.16 0.18 0.22 0.28 0.36 0.42 0.43 0.49 0.49 0.57 0.67 0.67 0.66 0.69 0.77 0.86 0.91
0.77 0.74 0.36 0.19 0.12 0.17 0.21 0.17 0.17 0.19 0.14 0.12 0.10 0.12 0.13 0.14 0.14 0.14 0.13 0.12 0.12 0.09 0.08 0.08 0.09 0.11 0.15 0.19 0.22 0.24 0.27 0.32 0.40 0.42 0.46 0.47 0.54 0.64 0.67 0.63 0.66 0.75 0.81 0.84
0.77 0.76 0.63 0.34 0.15 0.29 0.31 0.18 0.15 0.15 0.14 0.12 0.14 0.15 0.14 0.14 0.15 0.15 0.14 0.13 0.11 0.10 0.08 0.07 0.09 0.11 0.15 0.21 0.22 0.25 0.28 0.32 0.39 0.42 0.43 0.48 0.52 0.56 0.65 0.65 0.67 0.74 0.79 0.80
0.56 0.71 0.85 0.54 0.41 0.61 0.29 0.13 0.12 0.15 0.15 0.13 0.12 0.10 0.11 0.14 0.16 0.18 0.16 0.14 0.11 0.10 0.10 0.08 0.08 0.11 0.14 0.19 0.18 0.21 0.26 0.34 0.41 0.44 0.41 0.46 0.51 0.52 0.63 0.68 0.68 0.76 0.81 0.77
0.23 0.58 0.92 0.74 0.55 0.28 0.15 0.15 0.18 0.24 0.23 0.16 0.11 0.07 0.06 0.09 0.14 0.18 0.14 0.12 0.11 0.11 0.12 0.10 0.09 0.11 0.13 0.17 0.16 0.16 0.22 0.30 0.41 0.47 0.41 0.43 0.49 0.51 0.59 0.66 0.72 0.75 0.81 0.76
0.25 0.52 0.95 0.78 0.57 0.25 0.17 0.13 0.15 0.23 0.31 0.17 0.11 0.08 0.07 0.10 0.19 0.19 0.14 0.12 0.11 0.10 0.10 0.10 0.10 0.11 0.13 0.16 0.16 0.15 0.19 0.25 0.37 0.45 0.38 0.40 0.45 0.46 0.52 0.59 0.67 0.72 0.73 0.72
0.58 0.85 0.94 0.64 0.48 0.16 0.12 0.15 0.17 0.35 0.38 0.17 0.12 0.10 0.10 0.13 0.16 0.15 0.14 0.14 0.12 0.11 0.10 0.09 0.10 0.12 0.14 0.17 0.18 0.18 0.20 0.21 0.31 0.44 0.40 0.41 0.43 0.45 0.50 0.55 0.56 0.64 0.69 0.68
0.50 0.67 0.61 0.50 0.51 0.21 0.14 0.21 0.35 0.38 0.19 0.13 0.10 0.08 0.08 0.08 0.07 0.08 0.11 0.13 0.14 0.12 0.11 0.10 0.10 0.12 0.13 0.16 0.19 0.20 0.21 0.22 0.30 0.39 0.41 0.44 0.46 0.47 0.49 0.50 0.48 0.53 0.62 0.65
0.29 0.41 0.47 0.41 0.24 0.12 0.13 0.21 0.23 0.18 0.14 0.10 0.09 0.08 0.07 0.06 0.06 0.08 0.10 0.12 0.14 0.13 0.12 0.13 0.12 0.12 0.13 0.14 0.18 0.22 0.24 0.26 0.33 0.37 0.38 0.41 0.45 0.47 0.48 0.48 0.47 0.51 0.57 0.62
0.19 0.20 0.27 0.23 0.11 0.08 0.09 0.11 0.12 0.10 0.09 0.09 0.08 0.08 0.08 0.07 0.06 0.08 0.09 0.11 0.12 0.13 0.13 0.14 0.14 0.12 0.13 0.14 0.16 0.22 0.27 0.27 0.32 0.35 0.33 0.36 0.41 0.46 0.50 0.48 0.45 0.45 0.50 0.60
0.16 0.19 0.21 0.16 0.08 0.09 0.09 0.08 0.07 0.06 0.06 0.07 0.07 0.06 0.06 0.07 0.07 0.08 0.09 0.10 0.12 0.14 0.13 0.13 0.15 0.13 0.14 0.15 0.18 0.24 0.28 0.28 0.32 0.31 0.31 0.34 0.36 0.46 0.53 0.52 0.47 0.45 0.43 0.55
0.06 0.09 0.14 0.12 0.07 0.10 0.10 0.07 0.06 0.06 0.06 0.07 0.07 0.06 0.05 0.05 0.07 0.08 0.09 0.09 0.13 0.16 0.15 0.14 0.14 0.14 0.15 0.17 0.21 0.27 0.30 0.29 0.29 0.30 0.30 0.32 0.36 0.43 0.50 0.52 0.53 0.58 0.53 0.54

GEFSCGP_prec_meanprecacc_180.txt.gz
Total_Precipitation_Accumulation
0.49 0.62 0.54 0.34 0.32 0.30 0.27 0.32 0.28 0.19 0.18 0.24 0.24 0.18 0.11 0.10 0.10 0.12 0.12 0.12 0.11 0.10 0.10 0.11 0.17 0.22 0.32 0.43 0.48 0.56 0.61 0.71 0.83 0.91 1.03 0.98 0.93 0.94 0.97 0.96 0.94 0.92 0.97 0.94
0.61 0.56 0.30 0.21 0.24 0.31 0.34 0.38 0.30 0.22 0.18 0.28 0.28 0.19 0.11 0.10 0.10 0.11 0.10 0.12 0.14 0.11 0.10 0.11 0.18 0.23 0.29 0.43 0.48 0.55 0.65 0.73 0.79 0.86 0.90 0.94 0.92 0.93 0.96 0.95 0.95 0.92 0.90 0.90
0.45 0.31 0.17 0.26 0.34 0.43 0.41 0.34 0.26 0.25 0.23 0.30 0.36 0.29 0.13 0.11 0.09 0.10 0.09 0.10 0.15 0.16 0.13 0.13 0.21 0.27 0.30 0.41 0.49 0.55 0.65 0.73 0.78 0.92 1.00 1.05 1.16 1.13 1.11 1.09 1.01 0.94 0.89 0.83
0.35 0.21 0.21 0.32 0.36 0.44 0.44 0.23 0.22 0.26 0.41 0.48 0.42 0.47 0.18 0.13 0.12 0.11 0.10 0.09 0.12 0.14 0.14 0.15 0.19 0.27 0.30 0.37 0.49 0.58 0.68 0.73 0.76 0.95 1.10 1.05 1.11 1.08 1.00 0.96 0.97 0.95 0.90 0.84
0.45 0.24 0.27 0.34 0.26 0.30 0.34 0.21 0.25 0.33 0.47 0.56 0.42 0.49 0.24 0.12 0.12 0.10 0.09 0.08 0.10 0.12 0.13 0.13 0.14 0.18 0.25 0.32 0.45 0.58 0.71 0.80 0.81 0.88 1.07 1.09 1.00 0.95 0.94 0.99 0.98 0.98 0.96 0.90
0.42 0.27 0.31 0.28 0.19 0.22 0.32 0.39 0.44 0.49 0.75 0.94 0.37 0.37 0.28 0.20 0.21 0.13 0.08 0.07 0.09 0.10 0.12 0.12 0.11 0.12 0.23 0.32 0.42 0.53 0.66 0.78 0.84 0.84 0.94 1.09 1.02 0.94 0.92 0.99 1.05 1.03 1.01 0.97
0.51 0.36 0.30 0.26 0.31 0.36 0.53 0.82 1.17 1.19 1.22 0.77 0.17 0.25 0.28 0.19 0.17 0.17 0.12 0.09 0.09 0.10 0.13 0.14 0.12 0.13 0.20 0.30 0.38 0.47 0.59 0.67 0.75 0.79 0.84 0.91 1.01 0.97 0.89 0.86 0.92 1.00 1.03 0.96
0.56 0.40 0.33 0.32 0.34 0.46 0.55 0.75 0.98 0.89 0.58 0.23 0.10 0.21 0.22 0.14 0.10 0.10 0.08 0.06 0.07 0.08 0.09 0.11 0.13 0.15 0.18 0.23 0.29 0.39 0.48 0.61 0.73 0.79 0.79 0.83 0.92 1.03 0.94 0.87 0.84 0.88 0.92 0.87
0.60 0.37 0.22 0.23 0.23 0.34 0.52 0.56 0.49 0.63 0.46 0.30 0.20 0.17 0.14 0.06 0.05 0.07 0.07 0.06 0.05 0.05 0.07 0.09 0.12 0.14 0.16 0.21 0.25 0.34 0.42 0.53 0.67 0.79 0.82 0.81 0.84 0.93 0.96 0.88 0.84 0.84 0.84 0.83
0.63 0.48 0.21 0.19 0.31 0.40 0.44 0.52 0.65 0.93 0.78 0.41 0.22 0.19 0.20 0.12 0.10 0.08 0.08 0.07 0.05 0.05 0.06 0.08 0.10 0.13 0.15 0.19 0.22 0.29 0.38 0.45 0.56 0.71 0.86 0.86 0.82 0.81 0.88 0.90 0.88 0.83 0.82 0.82
0.64 0.63 0.36 0.31 0.47 0.55 0.54 0.69 0.88 0.91 0.64 0.46 0.28 0.24 0.24 0.17 0.14 0.13 0.10 0.09 0.07 0.06 0.07 0.08 0.10 0.13 0.16 0.19 0.24 0.31 0.37 0.43 0.48 0.57 0.74 0.85 0.84 0.85 0.89 0.93 0.91 0.87 0.83 0.81
0.58 0.73 0.48 0.29 0.30 0.34 0.47 0.61 0.77 0.92 0.64 0.34 0.29 0.24 0.19 0.14 0.13 0.13 0.11 0.09 0.07 0.05 0.05 0.06 0.08 0.13 0.17 0.21 0.25 0.31 0.39 0.42 0.44 0.50 0.61 0.73 0.82 0.85 0.90 0.90 0.95 0.99 0.95 0.84
0.81 1.08 0.88 0.56 0.48 0.47 0.57 0.52 0.56 0.65 0.59 0.36 0.25 0.17 0.11 0.09 0.08 0.09 0.10 0.09 0.08 0.06 0.05 0.05 0.08 0.12 0.16 0.19 0.23 0.31 0.39 0.40 0.40 0.49 0.59 0.69 0.79 0.81 0.83 0.81 0.87 1.03 1.12 1.04
1.02 1.12 0.81 0.65 0.53 0.50 0.51 0.42 0.40 0.60 0.70 0.36 0.16 0.11 0.08 0.09 0.09 0.09 0.10 0.11 0.09 0.07 0.06 0.07 0.09 0.11 0.14 0.16 0.20 0.26 0.36 0.41 0.42 0.46 0.56 0.64 0.73 0.74 0.74 0.75 0.76 0.89 1.05 1.12
0.84 0.84 0.39 0.20 0.17 0.24 0.27 0.25 0.28 0.37 0.35 0.27 0.13 0.12 0.12 0.12 0.13 0.14 0.13 0.12 0.11 0.08 0.08 0.08 0.10 0.12 0.15 0.17 0.20 0.24 0.31 0.39 0.44 0.46 0.53 0.56 0.63 0.72 0.72 0.70 0.73 0.82 0.94 1.00
0.80 0.77 0.37 0.19 0.13 0.17 0.21 0.17 0.18 0.19 0.15 0.12 0.10 0.12 0.14 0.14 0.14 0.14 0.13 0.12 0.12 0.10 0.08 0.09 0.10 0.13 0.18 0.22 0.25 0.28 0.31 0.36 0.44 0.45 0.50 0.53 0.60 0.69 0.72 0.67 0.70 0.80 0.91 0.95
0.82 0.81 0.68 0.36 0.16 0.30 0.33 0.18 0.15 0.16 0.14 0.12 0.14 0.15 0.14 0.15 0.15 0.16 0.15 0.13 0.12 0.10 0.10 0.09 0.11 0.15 0.19 0.25 0.25 0.30 0.33 0.37 0.43 0.45 0.46 0.52 0.59 0.62 0.70 0.69 0.71 0.80 0.89 0.91
0.60 0.76 0.93 0.60 0.44 0.63 0.30 0.13 0.12 0.15 0.15 0.14 0.13 0.11 0.12 0.15 0.16 0.19 0.17 0.15 0.13 0.12 0.12 0.11 0.12 0.16 0.18 0.23 0.22 0.26 0.31 0.39 0.46 0.47 0.43 0.49 0.57 0.58 0.69 0.73 0.73 0.82 0.89 0.86
0.26 0.62 1.02 0.83 0.61 0.30 0.15 0.15 0.18 0.24 0.24 0.16 0.11 0.08 0.07 0.10 0.14 0.19 0.15 0.14 0.14 0.14 0.16 0.15 0.14 0.16 0.17 0.20 0.20 0.22 0.26 0.36 0.46 0.49 0.43 0.45 0.54 0.58 0.66 0.72 0.78 0.84 0.90 0.85
0.28 0.57 1.05 0.89 0.64 0.27 0.17 0.13 0.15 0.23 0.31 0.17 0.11 0.09 0.08 0.11 0.20 0.20 0.15 0.13 0.13 0.13 0.14 0.14 0.14 0.15 0.16 0.19 0.20 0.19 0.23 0.29 0.41 0.48 0.41 0.43 0.49 0.51 0.59 0.66 0.75 0.81 0.81 0.79
0.61 0.92 1.04 0.73 0.54 0.18 0.12 0.15 0.17 0.35 0.38 0.18 0.12 0.10 0.10 0.13 0.17 0.16 0.16 0.16 0.15 0.14 0.13 0.12 0.13 0.14 0.17 0.19 0.20 0.21 0.23 0.25 0.34 0.47 0.43 0.44 0.47 0.50 0.57 0.64 0.65 0.72 0.76 0.74
0.51 0.69 0.64 0.53 0.56 0.23 0.14 0.21 0.35 0.38 0.19 0.13 0.10 0.08 0.08 0.08 0.07 0.08 0.12 0.16 0.18 0.15 0.14 0.14 0.13 0.14 0.15 0.17 0.21 0.23 0.26 0.26 0.33 0.42 0.43 0.48 0.52 0.54 0.57 0.61 0.56 0.59 0.69 0.72
0.30 0.42 0.48 0.43 0.26 0.13 0.14 0.21 0.23 0.18 0.15 0.10 0.09 0.08 0.07 0.06 0.06 0.08 0.11 0.15 0.17 0.16 0.15 0.15 0.15 0.14 0.14 0.16 0.20 0.26 0.30 0.30 0.36 0.40 0.41 0.47 0.53 0.56 0.57 0.55 0.53 0.56 0.63 0.70
0.24 0.24 0.31 0.27 0.13 0.09 0.10 0.12 0.12 0.10 0.09 0.09 0.08 0.08 0.08 0.07 0.06 0.08 0.11 0.14 0.15 0.16 0.16 0.17 0.18 0.15 0.16 0.16 0.19 0.26 0.32 0.31 0.36 0.38 0.39 0.44 0.49 0.55 0.58 0.54 0.51 0.51 0.57 0.67
0.17 0.21 0.24 0.19 0.09 0.10 0.09 0.08 0.07 0.06 0.06 0.07 0.07 0.06 0.06 0.07 0.07 0.08 0.10 0.13 0.15 0.17 0.17 0.18 0.19 0.18 0.18 0.19 0.22 0.28 0.32 0.32 0.36 0.36 0.36 0.40 0.42 0.52 0.61 0.60 0.54 0.51 0.50 0.63
0.06 0.09 0.15 0.13 0.08 0.10 0.10 0.07 0.06 0.06 0.06 0.07 0.07 0.06 0.05 0.06 0.07 0.09 0.09 0.11 0.16 0.20 0.19 0.18 0.19 0.19 0.20 0.22 0.25 0.30 0.33 0.33 0.33 0.34 0.34 0.37 0.40 0.48 0.56 0.59 0.61 0.66 0.62 0.63

GEFSCGP_prec_meanprecacc_186.txt.gz
Total_Precipitation_Accumulation
0.49 0.63 0.54 0.34 0.32 0.30 0.27 0.32 0.28 0.19 0.18 0.24 0.24 0.18 0.12 0.11 0.11 0.12 0.12 0.12 0.12 0.11 0.10 0.11 0.17 0.23 0.32 0.43 0.48 0.56 0.62 0.72 0.85 0.95 1.09 1.05 0.98 0.98 1.00 0.98 0.97 0.95 1.02 1.04
0.61 0.56 0.30 0.21 0.24 0.31 0.34 0.38 0.30 0.22 0.18 0.28 0.28 0.19 0.11 0.11 0.11 0.11 0.10 0.12 0.14 0.11 0.10 0.12 0.18 0.23 0.29 0.43 0.49 0.55 0.65 0.75 0.82 0.89 0.97 1.03 1.00 0.99 1.02 1.01 0.99 0.97 0.96 1.00
0.45 0.31 0.17 0.26 0.34 0.43 0.41 0.34 0.26 0.25 0.23 0.30 0.36 0.29 0.14 0.12 0.10 0.10 0.10 0.10 0.15 0.16 0.13 0.14 0.21 0.27 0.31 0.41 0.49 0.55 0.66 0.74 0.81 0.96 1.05 1.12 1.22 1.19 1.17 1.16 1.06 0.98 0.95 0.93
0.35 0.21 0.21 0.32 0.36 0.44 0.44 0.23 0.22 0.26 0.41 0.48 0.42 0.48 0.18 0.14 0.13 0.12 0.10 0.09 0.12 0.14 0.14 0.15 0.20 0.29 0.33 0.39 0.50 0.58 0.69 0.75 0.79 0.98 1.13 1.08 1.16 1.13 1.04 0.99 1.01 0.98 0.94 0.91
0.45 0.24 0.27 0.34 0.26 0.30 0.34 0.21 0.25 0.33 0.47 0.56 0.42 0.49 0.25 0.14 0.14 0.11 0.09 0.08 0.10 0.12 0.13 0.13 0.14 0.20 0.29 0.36 0.47 0.58 0.72 0.81 0.83 0.91 1.09 1.12 1.06 1.01 0.98 1.02 1.01 1.01 1.00 0.96
0.42 0.27 0.31 0.28 0.19 0.22 0.32 0.39 0.44 0.49 0.75 0.94 0.37 0.37 0.29 0.23 0.23 0.15 0.09 0.08 0.09 0.10 0.12 0.12 0.11 0.13 0.25 0.36 0.46 0.55 0.67 0.80 0.86 0.85 0.97 1.11 1.07 1.01 0.97 1.03 1.07 1.05 1.04 1.01
0.51 0.36 0.30 0.26 0.31 0.36 0.53 0.82 1.17 1.19 1.22 0.77 0.17 0.25 0.29 0.22 0.19 0.19 0.14 0.09 0.09 0.10 0.13 0.14 0.12 0.13 0.20 0.32 0.43 0.52 0.62 0.71 0.78 0.81 0.85 0.93 1.05 1.02 0.94 0.89 0.95 1.03 1.06 1.00
0.56 0.40 0.33 0.32 0.34 0.46 0.55 0.75 0.99 0.90 0.58 0.23 0.10 0.21 0.22 0.15 0.12 0.12 0.10 0.08 0.08 0.08 0.09 0.11 0.13 0.15 0.18 0.23 0.30 0.42 0.53 0.64 0.76 0.82 0.81 0.85 0.94 1.06 0.97 0.90 0.87 0.91 0.95 0.91
0.60 0.37 0.22 0.23 0.23 0.34 0.52 0.56 0.49 0.63 0.46 0.30 0.20 0.17 0.14 0.07 0.06 0.08 0.08 0.07 0.07 0.07 0.08 0.10 0.12 0.15 0.17 0.22 0.25 0.36 0.44 0.57 0.72 0.84 0.85 0.84 0.87 0.95 0.98 0.90 0.86 0.87 0.87 0.87
0.63 0.48 0.21 0.19 0.31 0.40 0.44 0.52 0.65 0.93 0.79 0.42 0.22 0.19 0.20 0.12 0.10 0.09 0.09 0.09 0.07 0.07 0.09 0.11 0.12 0.15 0.17 0.20 0.23 0.31 0.39 0.47 0.57 0.73 0.88 0.88 0.82 0.82 0.90 0.92 0.91 0.86 0.85 0.86
0.64 0.63 0.36 0.31 0.47 0.55 0.54 0.69 0.88 0.91 0.65 0.47 0.29 0.24 0.24 0.17 0.14 0.13 0.11 0.10 0.09 0.08 0.09 0.10 0.13 0.15 0.17 0.21 0.26 0.32 0.39 0.44 0.49 0.59 0.75 0.86 0.85 0.85 0.90 0.94 0.93 0.90 0.85 0.85
0.59 0.74 0.49 0.29 0.30 0.34 0.47 0.61 0.77 0.92 0.64 0.34 0.30 0.24 0.19 0.14 0.13 0.13 0.11 0.09 0.08 0.06 0.07 0.07 0.09 0.15 0.18 0.23 0.28 0.33 0.41 0.43 0.45 0.51 0.62 0.74 0.83 0.86 0.91 0.91 0.96 1.00 0.98 0.88
0.82 1.10 0.90 0.56 0.48 0.47 0.57 0.52 0.56 0.65 0.59 0.36 0.26 0.17 0.11 0.09 0.08 0.09 0.10 0.10 0.08 0.06 0.05 0.06 0.08 0.13 0.18 0.21 0.25 0.33 0.41 0.41 0.41 0.50 0.60 0.70 0.80 0.82 0.84 0.82 0.88 1.05 1.15 1.08
1.03 1.14 0.82 0.65 0.53 0.50 0.51 0.42 0.40 0.61 0.71 0.36 0.16 0.12 0.08 0.09 0.09 0.09 0.10 0.12 0.10 0.07 0.07 0.07 0.10 0.12 0.15 0.17 0.21 0.28 0.38 0.42 0.43 0.47 0.57 0.65 0.74 0.76 0.76 0.77 0.78 0.92 1.08 1.16
0.88 0.89 0.40 0.20 0.17 0.25 0.27 0.25 0.28 0.37 0.35 0.28 0.14 0.12 0.13 0.13 0.14 0.14 0.13 0.13 0.11 0.08 0.08 0.08 0.10 0.13 0.16 0.18 0.21 0.25 0.32 0.40 0.45 0.46 0.54 0.56 0.65 0.73 0.73 0.72 0.76 0.85 0.97 1.05
0.86 0.83 0.40 0.20 0.13 0.18 0.22 0.18 0.18 0.20 0.15 0.13 0.10 0.13 0.14 0.15 0.14 0.14 0.13 0.12 0.13 0.10 0.09 0.09 0.11 0.14 0.18 0.23 0.27 0.30 0.33 0.37 0.44 0.45 0.51 0.53 0.61 0.71 0.74 0.69 0.73 0.83 0.94 0.99
0.87 0.87 0.73 0.39 0.16 0.32 0.35 0.18 0.16 0.16 0.14 0.12 0.14 0.16 0.15 0.15 0.15 0.16 0.15 0.13 0.12 0.11 0.11 0.10 0.12 0.16 0.20 0.26 0.27 0.33 0.34 0.38 0.44 0.45 0.47 0.54 0.61 0.64 0.72 0.72 0.74 0.83 0.92 0.94
0.65 0.81 1.00 0.66 0.48 0.68 0.31 0.13 0.12 0.15 0.16 0.14 0.13 0.12 0.13 0.15 0.17 0.19 0.17 0.16 0.14 0.14 0.15 0.13 0.14 0.18 0.19 0.24 0.24 0.29 0.32 0.41 0.47 0.48 0.45 0.51 0.58 0.60 0.71 0.76 0.76 0.86 0.93 0.89
0.29 0.66 1.09 0.91 0.66 0.32 0.15 0.15 0.18 0.24 0.24 0.16 0.12 0.08 0.08 0.11 0.15 0.19 0.16 0.15 0.15 0.16 0.18 0.17 0.17 0.18 0.18 0.22 0.23 0.23 0.28 0.38 0.47 0.50 0.44 0.47 0.55 0.60 0.69 0.75 0.81 0.88 0.94 0.88
0.30 0.61 1.14 0.99 0.70 0.29 0.17 0.13 0.15 0.23 0.32 0.17 0.11 0.09 0.08 0.12 0.20 0.21 0.16 0.15 0.15 0.15 0.17 0.18 0.17 0.17 0.19 0.22 0.24 0.22 0.25 0.32 0.43 0.50 0.42 0.44 0.50 0.53 0.61 0.69 0.79 0.85 0.84 0.82
0.66 1.02 1.16 0.82 0.60 0.19 0.13 0.15 0.17 0.36 0.39 0.18 0.12 0.11 0.10 0.14 0.18 0.17 0.17 0.18 0.18 0.18 0.17 0.16 0.16 0.18 0.20 0.23 0.24 0.24 0.26 0.28 0.37 0.49 0.44 0.46 0.49 0.52 0.59 0.68 0.70 0.76 0.80 0.78
0.55 0.76 0.72 0.60 0.63 0.26 0.15 0.22 0.36 0.39 0.20 0.13 0.11 0.09 0.09 0.09 0.08 0.09 0.13 0.18 0.21 0.19 0.17 0.17 0.16 0.17 0.18 0.21 0.24 0.26 0.29 0.29 0.36 0.44 0.45 0.50 0.54 0.56 0.60 0.65 0.62 0.65 0.75 0.78
0.35 0.48 0.55 0.49 0.32 0.17 0.16 0.22 0.24 0.19 0.15 0.11 0.10 0.08 0.08 0.07 0.07 0.09 0.12 0.17 0.21 0.20 0.18 0.18 0.18 0.16 0.17 0.19 0.23 0.29 0.33 0.33 0.38 0.42 0.44 0.49 0.56 0.59 0.61 0.60 0.59 0.63 0.69 0.76
0.29 0.30 0.37 0.33 0.18 0.12 0.12 0.13 0.13 0.11 0.10 0.10 0.09 0.08 0.08 0.08 0.07 0.09 0.11 0.16 0.19 0.20 0.19 0.20 0.20 0.18 0.18 0.18 0.21 0.28 0.35 0.34 0.38 0.41 0.42 0.47 0.52 0.58 0.62 0.58 0.55 0.56 0.63 0.73
0.20 0.24 0.28 0.23 0.12 0.12 0.12 0.09 0.08 0.07 0.06 0.07 0.07 0.06 0.06 0.07 0.08 0.09 0.10 0.15 0.19 0.21 0.20 0.20 0.21 0.20 0.20 0.20 0.23 0.30 0.34 0.34 0.38 0.38 0.38 0.42 0.44 0.55 0.65 0.64 0.58 0.56 0.55 0.68
0.07 0.11 0.17 0.15 0.10 0.13 0.13 0.09 0.08 0.07 0.07 0.08 0.08 0.07 0.05 0.06 0.07 0.09 0.10 0.12 0.19 0.23 0.22 0.21 0.21 0.21 0.21 0.23 0.27 0.33 0.35 0.35 0.35 0.36 0.37 0.39 0.43 0.51 0.59 0.63 0.64 0.70 0.67 0.68

GEFSCGP_prec_meanprecacc_192.txt.gz
Total_Precipitation_Accumulation
0.49 0.63 0.54 0.34 0.32 0.30 0.27 0.32 0.28 0.19 0.18 0.24 0.24 0.18 0.12 0.11 0.11 0.12 0.12 0.12 0.12 0.11 0.10 0.12 0.18 0.23 0.32 0.44 0.48 0.56 0.62 0.72 0.85 0.95 1.09 1.06 1.01 1.03 1.05 1.01 0.99 0.96 1.03 1.04
0.61 0.56 0.30 0.21 0.24 0.31 0.34 0.38 0.30 0.22 0.18 0.28 0.28 0.19 0.11 0.11 0.11 0.11 0.10 0.12 0.14 0.11 0.10 0.12 0.18 0.23 0.30 0.43 0.49 0.56 0.65 0.75 0.82 0.89 0.97 1.04 1.02 1.04 1.09 1.06 1.03 0.99 0.97 1.02
0.45 0.31 0.17 0.26 0.34 0.43 0.41 0.34 0.26 0.25 0.23 0.30 0.36 0.29 0.14 0.12 0.10 0.10 0.10 0.10 0.15 0.16 0.13 0.14 0.22 0.28 0.32 0.42 0.50 0.55 0.66 0.74 0.81 0.96 1.06 1.13 1.24 1.23 1.25 1.24 1.13 1.03 0.98 0.96
0.35 0.21 0.21 0.32 0.36 0.44 0.44 0.23 0.22 0.26 0.41 0.48 0.42 0.48 0.18 0.14 0.13 0.12 0.10 0.09 0.12 0.14 0.14 0.15 0.20 0.29 0.33 0.39 0.50 0.58 0.69 0.75 0.79 0.98 1.14 1.11 1.18 1.17 1.11 1.07 1.10 1.05 0.99 0.95
0.45 0.24 0.27 0.34 0.26 0.30 0.34 0.21 0.25 0.34 0.47 0.56 0.42 0.49 0.25 0.14 0.14 0.11 0.09 0.08 0.10 0.12 0.13 0.13 0.14 0.20 0.29 0.36 0.47 0.58 0.72 0.81 0.83 0.91 1.11 1.14 1.08 1.04 1.04 1.08 1.08 1.09 1.06 1.01
0.42 0.27 0.31 0.28 0.19 0.22 0.32 0.39 0.44 0.49 0.75 0.94 0.37 0.37 0.29 0.23 0.24 0.15 0.09 0.08 0.10 0.10 0.12 0.12 0.11 0.13 0.25 0.37 0.46 0.55 0.67 0.80 0.86 0.86 0.98 1.14 1.10 1.05 1.03 1.08 1.12 1.10 1.09 1.06
0.51 0.36 0.30 0.26 0.31 0.36 0.53 0.82 1.18 1.19 1.23 0.77 0.17 0.25 0.29 0.22 0.20 0.19 0.14 0.10 0.10 0.10 0.13 0.14 0.12 0.13 0.20 0.32 0.43 0.53 0.63 0.71 0.78 0.81 0.87 0.96 1.09 1.05 0.97 0.93 0.98 1.06 1.10 1.04
0.56 0.40 0.33 0.32 0.34 0.46 0.55 0.75 0.99 0.90 0.58 0.23 0.10 0.21 0.22 0.15 0.12 0.13 0.10 0.09 0.10 0.08 0.09 0.11 0.13 0.15 0.18 0.23 0.30 0.43 0.54 0.67 0.78 0.82 0.83 0.87 0.98 1.09 1.01 0.93 0.91 0.95 0.98 0.93
0.60 0.37 0.22 0.23 0.23 0.34 0.53 0.56 0.49 0.63 0.47 0.30 0.20 0.17 0.14 0.07 0.06 0.08 0.09 0.08 0.09 0.08 0.09 0.10 0.12 0.15 0.17 0.22 0.25 0.36 0.44 0.59 0.77 0.88 0.87 0.87 0.91 1.00 1.02 0.93 0.90 0.90 0.90 0.89
0.64 0.48 0.21 0.19 0.31 0.40 0.44 0.52 0.65 0.95 0.79 0.42 0.22 0.19 0.20 0.12 0.10 0.09 0.10 0.10 0.09 0.09 0.10 0.11 0.12 0.15 0.17 0.20 0.23 0.31 0.39 0.47 0.60 0.78 0.92 0.92 0.88 0.88 0.95 0.97 0.95 0.90 0.88 0.89
0.65 0.64 0.37 0.31 0.47 0.55 0.54 0.69 0.89 0.92 0.65 0.47 0.29 0.24 0.24 0.17 0.14 0.13 0.11 0.11 0.10 0.09 0.10 0.11 0.13 0.15 0.17 0.21 0.26 0.32 0.39 0.44 0.51 0.61 0.77 0.88 0.89 0.91 0.96 0.99 0.96 0.95 0.92 0.90
0.61 0.76 0.50 0.29 0.30 0.34 0.47 0.61 0.77 0.93 0.64 0.34 0.30 0.24 0.19 0.14 0.13 0.13 0.11 0.09 0.08 0.07 0.08 0.09 0.10 0.16 0.19 0.24 0.28 0.34 0.41 0.44 0.47 0.55 0.65 0.76 0.86 0.90 0.95 0.94 0.98 1.04 1.02 0.93
0.84 1.14 0.93 0.58 0.48 0.48 0.58 0.53 0.57 0.66 0.61 0.37 0.27 0.17 0.11 0.09 0.08 0.09 0.10 0.10 0.09 0.07 0.07 0.08 0.11 0.15 0.20 0.24 0.27 0.34 0.42 0.43 0.44 0.54 0.63 0.73 0.83 0.85 0.87 0.84 0.89 1.06 1.17 1.11
1.09 1.20 0.85 0.67 0.54 0.51 0.51 0.43 0.40 0.62 0.73 0.37 0.16 0.12 0.08 0.09 0.09 0.09 0.10 0.12 0.10 0.08 0.07 0.09 0.12 0.15 0.18 0.20 0.25 0.31 0.40 0.45 0.46 0.50 0.60 0.68 0.76 0.77 0.77 0.77 0.79 0.93 1.10 1.19
0.95 0.96 0.44 0.22 0.18 0.26 0.28 0.26 0.28 0.38 0.36 0.28 0.14 0.13 0.13 0.13 0.14 0.14 0.13 0.13 0.12 0.09 0.08 0.09 0.12 0.15 0.19 0.23 0.25 0.29 0.35 0.43 0.49 0.49 0.56 0.59 0.66 0.75 0.74 0.73 0.77 0.86 0.99 1.07
0.92 0.89 0.43 0.22 0.14 0.19 0.23 0.18 0.18 0.20 0.15 0.13 0.11 0.13 0.15 0.15 0.14 0.14 0.13 0.12 0.13 0.11 0.09 0.10 0.12 0.15 0.20 0.25 0.28 0.31 0.35 0.39 0.47 0.48 0.53 0.56 0.63 0.73 0.76 0.70 0.74 0.85 0.96 1.01
0.93 0.92 0.77 0.41 0.17 0.34 0.37 0.18 0.16 0.16 0.14 0.13 0.15 0.16 0.15 0.15 0.15 0.16 0.15 0.14 0.13 0.12 0.12 0.11 0.14 0.18 0.22 0.27 0.28 0.33 0.35 0.38 0.45 0.46 0.48 0.54 0.61 0.65 0.73 0.72 0.74 0.84 0.94 0.97
0.72 0.87 1.05 0.69 0.51 0.72 0.32 0.13 0.12 0.15 0.16 0.14 0.13 0.12 0.13 0.16 0.17 0.19 0.17 0.17 0.15 0.15 0.17 0.15 0.17 0.20 0.21 0.25 0.25 0.29 0.33 0.41 0.47 0.48 0.45 0.51 0.59 0.61 0.72 0.76 0.77 0.87 0.95 0.92
0.33 0.74 1.18 0.97 0.71 0.34 0.15 0.15 0.18 0.24 0.24 0.16 0.12 0.08 0.08 0.11 0.15 0.19 0.16 0.15 0.16 0.17 0.19 0.19 0.19 0.20 0.20 0.24 0.24 0.24 0.28 0.38 0.47 0.51 0.45 0.47 0.56 0.61 0.70 0.76 0.82 0.89 0.96 0.91
0.34 0.67 1.24 1.08 0.76 0.31 0.17 0.13 0.15 0.23 0.32 0.18 0.11 0.09 0.08 0.12 0.21 0.21 0.17 0.15 0.15 0.16 0.18 0.19 0.19 0.19 0.20 0.24 0.24 0.22 0.25 0.32 0.43 0.51 0.43 0.45 0.51 0.54 0.62 0.70 0.80 0.87 0.87 0.85
0.71 1.09 1.26 0.90 0.66 0.22 0.14 0.15 0.17 0.37 0.40 0.18 0.12 0.11 0.11 0.15 0.19 0.19 0.18 0.19 0.19 0.19 0.18 0.17 0.17 0.19 0.22 0.24 0.24 0.25 0.27 0.28 0.37 0.49 0.46 0.47 0.51 0.53 0.60 0.69 0.72 0.78 0.82 0.81
0.58 0.81 0.78 0.65 0.68 0.30 0.16 0.22 0.37 0.41 0.21 0.14 0.11 0.09 0.10 0.10 0.09 0.10 0.14 0.19 0.22 0.20 0.18 0.18 0.17 0.18 0.19 0.21 0.25 0.27 0.30 0.30 0.37 0.46 0.47 0.52 0.56 0.58 0.62 0.66 0.64 0.67 0.77 0.81
0.38 0.52 0.59 0.53 0.37 0.20 0.17 0.23 0.26 0.20 0.16 0.12 0.10 0.09 0.08 0.08 0.08 0.10 0.13 0.18 0.22 0.21 0.19 0.19 0.19 0.17 0.18 0.20 0.24 0.30 0.35 0.34 0.39 0.45 0.47 0.53 0.59 0.62 0.63 0.62 0.62 0.65 0.72 0.79
0.31 0.32 0.40 0.35 0.20 0.14 0.14 0.15 0.14 0.11 0.10 0.10 0.09 0.09 0.09 0.08 0.07 0.09 0.12 0.17 0.20 0.21 0.21 0.21 0.22 0.19 0.19 0.19 0.23 0.31 0.37 0.36 0.41 0.44 0.46 0.51 0.55 0.61 0.65 0.60 0.58 0.59 0.66 0.77
0.22 0.26 0.30 0.25 0.14 0.14 0.13 0.11 0.10 0.08 0.08 0.08 0.08 0.07 0.07 0.08 0.08 0.09 0.11 0.15 0.20 0.22 0.22 0.22 0.23 0.22 0.21 0.21 0.25 0.32 0.36 0.37 0.41 0.41 0.41 0.45 0.47 0.58 0.67 0.66 0.61 0.59 0.59 0.72
0.09 0.13 0.19 0.17 0.11 0.14 0.14 0.11 0.09 0.09 0.09 0.10 0.09 0.08 0.06 0.07 0.08 0.10 0.11 0.14 0.21 0.24 0.23 0.22 0.23 0.22 0.23 0.24 0.28 0.34 0.37 0.37 0.37 0.39 0.39 0.41 0.45 0.52 0.62 0.65 0.67 0.73 0.70 0.72

GEFSCGP_prec_meanprecacc_198.txt.gz
Total_Precipitation_Accumulation
0.50 0.64 0.54 0.34 0.32 0.30 0.27 0.32 0.28 0.19 0.18 0.24 0.24 0.18 0.12 0.11 0.11 0.12 0.12 0.12 0.12 0.11 0.10 0.12 0.18 0.23 0.32 0.44 0.48 0.56 0.62 0.72 0.85 0.95 1.09 1.06 1.01 1.03 1.06 1.02 1.00 0.98 1.05 1.05
0.62 0.57 0.30 0.21 0.24 0.31 0.34 0.38 0.30 0.22 0.18 0.28 0.28 0.19 0.11 0.11 0.11 0.11 0.10 0.12 0.14 0.11 0.10 0.12 0.18 0.23 0.30 0.43 0.49 0.56 0.65 0.75 0.82 0.89 0.97 1.05 1.02 1.04 1.10 1.06 1.04 1.01 0.99 1.03
0.46 0.32 0.17 0.26 0.34 0.43 0.41 0.34 0.26 0.25 0.23 0.30 0.36 0.29 0.14 0.12 0.10 0.10 0.10 0.10 0.15 0.16 0.13 0.14 0.22 0.28 0.32 0.42 0.50 0.56 0.66 0.75 0.81 0.96 1.06 1.14 1.24 1.24 1.26 1.25 1.14 1.05 1.00 0.97
0.36 0.21 0.21 0.32 0.37 0.44 0.44 0.23 0.22 0.26 0.41 0.48 0.42 0.48 0.18 0.14 0.13 0.12 0.10 0.09 0.12 0.14 0.14 0.15 0.20 0.29 0.33 0.39 0.50 0.59 0.69 0.76 0.80 0.99 1.14 1.11 1.18 1.18 1.11 1.07 1.10 1.07 1.02 0.98
0.47 0.25 0.27 0.35 0.27 0.30 0.34 0.21 0.25 0.34 0.47 0.56 0.42 0.49 0.25 0.14 0.14 0.11 0.09 0.08 0.10 0.12 0.13 0.13 0.14 0.20 0.29 0.36 0.47 0.58 0.72 0.82 0.84 0.92 1.11 1.15 1.09 1.05 1.05 1.09 1.08 1.11 1.11 1.05
0.43 0.28 0.32 0.28 0.19 0.23 0.33 0.39 0.45 0.50 0.76 0.95 0.37 0.37 0.29 0.23 0.24 0.15 0.09 0.08 0.10 0.10 0.12 0.12 0.11 0.13 0.25 0.37 0.47 0.55 0.68 0.81 0.87 0.87 0.99 1.15 1.10 1.05 1.04 1.08 1.12 1.11 1.14 1.12
0.52 0.37 0.31 0.26 0.32 0.37 0.54 0.84 1.19 1.20 1.24 0.77 0.17 0.25 0.29 0.22 0.20 0.19 0.14 0.10 0.10 0.10 0.14 0.14 0.12 0.13 0.20 0.32 0.43 0.53 0.63 0.72 0.80 0.83 0.87 0.97 1.09 1.06 0.98 0.93 0.99 1.07 1.14 1.10
0.57 0.41 0.33 0.32 0.34 0.47 0.56 0.76 1.00 0.90 0.58 0.23 0.10 0.21 0.22 0.15 0.12 0.13 0.10 0.09 0.10 0.09 0.10 0.11 0.13 0.15 0.18 0.23 0.30 0.43 0.54 0.67 0.79 0.84 0.83 0.88 0.98 1.09 1.01 0.93 0.91 0.95 1.01 0.97
0.62 0.38 0.22 0.23 0.23 0.35 0.54 0.58 0.50 0.65 0.48 0.30 0.20 0.17 0.14 0.07 0.06 0.08 0.09 0.08 0.09 0.09 0.09 0.10 0.12 0.15 0.17 0.22 0.25 0.36 0.45 0.59 0.77 0.89 0.88 0.88 0.92 1.00 1.02 0.93 0.90 0.91 0.92 0.92
0.67 0.50 0.22 0.19 0.31 0.40 0.45 0.52 0.66 0.97 0.81 0.42 0.22 0.19 0.20 0.12 0.10 0.09 0.10 0.10 0.09 0.10 0.11 0.11 0.12 0.15 0.17 0.20 0.23 0.31 0.39 0.47 0.60 0.79 0.92 0.92 0.89 0.89 0.96 0.98 0.95 0.91 0.90 0.90
0.69 0.69 0.39 0.32 0.48 0.55 0.55 0.70 0.90 0.94 0.66 0.47 0.29 0.24 0.24 0.17 0.14 0.13 0.11 0.11 0.11 0.10 0.11 0.11 0.13 0.15 0.18 0.21 0.26 0.32 0.39 0.45 0.51 0.61 0.77 0.89 0.90 0.93 0.97 1.01 0.97 0.96 0.93 0.92
0.65 0.82 0.54 0.31 0.31 0.34 0.48 0.62 0.79 0.95 0.66 0.35 0.30 0.24 0.19 0.14 0.13 0.13 0.11 0.09 0.08 0.08 0.09 0.09 0.10 0.16 0.19 0.24 0.29 0.34 0.42 0.44 0.47 0.55 0.65 0.77 0.87 0.92 0.97 0.95 1.00 1.05 1.03 0.95
0.90 1.21 0.99 0.61 0.50 0.49 0.59 0.54 0.58 0.68 0.63 0.39 0.28 0.17 0.11 0.09 0.08 0.09 0.10 0.10 0.09 0.07 0.08 0.09 0.11 0.16 0.21 0.25 0.28 0.35 0.43 0.43 0.45 0.55 0.64 0.73 0.84 0.87 0.88 0.85 0.91 1.07 1.18 1.13
1.18 1.29 0.91 0.70 0.56 0.53 0.53 0.44 0.41 0.64 0.75 0.38 0.17 0.12 0.08 0.09 0.09 0.09 0.10 0.12 0.10 0.08 0.08 0.10 0.13 0.16 0.19 0.22 0.26 0.32 0.40 0.46 0.49 0.52 0.61 0.69 0.77 0.79 0.78 0.78 0.80 0.94 1.11 1.20
1.05 1.05 0.47 0.23 0.20 0.27 0.29 0.26 0.29 0.39 0.38 0.29 0.14 0.13 0.13 0.13 0.14 0.14 0.13 0.13 0.12 0.09 0.08 0.09 0.12 0.15 0.20 0.24 0.27 0.30 0.36 0.46 0.53 0.52 0.59 0.62 0.68 0.76 0.76 0.74 0.78 0.88 1.01 1.08
1.00 0.96 0.46 0.24 0.15 0.20 0.24 0.19 0.19 0.20 0.15 0.13 0.11 0.13 0.15 0.16 0.14 0.14 0.13 0.12 0.13 0.11 0.09 0.10 0.12 0.16 0.22 0.27 0.29 0.33 0.37 0.42 0.50 0.51 0.56 0.58 0.66 0.76 0.78 0.73 0.76 0.87 0.97 1.03
1.00 0.99 0.82 0.44 0.18 0.37 0.40 0.19 0.16 0.16 0.15 0.13 0.15 0.16 0.15 0.15 0.15 0.16 0.15 0.14 0.14 0.12 0.12 0.11 0.14 0.19 0.23 0.28 0.29 0.34 0.36 0.40 0.47 0.49 0.51 0.57 0.65 0.70 0.78 0.76 0.78 0.87 0.96 1.00
0.78 0.94 1.13 0.74 0.54 0.76 0.33 0.13 0.12 0.15 0.16 0.14 0.13 0.12 0.13 0.16 0.17 0.19 0.17 0.17 0.16 0.15 0.17 0.16 0.18 0.21 0.22 0.26 0.25 0.29 0.33 0.42 0.49 0.50 0.47 0.53 0.61 0.64 0.75 0.80 0.81 0.90 0.98 0.95
0.38 0.81 1.27 1.04 0.75 0.36 0.16 0.15 0.19 0.25 0.25 0.17 0.12 0.08 0.08 0.11 0.15 0.19 0.16 0.15 0.16 0.18 0.20 0.20 0.20 0.21 0.21 0.24 0.24 0.24 0.28 0.39 0.48 0.52 0.46 0.48 0.57 0.63 0.71 0.78 0.84 0.90 0.98 0.92
0.39 0.76 1.35 1.15 0.82 0.34 0.18 0.14 0.16 0.25 0.33 0.19 0.13 0.10 0.08 0.12 0.21 0.22 0.17 0.15 0.16 0.16 0.18 0.20 0.19 0.19 0.21 0.24 0.25 0.23 0.25 0.33 0.44 0.51 0.43 0.45 0.52 0.55 0.63 0.71 0.81 0.88 0.88 0.86
0.75 1.17 1.35 0.96 0.71 0.24 0.15 0.16 0.18 0.39 0.42 0.19 0.13 0.12 0.12 0.16 0.20 0.19 0.18 0.19 0.19 0.19 0.18 0.17 0.18 0.19 0.22 0.25 0.24 0.25 0.27 0.29 0.38 0.50 0.46 0.48 0.51 0.54 0.61 0.69 0.73 0.79 0.83 0.82
0.61 0.86 0.83 0.71 0.74 0.34 0.19 0.25 0.40 0.44 0.22 0.14 0.12 0.10 0.10 0.10 0.09 0.10 0.14 0.19 0.22 0.21 0.18 0.18 0.18 0.18 0.19 0.22 0.25 0.27 0.30 0.31 0.37 0.46 0.48 0.52 0.57 0.59 0.63 0.67 0.66 0.68 0.78 0.82
0.41 0.56 0.63 0.57 0.41 0.23 0.20 0.26 0.28 0.21 0.17 0.13 0.11 0.10 0.09 0.08 0.08 0.10 0.14 0.19 0.22 0.21 0.20 0.20 0.19 0.18 0.18 0.20 0.25 0.31 0.35 0.35 0.40 0.45 0.47 0.53 0.60 0.63 0.65 0.63 0.64 0.67 0.74 0.81
0.34 0.34 0.42 0.37 0.22 0.16 0.15 0.16 0.15 0.13 0.12 0.11 0.10 0.10 0.10 0.09 0.08 0.09 0.12 0.17 0.20 0.22 0.21 0.22 0.22 0.20 0.20 0.20 0.23 0.32 0.38 0.37 0.41 0.45 0.46 0.52 0.56 0.63 0.66 0.62 0.59 0.62 0.69 0.80
0.25 0.28 0.32 0.26 0.15 0.14 0.14 0.12 0.11 0.10 0.09 0.09 0.09 0.07 0.08 0.08 0.09 0.10 0.11 0.16 0.21 0.23 0.23 0.22 0.24 0.22 0.21 0.22 0.25 0.33 0.37 0.38 0.42 0.42 0.42 0.46 0.48 0.59 0.69 0.68 0.63 0.61 0.62 0.76
0.12 0.16 0.21 0.19 0.13 0.16 0.15 0.12 0.10 0.10 0.10 0.10 0.10 0.09 0.07 0.08 0.09 0.11 0.11 0.14 0.22 0.26 0.25 0.23 0.24 0.23 0.24 0.26 0.30 0.35 0.38 0.38 0.39 0.40 0.40 0.42 0.46 0.54 0.64 0.67 0.69 0.75 0.73 0.74

GEFSCGP_prec_meanprecacc_204.txt.gz
Total_Precipitation_Accumulation
0.53 0.67 0.56 0.35 0.33 0.30 0.27 0.32 0.28 0.19 0.18 0.24 0.24 0.18 0.12 0.11 0.11 0.12 0.12 0.12 0.12 0.11 0.10 0.12 0.18 0.23 0.32 0.44 0.48 0.56 0.62 0.72 0.85 0.95 1.09 1.06 1.01 1.04 1.06 1.02 1.00 0.99 1.05 1.06
0.66 0.59 0.31 0.22 0.25 0.32 0.35 0.39 0.31 0.22 0.18 0.28 0.28 0.19 0.11 0.11 0.11 0.11 0.10 0.12 0.14 0.11 0.10 0.12 0.18 0.23 0.30 0.43 0.49 0.56 0.65 0.75 0.82 0.89 0.97 1.05 1.02 1.04 1.10 1.07 1.05 1.02 1.00 1.04
0.48 0.33 0.17 0.27 0.36 0.45 0.42 0.35 0.26 0.25 0.23 0.30 0.36 0.29 0.14 0.12 0.10 0.10 0.10 0.10 0.15 0.16 0.13 0.14 0.22 0.28 0.32 0.42 0.50 0.56 0.66 0.75 0.81 0.96 1.06 1.14 1.24 1.24 1.26 1.26 1.14 1.05 1.01 0.98
0.38 0.22 0.22 0.33 0.38 0.45 0.45 0.23 0.22 0.26 0.42 0.49 0.42 0.48 0.18 0.14 0.13 0.12 0.10 0.09 0.12 0.14 0.14 0.15 0.20 0.29 0.33 0.39 0.50 0.59 0.69 0.76 0.80 0.99 1.14 1.11 1.18 1.18 1.11 1.08 1.11 1.08 1.03 0.99
0.50 0.26 0.28 0.35 0.27 0.31 0.35 0.21 0.26 0.34 0.49 0.57 0.42 0.49 0.25 0.14 0.14 0.11 0.09 0.08 0.10 0.12 0.13 0.13 0.14 0.20 0.29 0.36 0.47 0.58 0.72 0.82 0.84 0.92 1.11 1.15 1.09 1.05 1.06 1.09 1.09 1.12 1.12 1.06
0.45 0.30 0.34 0.29 0.19 0.24 0.34 0.40 0.46 0.52 0.78 0.97 0.38 0.37 0.29 0.23 0.24 0.15 0.09 0.08 0.10 0.10 0.12 0.12 0.11 0.13 0.25 0.37 0.47 0.55 0.68 0.81 0.87 0.87 0.99 1.15 1.10 1.06 1.04 1.09 1.13 1.13 1.16 1.13
0.53 0.38 0.32 0.28 0.33 0.39 0.56 0.86 1.22 1.23 1.26 0.78 0.17 0.25 0.29 0.22 0.20 0.19 0.14 0.10 0.10 0.10 0.14 0.14 0.12 0.13 0.20 0.32 0.43 0.53 0.63 0.72 0.80 0.83 0.88 0.98 1.10 1.06 0.99 0.94 1.00 1.08 1.15 1.11
0.59 0.42 0.33 0.32 0.35 0.48 0.57 0.78 1.02 0.92 0.59 0.23 0.11 0.21 0.22 0.15 0.12 0.13 0.10 0.09 0.10 0.09 0.10 0.11 0.13 0.15 0.18 0.23 0.30 0.43 0.54 0.67 0.80 0.84 0.84 0.89 0.99 1.10 1.02 0.94 0.92 0.97 1.02 0.98
0.66 0.40 0.23 0.24 0.24 0.36 0.55 0.59 0.51 0.67 0.49 0.31 0.20 0.17 0.14 0.07 0.06 0.08 0.09 0.08 0.09 0.09 0.09 0.10 0.12 0.15 0.17 0.22 0.25 0.36 0.45 0.59 0.78 0.89 0.88 0.88 0.92 1.01 1.03 0.94 0.91 0.92 0.93 0.93
0.72 0.54 0.23 0.20 0.32 0.41 0.46 0.54 0.68 1.00 0.83 0.43 0.22 0.19 0.21 0.12 0.10 0.09 0.10 0.10 0.09 0.10 0.11 0.11 0.12 0.15 0.17 0.20 0.23 0.31 0.39 0.47 0.60 0.79 0.93 0.93 0.90 0.91 0.98 1.00 0.97 0.92 0.91 0.92
0.73 0.73 0.41 0.33 0.49 0.57 0.57 0.73 0.93 0.97 0.69 0.49 0.30 0.25 0.25 0.18 0.14 0.13 0.11 0.11 0.11 0.10 0.11 0.11 0.13 0.15 0.18 0.21 0.26 0.32 0.39 0.45 0.51 0.61 0.78 0.90 0.91 0.95 1.00 1.03 0.99 0.97 0.94 0.92
0.68 0.87 0.57 0.33 0.32 0.35 0.50 0.65 0.83 1.00 0.69 0.36 0.31 0.26 0.20 0.15 0.13 0.13 0.11 0.09 0.08 0.08 0.09 0.09 0.10 0.16 0.20 0.24 0.29 0.35 0.43 0.45 0.47 0.55 0.65 0.78 0.88 0.93 1.00 0.98 1.01 1.06 1.04 0.96
0.94 1.27 1.04 0.64 0.54 0.51 0.61 0.56 0.61 0.73 0.66 0.41 0.29 0.19 0.12 0.10 0.09 0.09 0.10 0.10 0.09 0.07 0.08 0.09 0.11 0.16 0.21 0.25 0.29 0.37 0.44 0.44 0.45 0.55 0.64 0.74 0.86 0.89 0.93 0.89 0.92 1.08 1.18 1.13
1.24 1.37 0.96 0.75 0.60 0.57 0.55 0.45 0.43 0.67 0.80 0.41 0.18 0.13 0.09 0.10 0.10 0.09 0.10 0.12 0.10 0.08 0.08 0.10 0.13 0.16 0.20 0.22 0.27 0.33 0.41 0.47 0.49 0.52 0.62 0.70 0.79 0.81 0.81 0.80 0.81 0.95 1.12 1.20
1.09 1.09 0.49 0.25 0.20 0.28 0.31 0.27 0.30 0.41 0.39 0.30 0.15 0.13 0.13 0.13 0.14 0.14 0.14 0.13 0.12 0.09 0.08 0.10 0.12 0.16 0.21 0.25 0.28 0.31 0.37 0.46 0.53 0.52 0.59 0.62 0.69 0.77 0.77 0.75 0.79 0.88 1.01 1.09
1.03 0.99 0.48 0.25 0.15 0.20 0.24 0.19 0.19 0.21 0.16 0.14 0.11 0.13 0.15 0.16 0.14 0.14 0.13 0.12 0.13 0.11 0.09 0.10 0.12 0.16 0.22 0.27 0.30 0.34 0.38 0.43 0.52 0.52 0.57 0.59 0.66 0.77 0.79 0.74 0.77 0.88 0.99 1.04
1.04 1.03 0.86 0.46 0.19 0.39 0.41 0.19 0.16 0.17 0.15 0.13 0.15 0.17 0.15 0.15 0.15 0.16 0.15 0.15 0.14 0.12 0.12 0.11 0.14 0.19 0.23 0.28 0.29 0.34 0.37 0.41 0.49 0.51 0.53 0.58 0.67 0.71 0.79 0.77 0.80 0.89 0.99 1.02
0.84 1.00 1.19 0.78 0.57 0.79 0.35 0.14 0.13 0.16 0.16 0.14 0.14 0.12 0.13 0.16 0.17 0.19 0.18 0.18 0.16 0.16 0.17 0.16 0.18 0.21 0.22 0.26 0.25 0.30 0.34 0.44 0.51 0.52 0.49 0.55 0.64 0.67 0.77 0.82 0.83 0.93 1.01 0.98
0.43 0.87 1.34 1.09 0.78 0.38 0.18 0.17 0.22 0.28 0.27 0.18 0.13 0.09 0.08 0.11 0.15 0.19 0.16 0.15 0.16 0.18 0.20 0.20 0.20 0.21 0.21 0.24 0.24 0.24 0.29 0.40 0.50 0.54 0.48 0.50 0.59 0.65 0.73 0.80 0.86 0.93 1.01 0.96
0.42 0.82 1.43 1.21 0.87 0.39 0.22 0.16 0.18 0.28 0.38 0.21 0.14 0.11 0.09 0.12 0.22 0.22 0.17 0.15 0.16 0.16 0.19 0.20 0.19 0.19 0.21 0.24 0.25 0.23 0.25 0.33 0.44 0.52 0.45 0.47 0.54 0.57 0.66 0.73 0.83 0.90 0.91 0.89
0.79 1.23 1.42 1.01 0.77 0.29 0.18 0.19 0.22 0.45 0.48 0.22 0.16 0.14 0.13 0.17 0.21 0.19 0.19 0.19 0.19 0.19 0.18 0.17 0.18 0.19 0.22 0.25 0.24 0.25 0.27 0.29 0.38 0.50 0.46 0.48 0.52 0.55 0.63 0.71 0.75 0.82 0.86 0.84
0.64 0.90 0.87 0.75 0.80 0.38 0.21 0.28 0.46 0.50 0.25 0.17 0.15 0.13 0.12 0.12 0.10 0.11 0.14 0.19 0.23 0.21 0.19 0.18 0.18 0.18 0.19 0.22 0.25 0.27 0.30 0.31 0.37 0.46 0.48 0.53 0.57 0.59 0.63 0.68 0.67 0.70 0.80 0.84
0.44 0.59 0.66 0.61 0.46 0.27 0.24 0.31 0.33 0.25 0.20 0.16 0.14 0.13 0.12 0.10 0.09 0.11 0.14 0.19 0.22 0.22 0.20 0.20 0.20 0.18 0.18 0.20 0.25 0.31 0.36 0.35 0.40 0.45 0.48 0.54 0.61 0.64 0.65 0.64 0.65 0.69 0.75 0.82
0.36 0.35 0.44 0.39 0.24 0.18 0.18 0.19 0.18 0.15 0.14 0.14 0.13 0.12 0.12 0.11 0.09 0.11 0.13 0.18 0.21 0.22 0.22 0.22 0.22 0.20 0.20 0.20 0.24 0.32 0.38 0.37 0.41 0.45 0.47 0.52 0.57 0.63 0.67 0.63 0.60 0.62 0.70 0.81
0.26 0.29 0.33 0.28 0.17 0.16 0.16 0.14 0.12 0.11 0.10 0.11 0.10 0.09 0.09 0.10 0.10 0.11 0.12 0.16 0.21 0.24 0.23 0.23 0.24 0.23 0.22 0.22 0.26 0.33 0.38 0.38 0.42 0.42 0.42 0.46 0.49 0.60 0.70 0.69 0.63 0.62 0.63 0.77
0.14 0.18 0.24 0.22 0.15 0.18 0.17 0.13 0.11 0.11 0.11 0.12 0.12 0.10 0.08 0.09 0.10 0.12 0.12 0.15 0.22 0.26 0.25 0.24 0.25 0.24 0.25 0.26 0.30 0.36 0.39 0.38 0.39 0.40 0.40 0.43 0.47 0.55 0.64 0.67 0.70 0.76 0.74 0.76

GEFSCGP_prec_meanprecacc_210.txt.gz
Total_Precipitation_Accumulation
0.58 0.70 0.59 0.38 0.35 0.31 0.28 0.33 0.29 0.19 0.18 0.24 0.24 0.18 0.12 0.11 0.11 0.12 0.12 0.12 0.12 0.11 0.10 0.12 0.18 0.23 0.32 0.44 0.48 0.56 0.62 0.73 0.85 0.95 1.09 1.06 1.01 1.04 1.06 1.02 1.01 0.99 1.05 1.06
0.72 0.64 0.32 0.23 0.27 0.33 0.36 0.40 0.31 0.23 0.18 0.29 0.28 0.19 0.11 0.11 0.11 0.11 0.10 0.12 0.14 0.11 0.10 0.12 0.18 0.23 0.30 0.43 0.49 0.56 0.65 0.75 0.82 0.89 0.97 1.05 1.02 1.04 1.10 1.07 1.05 1.02 1.00 1.04
0.53 0.36 0.18 0.28 0.38 0.47 0.43 0.36 0.26 0.26 0.24 0.31 0.36 0.29 0.14 0.12 0.10 0.10 0.10 0.10 0.15 0.16 0.13 0.14 0.22 0.28 0.32 0.42 0.50 0.56 0.66 0.75 0.81 0.96 1.06 1.14 1.24 1.24 1.26 1.26 1.14 1.05 1.01 0.98
0.41 0.24 0.23 0.35 0.40 0.48 0.47 0.24 0.22 0.27 0.43 0.50 0.42 0.48 0.18 0.14 0.13 0.12 0.10 0.09 0.12 0.14 0.14 0.15 0.20 0.29 0.33 0.39 0.50 0.59 0.69 0.76 0.80 0.99 1.14 1.11 1.18 1.18 1.11 1.08 1.11 1.08 1.03 0.99
0.53 0.28 0.29 0.37 0.28 0.33 0.37 0.22 0.26 0.35 0.50 0.59 0.43 0.49 0.25 0.14 0.14 0.11 0.09 0.08 0.10 0.12 0.13 0.13 0.14 0.20 0.29 0.36 0.47 0.58 0.72 0.82 0.84 0.92 1.11 1.15 1.09 1.05 1.06 1.09 1.09 1.12 1.12 1.06
0.47 0.31 0.35 0.30 0.20 0.24 0.35 0.42 0.47 0.53 0.80 0.99 0.39 0.38 0.29 0.23 0.24 0.15 0.09 0.08 0.10 0.10 0.12 0.12 0.11 0.13 0.25 0.37 0.47 0.55 0.68 0.81 0.87 0.87 0.99 1.15 1.10 1.06 1.04 1.09 1.13 1.13 1.16 1.13
0.57 0.40 0.33 0.29 0.34 0.40 0.58 0.89 1.26 1.26 1.29 0.79 0.17 0.25 0.29 0.22 0.20 0.19 0.14 0.10 0.10 0.10 0.14 0.14 0.12 0.13 0.20 0.32 0.43 0.53 0.63 0.72 0.80 0.83 0.88 0.98 1.10 1.06 0.99 0.94 1.00 1.08 1.15 1.11
0.65 0.47 0.36 0.33 0.37 0.51 0.60 0.81 1.06 0.95 0.60 0.24 0.11 0.21 0.22 0.15 0.12 0.13 0.10 0.09 0.10 0.09 0.10 0.11 0.13 0.15 0.18 0.23 0.30 0.43 0.54 0.67 0.80 0.84 0.84 0.89 0.99 1.10 1.02 0.94 0.92 0.97 1.02 0.99
0.70 0.44 0.25 0.25 0.25 0.38 0.58 0.61 0.53 0.70 0.51 0.32 0.21 0.17 0.14 0.07 0.06 0.08 0.09 0.08 0.09 0.09 0.09 0.10 0.12 0.15 0.17 0.22 0.25 0.36 0.45 0.59 0.78 0.89 0.88 0.88 0.92 1.01 1.03 0.95 0.91 0.93 0.93 0.93
0.75 0.58 0.25 0.21 0.33 0.43 0.49 0.57 0.71 1.04 0.86 0.45 0.22 0.20 0.22 0.13 0.11 0.09 0.10 0.10 0.09 0.10 0.11 0.11 0.12 0.15 0.17 0.20 0.23 0.31 0.39 0.47 0.60 0.79 0.93 0.93 0.90 0.91 0.98 1.00 0.97 0.92 0.91 0.92
0.75 0.76 0.44 0.36 0.52 0.59 0.59 0.76 0.97 1.01 0.73 0.52 0.32 0.27 0.27 0.20 0.16 0.14 0.11 0.11 0.11 0.10 0.11 0.11 0.13 0.15 0.18 0.21 0.26 0.32 0.39 0.45 0.51 0.61 0.78 0.90 0.91 0.95 1.00 1.03 0.99 0.97 0.94 0.93
0.71 0.90 0.60 0.35 0.34 0.36 0.51 0.68 0.87 1.05 0.73 0.39 0.34 0.29 0.23 0.18 0.16 0.14 0.12 0.10 0.08 0.08 0.09 0.09 0.10 0.16 0.20 0.24 0.29 0.35 0.43 0.45 0.47 0.55 0.66 0.78 0.89 0.94 1.00 0.98 1.01 1.06 1.04 0.97
0.98 1.32 1.08 0.67 0.56 0.54 0.64 0.58 0.63 0.76 0.69 0.44 0.32 0.22 0.14 0.12 0.11 0.11 0.12 0.11 0.09 0.07 0.08 0.09 0.11 0.16 0.21 0.26 0.29 0.37 0.44 0.44 0.45 0.55 0.64 0.74 0.86 0.89 0.93 0.90 0.93 1.08 1.19 1.14
1.29 1.40 0.98 0.77 0.62 0.59 0.56 0.46 0.44 0.70 0.83 0.42 0.19 0.15 0.11 0.11 0.11 0.11 0.12 0.13 0.11 0.08 0.08 0.10 0.13 0.16 0.20 0.22 0.27 0.33 0.41 0.47 0.49 0.52 0.62 0.70 0.80 0.82 0.82 0.82 0.83 0.95 1.12 1.21
1.12 1.12 0.50 0.25 0.21 0.29 0.32 0.28 0.31 0.42 0.41 0.32 0.16 0.14 0.14 0.14 0.14 0.14 0.14 0.13 0.12 0.09 0.09 0.10 0.12 0.16 0.21 0.25 0.28 0.31 0.37 0.47 0.54 0.52 0.59 0.62 0.69 0.78 0.78 0.76 0.80 0.89 1.02 1.09
1.06 1.02 0.50 0.26 0.16 0.21 0.25 0.20 0.20 0.22 0.17 0.15 0.12 0.14 0.16 0.16 0.15 0.14 0.13 0.13 0.14 0.11 0.10 0.10 0.12 0.16 0.22 0.27 0.30 0.34 0.38 0.43 0.52 0.52 0.57 0.59 0.66 0.77 0.81 0.75 0.78 0.89 1.00 1.04
1.06 1.06 0.89 0.48 0.20 0.39 0.42 0.21 0.17 0.19 0.17 0.15 0.18 0.19 0.17 0.16 0.16 0.16 0.15 0.15 0.14 0.12 0.12 0.12 0.14 0.19 0.23 0.28 0.29 0.34 0.37 0.41 0.49 0.51 0.53 0.58 0.67 0.71 0.79 0.79 0.81 0.91 1.00 1.03
0.86 1.03 1.23 0.80 0.58 0.81 0.37 0.15 0.14 0.18 0.19 0.17 0.16 0.14 0.14 0.17 0.18 0.19 0.18 0.18 0.16 0.16 0.17 0.16 0.18 0.21 0.22 0.26 0.25 0.30 0.34 0.44 0.51 0.52 0.49 0.55 0.64 0.67 0.77 0.82 0.83 0.94 1.02 1.00
0.44 0.90 1.38 1.12 0.80 0.40 0.20 0.18 0.23 0.30 0.30 0.20 0.15 0.10 0.09 0.12 0.16 0.20 0.17 0.15 0.16 0.18 0.20 0.20 0.20 0.21 0.21 0.24 0.24 0.24 0.29 0.40 0.50 0.54 0.48 0.50 0.59 0.65 0.74 0.80 0.87 0.94 1.02 0.98
0.44 0.85 1.47 1.25 0.89 0.41 0.25 0.18 0.21 0.30 0.41 0.23 0.15 0.12 0.10 0.14 0.23 0.23 0.18 0.16 0.16 0.17 0.19 0.20 0.19 0.19 0.21 0.24 0.25 0.23 0.25 0.33 0.44 0.52 0.45 0.47 0.54 0.58 0.66 0.74 0.84 0.92 0.92 0.91
0.81 1.27 1.45 1.04 0.80 0.31 0.20 0.20 0.24 0.48 0.52 0.24 0.18 0.16 0.16 0.20 0.23 0.20 0.19 0.20 0.19 0.19 0.18 0.17 0.18 0.19 0.22 0.25 0.24 0.25 0.27 0.29 0.38 0.50 0.46 0.48 0.52 0.56 0.63 0.72 0.76 0.83 0.87 0.86
0.66 0.92 0.89 0.78 0.83 0.41 0.22 0.29 0.49 0.54 0.28 0.20 0.17 0.16 0.15 0.14 0.12 0.12 0.16 0.20 0.23 0.21 0.19 0.19 0.18 0.19 0.19 0.22 0.25 0.27 0.30 0.31 0.37 0.46 0.48 0.53 0.57 0.59 0.63 0.68 0.67 0.71 0.81 0.85
0.46 0.62 0.69 0.65 0.50 0.30 0.26 0.34 0.36 0.28 0.23 0.19 0.17 0.16 0.15 0.13 0.12 0.13 0.16 0.20 0.24 0.23 0.20 0.20 0.20 0.18 0.18 0.20 0.25 0.31 0.36 0.35 0.40 0.45 0.48 0.54 0.61 0.64 0.66 0.65 0.65 0.69 0.76 0.83
0.38 0.37 0.46 0.42 0.28 0.20 0.20 0.21 0.20 0.17 0.17 0.17 0.16 0.15 0.15 0.14 0.12 0.13 0.14 0.19 0.22 0.24 0.23 0.23 0.23 0.21 0.20 0.20 0.24 0.32 0.38 0.37 0.41 0.45 0.47 0.52 0.57 0.63 0.67 0.63 0.61 0.63 0.71 0.81
0.29 0.32 0.35 0.30 0.19 0.17 0.17 0.15 0.15 0.13 0.12 0.12 0.12 0.11 0.12 0.13 0.13 0.14 0.15 0.19 0.23 0.25 0.25 0.25 0.25 0.24 0.22 0.23 0.26 0.34 0.38 0.39 0.43 0.42 0.43 0.47 0.49 0.60 0.70 0.69 0.64 0.63 0.63 0.78
0.17 0.20 0.26 0.24 0.17 0.20 0.19 0.15 0.13 0.13 0.13 0.13 0.13 0.11 0.10 0.11 0.13 0.14 0.15 0.17 0.24 0.28 0.28 0.26 0.26 0.26 0.26 0.27 0.31 0.36 0.39 0.39 0.40 0.41 0.41 0.43 0.47 0.55 0.64 0.68 0.70 0.76 0.74 0.77

GEFSCGP_prec_meanprecacc_216.txt.gz
Total_Precipitation_Accumulation
0.62 0.76 0.64 0.41 0.38 0.34 0.30 0.35 0.30 0.19 0.18 0.25 0.24 0.18 0.12 0.11 0.11 0.12 0.12 0.12 0.12 0.11 0.10 0.12 0.19 0.24 0.33 0.44 0.49 0.56 0.62 0.73 0.85 0.95 1.10 1.06 1.01 1.04 1.07 1.03 1.01 0.99 1.05 1.06
0.76 0.68 0.35 0.25 0.29 0.35 0.39 0.42 0.33 0.23 0.18 0.29 0.28 0.19 0.11 0.11 0.11 0.11 0.10 0.12 0.14 0.11 0.10 0.12 0.19 0.24 0.31 0.44 0.49 0.56 0.66 0.75 0.82 0.90 0.98 1.05 1.02 1.05 1.10 1.07 1.05 1.02 1.00 1.05
0.56 0.38 0.20 0.31 0.41 0.50 0.46 0.38 0.28 0.26 0.24 0.31 0.37 0.29 0.14 0.12 0.10 0.10 0.10 0.10 0.15 0.16 0.13 0.14 0.22 0.28 0.32 0.42 0.50 0.56 0.66 0.75 0.81 0.97 1.07 1.14 1.25 1.24 1.27 1.26 1.15 1.06 1.01 0.99
0.43 0.25 0.24 0.37 0.43 0.51 0.50 0.26 0.24 0.28 0.45 0.51 0.43 0.49 0.18 0.14 0.13 0.12 0.10 0.09 0.12 0.14 0.14 0.15 0.20 0.29 0.34 0.39 0.50 0.59 0.69 0.76 0.80 0.99 1.14 1.11 1.18 1.18 1.12 1.08 1.11 1.08 1.04 0.99
0.55 0.29 0.31 0.38 0.30 0.34 0.39 0.23 0.27 0.36 0.51 0.61 0.44 0.49 0.25 0.14 0.14 0.11 0.09 0.08 0.10 0.12 0.13 0.13 0.15 0.21 0.29 0.36 0.47 0.58 0.72 0.82 0.84 0.92 1.11 1.15 1.09 1.06 1.06 1.09 1.09 1.12 1.12 1.06
0.49 0.32 0.37 0.31 0.21 0.25 0.36 0.43 0.49 0.55 0.83 1.03 0.39 0.38 0.29 0.24 0.24 0.15 0.09 0.08 0.10 0.10 0.12 0.12 0.11 0.13 0.26 0.37 0.47 0.55 0.68 0.81 0.87 0.87 0.99 1.15 1.11 1.06 1.04 1.09 1.13 1.13 1.16 1.13
0.60 0.42 0.35 0.30 0.35 0.42 0.61 0.94 1.34 1.34 1.36 0.82 0.17 0.25 0.30 0.23 0.20 0.19 0.14 0.10 0.10 0.10 0.14 0.14 0.12 0.13 0.20 0.32 0.43 0.53 0.63 0.72 0.80 0.83 0.88 0.98 1.10 1.06 0.99 0.94 1.00 1.08 1.15 1.11
0.68 0.52 0.39 0.35 0.39 0.55 0.65 0.85 1.11 1.00 0.64 0.25 0.11 0.23 0.24 0.17 0.13 0.13 0.10 0.09 0.10 0.09 0.10 0.11 0.13 0.15 0.18 0.23 0.30 0.43 0.54 0.67 0.80 0.84 0.84 0.89 0.99 1.10 1.02 0.94 0.92 0.97 1.02 0.99
0.72 0.47 0.28 0.27 0.27 0.40 0.62 0.66 0.56 0.72 0.52 0.32 0.21 0.19 0.16 0.07 0.06 0.08 0.09 0.08 0.09 0.09 0.09 0.10 0.12 0.15 0.17 0.22 0.25 0.36 0.45 0.59 0.78 0.89 0.88 0.88 0.93 1.01 1.03 0.95 0.91 0.93 0.93 0.93
0.77 0.59 0.27 0.24 0.35 0.46 0.52 0.61 0.75 1.08 0.88 0.45 0.23 0.21 0.23 0.14 0.11 0.10 0.10 0.10 0.09 0.10 0.11 0.11 0.12 0.15 0.17 0.20 0.23 0.31 0.39 0.47 0.60 0.79 0.93 0.93 0.90 0.91 0.98 1.01 0.97 0.92 0.92 0.92
0.77 0.78 0.46 0.40 0.57 0.63 0.62 0.81 1.02 1.05 0.76 0.54 0.33 0.30 0.29 0.22 0.18 0.15 0.12 0.12 0.11 0.10 0.11 0.11 0.13 0.15 0.18 0.21 0.26 0.32 0.39 0.45 0.51 0.61 0.78 0.90 0.91 0.95 1.00 1.04 0.99 0.98 0.94 0.93
0.74 0.93 0.62 0.38 0.38 0.38 0.53 0.71 0.90 1.10 0.77 0.41 0.36 0.31 0.24 0.19 0.16 0.15 0.13 0.11 0.09 0.09 0.09 0.09 0.11 0.16 0.20 0.24 0.29 0.35 0.43 0.45 0.47 0.55 0.66 0.78 0.89 0.94 1.00 0.99 1.01 1.06 1.04 0.97
1.05 1.40 1.13 0.71 0.61 0.57 0.66 0.60 0.65 0.79 0.73 0.46 0.34 0.24 0.15 0.12 0.12 0.12 0.13 0.12 0.10 0.08 0.08 0.09 0.11 0.16 0.21 0.26 0.29 0.37 0.44 0.44 0.45 0.55 0.64 0.74 0.86 0.89 0.93 0.90 0.93 1.08 1.19 1.14
1.35 1.46 1.02 0.79 0.65 0.62 0.58 0.47 0.45 0.72 0.86 0.45 0.21 0.16 0.12 0.12 0.12 0.11 0.13 0.14 0.12 0.09 0.09 0.10 0.13 0.16 0.20 0.22 0.27 0.33 0.41 0.47 0.49 0.52 0.62 0.71 0.80 0.82 0.82 0.82 0.83 0.95 1.12 1.21
1.17 1.17 0.53 0.27 0.22 0.30 0.33 0.30 0.32 0.45 0.44 0.34 0.17 0.16 0.16 0.15 0.15 0.15 0.15 0.14 0.13 0.10 0.09 0.10 0.13 0.16 0.21 0.25 0.28 0.31 0.37 0.47 0.54 0.52 0.60 0.63 0.69 0.78 0.78 0.76 0.80 0.89 1.02 1.09
1.10 1.06 0.52 0.28 0.17 0.22 0.26 0.21 0.22 0.24 0.20 0.17 0.13 0.16 0.17 0.17 0.15 0.14 0.14 0.13 0.14 0.12 0.10 0.11 0.13 0.17 0.23 0.28 0.31 0.34 0.38 0.44 0.52 0.52 0.57 0.59 0.66 0.77 0.81 0.75 0.78 0.89 1.00 1.04
1.09 1.10 0.92 0.51 0.22 0.41 0.44 0.23 0.20 0.21 0.20 0.17 0.19 0.20 0.17 0.17 0.16 0.17 0.16 0.15 0.15 0.13 0.12 0.12 0.15 0.19 0.23 0.29 0.30 0.35 0.38 0.42 0.49 0.51 0.53 0.59 0.68 0.72 0.79 0.79 0.81 0.91 1.01 1.03
0.89 1.05 1.26 0.82 0.60 0.85 0.40 0.17 0.15 0.20 0.22 0.19 0.17 0.14 0.14 0.17 0.18 0.20 0.18 0.18 0.16 0.16 0.17 0.16 0.18 0.22 0.22 0.26 0.26 0.30 0.35 0.45 0.52 0.52 0.49 0.56 0.64 0.67 0.77 0.82 0.84 0.94 1.03 1.00
0.46 0.92 1.40 1.15 0.82 0.42 0.22 0.20 0.26 0.32 0.33 0.22 0.16 0.11 0.09 0.12 0.16 0.21 0.17 0.16 0.17 0.18 0.21 0.20 0.20 0.21 0.21 0.24 0.25 0.24 0.29 0.41 0.51 0.55 0.49 0.51 0.60 0.65 0.74 0.80 0.87 0.94 1.02 0.99
0.45 0.86 1.49 1.27 0.92 0.42 0.27 0.19 0.22 0.32 0.43 0.24 0.17 0.13 0.12 0.15 0.24 0.25 0.20 0.17 0.17 0.17 0.19 0.20 0.19 0.19 0.21 0.24 0.25 0.23 0.26 0.33 0.45 0.53 0.45 0.48 0.55 0.58 0.66 0.74 0.84 0.92 0.92 0.91
0.82 1.29 1.47 1.05 0.81 0.32 0.21 0.20 0.25 0.50 0.55 0.26 0.20 0.19 0.18 0.21 0.25 0.22 0.21 0.22 0.21 0.20 0.19 0.18 0.18 0.19 0.22 0.25 0.25 0.25 0.27 0.29 0.38 0.50 0.46 0.48 0.52 0.56 0.63 0.72 0.76 0.83 0.87 0.86
0.68 0.94 0.91 0.79 0.84 0.42 0.23 0.31 0.51 0.57 0.30 0.22 0.20 0.18 0.18 0.17 0.14 0.14 0.17 0.22 0.25 0.22 0.19 0.19 0.18 0.19 0.19 0.22 0.25 0.27 0.30 0.31 0.37 0.46 0.48 0.53 0.57 0.59 0.63 0.69 0.68 0.71 0.81 0.85
0.48 0.64 0.71 0.67 0.52 0.32 0.28 0.36 0.38 0.30 0.25 0.20 0.19 0.18 0.17 0.16 0.14 0.15 0.18 0.23 0.26 0.24 0.21 0.21 0.20 0.18 0.18 0.20 0.25 0.31 0.36 0.35 0.40 0.45 0.48 0.54 0.61 0.64 0.66 0.65 0.65 0.69 0.76 0.83
0.40 0.39 0.48 0.44 0.30 0.22 0.21 0.22 0.21 0.19 0.19 0.19 0.18 0.17 0.17 0.16 0.14 0.15 0.17 0.22 0.24 0.25 0.24 0.24 0.23 0.21 0.21 0.20 0.24 0.32 0.38 0.38 0.42 0.45 0.47 0.52 0.57 0.64 0.67 0.63 0.61 0.63 0.71 0.82
0.31 0.34 0.37 0.32 0.20 0.19 0.18 0.17 0.16 0.14 0.13 0.13 0.13 0.12 0.13 0.15 0.15 0.16 0.18 0.22 0.26 0.27 0.26 0.26 0.26 0.24 0.23 0.23 0.26 0.34 0.38 0.39 0.43 0.43 0.43 0.47 0.49 0.60 0.70 0.69 0.64 0.63 0.64 0.78
0.18 0.23 0.30 0.27 0.19 0.22 0.20 0.16 0.15 0.14 0.14 0.14 0.14 0.12 0.11 0.13 0.15 0.16 0.17 0.20 0.27 0.30 0.29 0.28 0.28 0.27 0.27 0.28 0.31 0.37 0.40 0.40 0.40 0.42 0.41 0.44 0.47 0.55 0.65 0.68 0.70 0.76 0.74 0.77

GEFSCGP_prec_meanprecacc_222.txt.gz
Total_Precipitation_Accumulation
0.66 0.82 0.69 0.45 0.42 0.38 0.33 0.37 0.31 0.20 0.18 0.25 0.25 0.18 0.12 0.11 0.11 0.12 0.12 0.12 0.12 0.11 0.11 0.13 0.19 0.25 0.34 0.45 0.49 0.57 0.64 0.75 0.87 0.97 1.11 1.07 1.02 1.05 1.08 1.04 1.02 1.00 1.06 1.06
0.80 0.72 0.39 0.26 0.30 0.37 0.41 0.45 0.34 0.23 0.18 0.29 0.28 0.19 0.12 0.12 0.11 0.12 0.10 0.12 0.14 0.11 0.10 0.13 0.20 0.25 0.32 0.45 0.50 0.57 0.67 0.76 0.83 0.90 0.99 1.06 1.03 1.06 1.11 1.08 1.06 1.03 1.01 1.05
0.59 0.40 0.21 0.34 0.43 0.53 0.49 0.40 0.29 0.27 0.25 0.32 0.37 0.30 0.14 0.12 0.10 0.11 0.10 0.10 0.15 0.16 0.14 0.14 0.23 0.30 0.34 0.43 0.51 0.56 0.67 0.76 0.82 0.97 1.07 1.15 1.25 1.25 1.27 1.27 1.15 1.06 1.02 0.99
0.44 0.26 0.26 0.40 0.47 0.54 0.53 0.27 0.25 0.29 0.46 0.52 0.44 0.50 0.19 0.14 0.13 0.12 0.10 0.09 0.12 0.14 0.14 0.16 0.21 0.31 0.35 0.40 0.51 0.59 0.70 0.77 0.81 1.00 1.15 1.12 1.19 1.18 1.12 1.08 1.11 1.08 1.04 1.00
0.58 0.31 0.33 0.41 0.33 0.38 0.41 0.23 0.28 0.38 0.53 0.62 0.45 0.51 0.26 0.14 0.14 0.11 0.09 0.09 0.10 0.12 0.13 0.13 0.15 0.21 0.30 0.37 0.48 0.59 0.73 0.83 0.85 0.93 1.12 1.16 1.10 1.06 1.06 1.10 1.09 1.12 1.12 1.07
0.52 0.34 0.39 0.34 0.23 0.28 0.40 0.46 0.52 0.58 0.87 1.07 0.40 0.40 0.31 0.25 0.25 0.16 0.09 0.08 0.10 0.10 0.12 0.12 0.11 0.13 0.26 0.37 0.47 0.56 0.68 0.82 0.88 0.88 1.00 1.16 1.11 1.06 1.05 1.09 1.13 1.13 1.16 1.13
0.65 0.45 0.37 0.32 0.38 0.48 0.68 1.02 1.43 1.45 1.45 0.87 0.18 0.27 0.33 0.25 0.21 0.20 0.15 0.11 0.11 0.11 0.14 0.14 0.12 0.13 0.21 0.32 0.43 0.53 0.63 0.72 0.80 0.83 0.88 0.98 1.10 1.07 0.99 0.95 1.00 1.08 1.15 1.11
0.72 0.55 0.41 0.38 0.43 0.61 0.72 0.92 1.17 1.07 0.69 0.26 0.12 0.24 0.26 0.17 0.13 0.13 0.11 0.10 0.10 0.09 0.10 0.11 0.13 0.15 0.19 0.23 0.30 0.44 0.54 0.67 0.80 0.84 0.84 0.89 0.99 1.10 1.02 0.94 0.92 0.97 1.02 0.99
0.74 0.49 0.30 0.29 0.28 0.42 0.67 0.72 0.60 0.76 0.54 0.33 0.22 0.20 0.16 0.07 0.07 0.08 0.09 0.08 0.10 0.09 0.09 0.10 0.12 0.15 0.17 0.22 0.25 0.36 0.45 0.60 0.78 0.89 0.88 0.88 0.93 1.02 1.04 0.95 0.91 0.93 0.93 0.93
0.79 0.62 0.29 0.27 0.37 0.47 0.55 0.65 0.80 1.13 0.92 0.47 0.24 0.23 0.24 0.14 0.12 0.10 0.10 0.10 0.10 0.11 0.11 0.11 0.12 0.15 0.17 0.20 0.23 0.31 0.40 0.48 0.60 0.79 0.93 0.93 0.90 0.91 0.99 1.01 0.97 0.92 0.92 0.92
0.79 0.81 0.48 0.43 0.61 0.66 0.64 0.86 1.07 1.10 0.79 0.56 0.35 0.31 0.30 0.23 0.18 0.15 0.12 0.12 0.12 0.11 0.11 0.11 0.13 0.16 0.18 0.21 0.26 0.32 0.39 0.45 0.51 0.62 0.78 0.90 0.91 0.95 1.00 1.04 0.99 0.98 0.95 0.94
0.76 0.97 0.65 0.40 0.40 0.40 0.56 0.75 0.95 1.14 0.80 0.43 0.38 0.33 0.24 0.19 0.17 0.16 0.14 0.11 0.10 0.09 0.10 0.10 0.11 0.16 0.20 0.24 0.29 0.35 0.43 0.45 0.47 0.55 0.66 0.78 0.89 0.94 1.00 0.99 1.01 1.06 1.05 0.97
1.09 1.44 1.17 0.74 0.63 0.60 0.69 0.63 0.68 0.82 0.76 0.48 0.36 0.26 0.15 0.12 0.12 0.12 0.13 0.13 0.11 0.09 0.09 0.10 0.12 0.16 0.22 0.26 0.29 0.37 0.44 0.44 0.45 0.55 0.64 0.74 0.86 0.89 0.93 0.90 0.93 1.09 1.20 1.14
1.40 1.49 1.04 0.82 0.67 0.64 0.61 0.49 0.47 0.75 0.89 0.47 0.22 0.17 0.12 0.12 0.12 0.11 0.13 0.15 0.13 0.10 0.09 0.11 0.14 0.17 0.20 0.23 0.27 0.33 0.41 0.47 0.49 0.52 0.62 0.71 0.80 0.82 0.82 0.82 0.83 0.96 1.13 1.21
1.20 1.20 0.54 0.28 0.23 0.31 0.34 0.31 0.34 0.46 0.45 0.36 0.19 0.17 0.16 0.15 0.15 0.15 0.15 0.15 0.14 0.11 0.10 0.11 0.14 0.17 0.22 0.26 0.28 0.31 0.37 0.47 0.54 0.52 0.60 0.63 0.69 0.78 0.78 0.76 0.80 0.89 1.02 1.10
1.12 1.08 0.54 0.29 0.17 0.23 0.27 0.22 0.23 0.25 0.21 0.19 0.14 0.16 0.17 0.17 0.15 0.15 0.14 0.14 0.15 0.13 0.11 0.12 0.13 0.17 0.23 0.28 0.32 0.35 0.39 0.44 0.52 0.53 0.57 0.59 0.67 0.77 0.81 0.75 0.78 0.89 1.00 1.05
1.11 1.11 0.95 0.52 0.23 0.42 0.46 0.25 0.21 0.23 0.21 0.19 0.21 0.21 0.18 0.17 0.17 0.17 0.17 0.17 0.16 0.14 0.13 0.13 0.16 0.20 0.24 0.29 0.31 0.37 0.39 0.43 0.50 0.53 0.54 0.59 0.68 0.72 0.79 0.79 0.81 0.91 1.01 1.03
0.91 1.07 1.29 0.85 0.62 0.88 0.42 0.18 0.17 0.22 0.24 0.21 0.19 0.15 0.15 0.18 0.19 0.21 0.19 0.19 0.18 0.18 0.18 0.17 0.19 0.22 0.22 0.26 0.26 0.31 0.37 0.47 0.53 0.54 0.51 0.57 0.65 0.68 0.77 0.82 0.84 0.94 1.03 1.00
0.47 0.94 1.43 1.17 0.85 0.44 0.23 0.21 0.28 0.35 0.35 0.24 0.18 0.12 0.11 0.13 0.17 0.23 0.19 0.18 0.19 0.20 0.22 0.21 0.21 0.21 0.21 0.24 0.25 0.25 0.31 0.43 0.53 0.57 0.51 0.53 0.62 0.67 0.74 0.80 0.87 0.94 1.02 0.99
0.46 0.88 1.52 1.29 0.93 0.44 0.28 0.20 0.23 0.33 0.45 0.26 0.18 0.15 0.14 0.17 0.26 0.26 0.21 0.19 0.19 0.19 0.21 0.21 0.20 0.19 0.21 0.24 0.25 0.23 0.27 0.35 0.47 0.55 0.48 0.50 0.56 0.60 0.68 0.75 0.85 0.92 0.93 0.92
0.84 1.31 1.49 1.07 0.82 0.33 0.22 0.21 0.26 0.53 0.58 0.29 0.22 0.21 0.20 0.24 0.27 0.24 0.24 0.24 0.23 0.22 0.21 0.19 0.19 0.20 0.23 0.25 0.25 0.25 0.28 0.31 0.40 0.51 0.48 0.51 0.54 0.57 0.64 0.73 0.77 0.84 0.88 0.86
0.70 0.96 0.93 0.81 0.86 0.43 0.25 0.32 0.54 0.61 0.33 0.24 0.22 0.21 0.21 0.21 0.18 0.17 0.20 0.25 0.28 0.24 0.21 0.20 0.19 0.20 0.20 0.22 0.26 0.27 0.31 0.32 0.38 0.47 0.49 0.54 0.59 0.61 0.64 0.70 0.68 0.71 0.82 0.85
0.50 0.67 0.74 0.69 0.54 0.34 0.30 0.39 0.42 0.33 0.27 0.22 0.21 0.20 0.20 0.19 0.18 0.18 0.21 0.25 0.29 0.26 0.23 0.22 0.22 0.20 0.19 0.21 0.26 0.31 0.36 0.36 0.41 0.46 0.49 0.55 0.63 0.66 0.67 0.65 0.66 0.70 0.76 0.84
0.41 0.40 0.49 0.45 0.31 0.24 0.23 0.24 0.23 0.20 0.21 0.20 0.19 0.19 0.19 0.19 0.17 0.18 0.19 0.24 0.26 0.27 0.26 0.25 0.25 0.23 0.22 0.22 0.25 0.33 0.39 0.38 0.42 0.46 0.47 0.53 0.58 0.65 0.68 0.64 0.61 0.63 0.72 0.83
0.33 0.35 0.38 0.33 0.21 0.20 0.19 0.18 0.17 0.15 0.14 0.14 0.14 0.14 0.15 0.16 0.16 0.18 0.20 0.23 0.28 0.28 0.28 0.27 0.27 0.26 0.25 0.24 0.28 0.34 0.38 0.39 0.43 0.43 0.43 0.47 0.50 0.61 0.71 0.70 0.64 0.63 0.64 0.79
0.20 0.26 0.32 0.28 0.20 0.25 0.22 0.17 0.16 0.15 0.14 0.15 0.15 0.13 0.12 0.14 0.16 0.17 0.18 0.21 0.29 0.32 0.31 0.29 0.29 0.28 0.28 0.29 0.33 0.38 0.40 0.40 0.41 0.42 0.42 0.44 0.47 0.55 0.65 0.69 0.71 0.77 0.75 0.78

GEFSCGP_prec_meanprecacc_228.txt.gz
Total_Precipitation_Accumulation
0.75 0.90 0.76 0.50 0.47 0.41 0.36 0.40 0.34 0.22 0.20 0.27 0.26 0.20 0.13 0.12 0.12 0.13 0.13 0.14 0.13 0.12 0.11 0.13 0.20 0.26 0.35 0.46 0.51 0.60 0.66 0.78 0.90 0.99 1.14 1.10 1.05 1.08 1.11 1.07 1.05 1.02 1.07 1.07
0.89 0.78 0.41 0.28 0.33 0.40 0.43 0.48 0.37 0.25 0.20 0.31 0.30 0.21 0.13 0.12 0.12 0.13 0.11 0.13 0.15 0.12 0.11 0.13 0.21 0.27 0.34 0.47 0.52 0.59 0.69 0.79 0.85 0.92 1.01 1.09 1.07 1.09 1.14 1.11 1.09 1.05 1.03 1.06
0.65 0.43 0.23 0.35 0.46 0.56 0.52 0.44 0.33 0.30 0.27 0.34 0.39 0.33 0.16 0.13 0.11 0.12 0.10 0.11 0.15 0.16 0.14 0.15 0.23 0.30 0.35 0.46 0.53 0.58 0.69 0.79 0.85 1.00 1.09 1.18 1.30 1.29 1.30 1.29 1.18 1.08 1.04 1.01
0.49 0.29 0.28 0.43 0.50 0.58 0.57 0.29 0.28 0.32 0.49 0.55 0.47 0.54 0.22 0.16 0.14 0.13 0.11 0.10 0.13 0.14 0.14 0.16 0.21 0.31 0.35 0.42 0.54 0.61 0.72 0.81 0.84 1.02 1.16 1.13 1.22 1.23 1.15 1.10 1.13 1.09 1.06 1.02
0.64 0.35 0.36 0.44 0.35 0.40 0.44 0.26 0.32 0.41 0.57 0.66 0.47 0.54 0.28 0.15 0.15 0.12 0.10 0.09 0.10 0.12 0.13 0.13 0.15 0.21 0.30 0.37 0.50 0.61 0.75 0.85 0.88 0.95 1.13 1.17 1.11 1.10 1.10 1.11 1.10 1.13 1.13 1.07
0.55 0.37 0.43 0.37 0.24 0.30 0.43 0.50 0.58 0.64 0.94 1.13 0.42 0.42 0.33 0.26 0.26 0.16 0.10 0.08 0.10 0.11 0.13 0.12 0.11 0.14 0.26 0.37 0.48 0.57 0.70 0.83 0.89 0.90 1.01 1.17 1.12 1.08 1.08 1.11 1.14 1.14 1.16 1.14
0.68 0.48 0.40 0.34 0.43 0.54 0.74 1.11 1.57 1.60 1.59 0.93 0.19 0.29 0.35 0.26 0.21 0.21 0.15 0.11 0.11 0.11 0.14 0.14 0.12 0.13 0.21 0.32 0.44 0.54 0.65 0.74 0.82 0.85 0.90 1.00 1.11 1.08 1.01 0.96 1.01 1.09 1.16 1.11
0.78 0.61 0.44 0.40 0.48 0.68 0.79 0.99 1.27 1.17 0.76 0.29 0.13 0.27 0.28 0.18 0.14 0.13 0.11 0.10 0.10 0.09 0.10 0.11 0.13 0.16 0.19 0.24 0.31 0.44 0.56 0.69 0.82 0.86 0.86 0.92 1.01 1.12 1.03 0.95 0.94 0.98 1.03 0.99
0.79 0.53 0.31 0.31 0.30 0.45 0.71 0.77 0.64 0.81 0.58 0.36 0.26 0.23 0.18 0.08 0.07 0.09 0.09 0.09 0.10 0.10 0.10 0.10 0.12 0.15 0.18 0.23 0.26 0.37 0.46 0.61 0.80 0.92 0.92 0.92 0.95 1.03 1.04 0.96 0.93 0.94 0.95 0.94
0.83 0.65 0.31 0.29 0.39 0.50 0.58 0.69 0.85 1.19 0.98 0.51 0.28 0.25 0.26 0.15 0.12 0.10 0.10 0.10 0.10 0.11 0.11 0.11 0.13 0.15 0.18 0.21 0.25 0.31 0.41 0.49 0.63 0.82 0.96 0.96 0.93 0.93 0.99 1.01 0.98 0.94 0.94 0.94
0.82 0.85 0.51 0.45 0.65 0.69 0.67 0.89 1.12 1.15 0.84 0.60 0.39 0.34 0.31 0.23 0.18 0.16 0.13 0.12 0.12 0.11 0.11 0.12 0.13 0.16 0.18 0.21 0.27 0.33 0.40 0.47 0.54 0.64 0.81 0.93 0.95 0.97 1.02 1.04 1.00 0.99 0.97 0.95
0.79 1.00 0.68 0.42 0.42 0.42 0.58 0.77 0.97 1.19 0.84 0.47 0.41 0.35 0.25 0.19 0.17 0.16 0.14 0.11 0.10 0.09 0.10 0.10 0.11 0.17 0.20 0.25 0.30 0.36 0.43 0.46 0.50 0.58 0.68 0.80 0.91 0.96 1.01 1.00 1.02 1.07 1.06 1.00
1.13 1.48 1.22 0.79 0.66 0.62 0.71 0.65 0.70 0.84 0.80 0.51 0.39 0.28 0.16 0.13 0.12 0.12 0.13 0.13 0.11 0.09 0.09 0.10 0.12 0.17 0.22 0.27 0.30 0.37 0.45 0.44 0.46 0.57 0.67 0.77 0.88 0.92 0.95 0.91 0.94 1.09 1.20 1.16
1.43 1.52 1.07 0.86 0.70 0.66 0.63 0.50 0.49 0.77 0.93 0.50 0.24 0.19 0.13 0.12 0.12 0.11 0.13 0.15 0.13 0.10 0.10 0.11 0.14 0.17 0.21 0.24 0.28 0.33 0.41 0.47 0.50 0.53 0.64 0.73 0.82 0.84 0.84 0.83 0.84 0.96 1.13 1.23
1.23 1.22 0.55 0.29 0.24 0.32 0.35 0.32 0.35 0.49 0.48 0.38 0.20 0.18 0.17 0.15 0.15 0.16 0.16 0.15 0.14 0.11 0.11 0.12 0.14 0.17 0.22 0.26 0.29 0.32 0.37 0.47 0.54 0.53 0.61 0.64 0.71 0.80 0.80 0.78 0.81 0.90 1.03 1.10
1.15 1.10 0.54 0.29 0.18 0.23 0.28 0.23 0.24 0.26 0.22 0.20 0.15 0.17 0.17 0.17 0.15 0.15 0.15 0.15 0.16 0.14 0.12 0.13 0.14 0.17 0.24 0.28 0.32 0.36 0.40 0.45 0.53 0.53 0.58 0.60 0.68 0.79 0.82 0.76 0.79 0.90 1.00 1.05
1.13 1.13 0.96 0.54 0.23 0.43 0.47 0.27 0.23 0.24 0.22 0.20 0.22 0.22 0.18 0.17 0.17 0.18 0.17 0.17 0.17 0.15 0.14 0.14 0.17 0.21 0.24 0.30 0.31 0.37 0.41 0.45 0.51 0.53 0.54 0.60 0.69 0.73 0.80 0.80 0.82 0.92 1.01 1.04
0.93 1.10 1.32 0.87 0.63 0.90 0.44 0.19 0.19 0.23 0.25 0.22 0.20 0.16 0.16 0.18 0.19 0.21 0.20 0.20 0.20 0.19 0.19 0.17 0.19 0.23 0.23 0.27 0.27 0.31 0.37 0.48 0.55 0.55 0.52 0.59 0.66 0.69 0.78 0.83 0.85 0.95 1.03 1.01
0.49 0.97 1.46 1.20 0.87 0.46 0.24 0.22 0.29 0.37 0.37 0.25 0.19 0.13 0.12 0.14 0.18 0.23 0.19 0.19 0.21 0.21 0.23 0.22 0.21 0.22 0.22 0.25 0.25 0.25 0.31 0.44 0.55 0.58 0.52 0.55 0.63 0.68 0.76 0.81 0.88 0.95 1.03 1.00
0.48 0.91 1.56 1.33 0.97 0.47 0.30 0.21 0.24 0.35 0.49 0.27 0.19 0.17 0.15 0.18 0.28 0.27 0.22 0.20 0.20 0.20 0.21 0.22 0.21 0.21 0.22 0.25 0.26 0.24 0.28 0.37 0.48 0.57 0.49 0.51 0.57 0.61 0.69 0.76 0.86 0.93 0.93 0.92
0.88 1.35 1.53 1.10 0.86 0.35 0.23 0.21 0.26 0.55 0.62 0.31 0.24 0.22 0.22 0.27 0.29 0.26 0.24 0.25 0.24 0.23 0.22 0.20 0.20 0.22 0.25 0.26 0.25 0.26 0.29 0.33 0.42 0.53 0.49 0.51 0.55 0.58 0.66 0.75 0.78 0.85 0.89 0.87
0.71 0.99 0.96 0.84 0.90 0.46 0.26 0.33 0.55 0.64 0.35 0.26 0.24 0.23 0.23 0.22 0.19 0.19 0.22 0.26 0.29 0.26 0.22 0.22 0.21 0.22 0.23 0.24 0.27 0.28 0.32 0.33 0.40 0.49 0.50 0.55 0.60 0.61 0.65 0.71 0.70 0.73 0.83 0.87
0.51 0.69 0.77 0.72 0.57 0.37 0.32 0.41 0.43 0.35 0.29 0.23 0.22 0.22 0.22 0.21 0.19 0.20 0.23 0.27 0.30 0.28 0.24 0.24 0.24 0.22 0.22 0.23 0.28 0.33 0.37 0.37 0.42 0.47 0.50 0.56 0.63 0.66 0.67 0.66 0.68 0.72 0.78 0.85
0.42 0.41 0.51 0.48 0.33 0.25 0.24 0.25 0.24 0.22 0.22 0.21 0.20 0.20 0.20 0.20 0.19 0.20 0.21 0.25 0.27 0.28 0.27 0.27 0.27 0.25 0.24 0.24 0.27 0.35 0.40 0.39 0.43 0.46 0.48 0.54 0.59 0.66 0.69 0.64 0.62 0.65 0.73 0.85
0.34 0.36 0.39 0.34 0.23 0.21 0.20 0.19 0.18 0.17 0.15 0.15 0.15 0.14 0.16 0.18 0.18 0.20 0.22 0.26 0.29 0.30 0.30 0.29 0.30 0.29 0.27 0.26 0.30 0.37 0.40 0.40 0.44 0.43 0.43 0.47 0.50 0.62 0.72 0.71 0.65 0.64 0.65 0.81
0.21 0.27 0.34 0.30 0.21 0.26 0.23 0.18 0.17 0.17 0.15 0.16 0.16 0.14 0.13 0.15 0.18 0.19 0.20 0.23 0.31 0.35 0.33 0.31 0.31 0.31 0.31 0.32 0.35 0.40 0.41 0.41 0.41 0.42 0.42 0.44 0.48 0.56 0.66 0.70 0.72 0.78 0.76 0.79

GEFSCGP_prec_meanprecacc_234.txt.gz
Total_Precipitation_Accumulation
0.84 1.00 0.84 0.55 0.51 0.43 0.38 0.43 0.36 0.24 0.23 0.29 0.28 0.21 0.14 0.13 0.15 0.16 0.16 0.17 0.16 0.16 0.15 0.17 0.23 0.28 0.37 0.48 0.52 0.60 0.68 0.81 0.96 1.06 1.20 1.15 1.09 1.12 1.14 1.10 1.09 1.08 1.15 1.17
0.98 0.86 0.46 0.30 0.35 0.42 0.46 0.51 0.39 0.27 0.22 0.34 0.32 0.23 0.15 0.14 0.14 0.15 0.13 0.15 0.17 0.15 0.13 0.16 0.23 0.29 0.36 0.48 0.53 0.60 0.70 0.80 0.89 0.98 1.07 1.15 1.12 1.13 1.20 1.16 1.13 1.10 1.09 1.13
0.71 0.48 0.25 0.38 0.49 0.60 0.56 0.47 0.35 0.32 0.28 0.37 0.42 0.36 0.19 0.16 0.13 0.14 0.13 0.12 0.18 0.19 0.16 0.17 0.25 0.32 0.37 0.48 0.54 0.59 0.70 0.81 0.88 1.04 1.14 1.24 1.37 1.35 1.35 1.35 1.24 1.14 1.10 1.08
0.52 0.30 0.30 0.46 0.53 0.62 0.62 0.31 0.30 0.35 0.52 0.59 0.50 0.58 0.25 0.19 0.16 0.15 0.13 0.12 0.15 0.18 0.17 0.18 0.22 0.32 0.37 0.44 0.56 0.63 0.74 0.83 0.87 1.07 1.22 1.18 1.27 1.28 1.19 1.13 1.19 1.16 1.11 1.08
0.68 0.36 0.38 0.48 0.38 0.43 0.47 0.27 0.35 0.46 0.61 0.70 0.50 0.57 0.30 0.17 0.17 0.14 0.11 0.10 0.12 0.15 0.15 0.15 0.16 0.22 0.31 0.38 0.52 0.64 0.77 0.87 0.91 0.99 1.19 1.22 1.16 1.14 1.14 1.16 1.15 1.19 1.19 1.13
0.58 0.39 0.45 0.39 0.26 0.33 0.45 0.54 0.63 0.72 1.03 1.22 0.45 0.44 0.35 0.29 0.30 0.19 0.12 0.10 0.12 0.13 0.15 0.14 0.12 0.15 0.28 0.38 0.49 0.60 0.73 0.85 0.92 0.94 1.06 1.22 1.17 1.12 1.11 1.16 1.19 1.19 1.23 1.20
0.71 0.51 0.42 0.36 0.46 0.58 0.79 1.18 1.70 1.77 1.76 1.02 0.21 0.32 0.39 0.29 0.25 0.24 0.18 0.13 0.12 0.12 0.15 0.16 0.14 0.14 0.23 0.33 0.44 0.55 0.67 0.77 0.83 0.88 0.96 1.04 1.15 1.11 1.03 0.99 1.05 1.14 1.21 1.18
0.81 0.66 0.48 0.43 0.53 0.75 0.85 1.05 1.35 1.29 0.86 0.33 0.16 0.30 0.32 0.22 0.16 0.15 0.12 0.11 0.11 0.11 0.11 0.12 0.15 0.17 0.21 0.25 0.31 0.45 0.56 0.71 0.84 0.89 0.90 0.95 1.04 1.14 1.05 0.97 0.96 1.02 1.08 1.04
0.82 0.57 0.34 0.33 0.33 0.49 0.76 0.81 0.67 0.85 0.62 0.41 0.30 0.26 0.20 0.09 0.08 0.10 0.09 0.09 0.11 0.11 0.11 0.11 0.14 0.17 0.19 0.25 0.27 0.37 0.46 0.61 0.81 0.95 0.94 0.94 0.98 1.06 1.07 0.98 0.94 0.96 0.98 0.99
0.87 0.68 0.33 0.31 0.43 0.54 0.62 0.73 0.89 1.23 1.03 0.56 0.32 0.27 0.28 0.16 0.13 0.11 0.11 0.11 0.10 0.12 0.13 0.13 0.14 0.17 0.19 0.23 0.27 0.32 0.41 0.49 0.63 0.84 0.99 0.98 0.95 0.95 1.02 1.04 1.00 0.96 0.95 0.97
0.85 0.88 0.54 0.49 0.70 0.74 0.71 0.95 1.17 1.20 0.88 0.65 0.42 0.37 0.34 0.25 0.20 0.17 0.14 0.13 0.12 0.12 0.13 0.13 0.14 0.17 0.21 0.23 0.29 0.35 0.40 0.47 0.54 0.65 0.83 0.95 0.96 0.99 1.03 1.06 1.02 1.01 0.99 0.97
0.83 1.04 0.72 0.45 0.45 0.44 0.61 0.82 1.02 1.23 0.88 0.50 0.44 0.38 0.27 0.20 0.18 0.17 0.15 0.12 0.10 0.10 0.11 0.11 0.12 0.18 0.22 0.27 0.31 0.37 0.44 0.46 0.50 0.58 0.70 0.82 0.93 0.98 1.03 1.01 1.04 1.09 1.08 1.01
1.18 1.53 1.26 0.83 0.70 0.65 0.74 0.67 0.72 0.87 0.83 0.54 0.42 0.32 0.18 0.13 0.12 0.12 0.14 0.14 0.12 0.10 0.10 0.11 0.13 0.18 0.24 0.29 0.32 0.38 0.45 0.44 0.46 0.57 0.67 0.78 0.89 0.93 0.97 0.93 0.96 1.11 1.22 1.18
1.48 1.57 1.11 0.89 0.73 0.69 0.65 0.52 0.50 0.79 0.97 0.54 0.28 0.22 0.15 0.12 0.12 0.12 0.14 0.15 0.14 0.11 0.11 0.12 0.15 0.18 0.22 0.25 0.31 0.35 0.42 0.47 0.50 0.53 0.64 0.73 0.83 0.85 0.86 0.86 0.85 0.98 1.15 1.24
1.27 1.26 0.57 0.29 0.24 0.32 0.36 0.33 0.37 0.50 0.50 0.41 0.23 0.20 0.18 0.16 0.16 0.16 0.16 0.15 0.15 0.12 0.12 0.13 0.15 0.18 0.23 0.27 0.32 0.34 0.39 0.48 0.54 0.53 0.61 0.65 0.72 0.81 0.82 0.80 0.83 0.91 1.04 1.11
1.18 1.13 0.56 0.30 0.18 0.23 0.28 0.23 0.24 0.27 0.23 0.21 0.16 0.18 0.19 0.18 0.16 0.15 0.15 0.15 0.16 0.14 0.13 0.14 0.15 0.18 0.24 0.29 0.33 0.38 0.41 0.45 0.53 0.53 0.58 0.61 0.69 0.81 0.84 0.78 0.81 0.92 1.02 1.07
1.16 1.16 0.99 0.55 0.24 0.43 0.48 0.28 0.24 0.25 0.23 0.21 0.23 0.23 0.20 0.18 0.17 0.18 0.18 0.18 0.17 0.16 0.15 0.15 0.18 0.21 0.25 0.30 0.32 0.38 0.42 0.46 0.52 0.54 0.55 0.61 0.70 0.75 0.83 0.82 0.84 0.95 1.04 1.06
0.96 1.12 1.34 0.89 0.64 0.91 0.45 0.20 0.20 0.25 0.26 0.23 0.21 0.17 0.17 0.20 0.20 0.22 0.20 0.21 0.20 0.20 0.21 0.18 0.20 0.23 0.23 0.27 0.28 0.32 0.38 0.49 0.56 0.56 0.53 0.60 0.68 0.70 0.80 0.85 0.87 0.98 1.06 1.04
0.52 1.00 1.49 1.23 0.89 0.47 0.25 0.23 0.30 0.38 0.39 0.27 0.20 0.14 0.13 0.15 0.19 0.24 0.20 0.19 0.21 0.22 0.25 0.23 0.22 0.22 0.22 0.25 0.26 0.26 0.32 0.45 0.55 0.59 0.53 0.56 0.65 0.70 0.77 0.83 0.90 0.98 1.06 1.03
0.50 0.94 1.59 1.35 0.99 0.48 0.32 0.21 0.25 0.36 0.51 0.29 0.20 0.17 0.16 0.20 0.30 0.29 0.23 0.21 0.21 0.20 0.22 0.24 0.22 0.21 0.22 0.25 0.26 0.24 0.28 0.37 0.48 0.57 0.50 0.52 0.59 0.63 0.71 0.78 0.88 0.96 0.96 0.95
0.90 1.38 1.55 1.12 0.88 0.36 0.24 0.22 0.27 0.56 0.63 0.32 0.25 0.23 0.23 0.29 0.31 0.27 0.26 0.26 0.25 0.24 0.22 0.21 0.22 0.23 0.25 0.27 0.26 0.26 0.29 0.33 0.42 0.54 0.50 0.52 0.56 0.60 0.67 0.77 0.80 0.88 0.92 0.90
0.73 1.00 0.97 0.86 0.92 0.47 0.27 0.33 0.57 0.65 0.36 0.27 0.26 0.24 0.25 0.24 0.21 0.20 0.23 0.27 0.30 0.27 0.23 0.23 0.22 0.23 0.24 0.25 0.28 0.29 0.32 0.34 0.40 0.50 0.52 0.56 0.61 0.63 0.66 0.72 0.72 0.76 0.86 0.89
0.53 0.71 0.78 0.73 0.60 0.39 0.34 0.42 0.45 0.37 0.30 0.25 0.25 0.24 0.24 0.22 0.21 0.22 0.24 0.28 0.31 0.29 0.25 0.25 0.25 0.23 0.23 0.24 0.29 0.34 0.38 0.38 0.43 0.48 0.51 0.57 0.65 0.68 0.69 0.68 0.70 0.75 0.81 0.88
0.43 0.42 0.52 0.49 0.35 0.27 0.26 0.26 0.26 0.24 0.24 0.24 0.23 0.24 0.23 0.22 0.20 0.22 0.24 0.28 0.29 0.29 0.28 0.28 0.28 0.27 0.25 0.25 0.29 0.36 0.41 0.40 0.44 0.47 0.49 0.55 0.60 0.67 0.70 0.66 0.64 0.67 0.76 0.88
0.34 0.37 0.40 0.35 0.23 0.22 0.21 0.20 0.20 0.18 0.16 0.17 0.17 0.17 0.19 0.20 0.20 0.22 0.25 0.28 0.32 0.32 0.32 0.30 0.31 0.31 0.29 0.28 0.31 0.38 0.41 0.41 0.45 0.44 0.44 0.48 0.51 0.63 0.73 0.73 0.67 0.66 0.67 0.83
0.23 0.29 0.35 0.31 0.22 0.27 0.24 0.19 0.18 0.18 0.16 0.17 0.17 0.15 0.15 0.17 0.19 0.20 0.22 0.26 0.33 0.37 0.35 0.33 0.33 0.33 0.33 0.33 0.36 0.41 0.42 0.42 0.43 0.43 0.43 0.45 0.49 0.57 0.68 0.72 0.74 0.80 0.78 0.81

GEFSCGP_prec_meanprecacc_240.txt.gz
Total_Precipitation_Accumulation
0.93 1.11 0.94 0.62 0.57 0.47 0.42 0.48 0.39 0.26 0.25 0.31 0.29 0.22 0.16 0.15 0.17 0.18 0.18 0.19 0.20 0.24 0.27 0.28 0.34 0.36 0.42 0.51 0.56 0.64 0.70 0.84 0.99 1.11 1.26 1.19 1.12 1.15 1.16 1.12 1.11 1.09 1.17 1.23
1.06 0.94 0.51 0.33 0.38 0.46 0.50 0.56 0.43 0.29 0.25 0.36 0.33 0.24 0.17 0.15 0.16 0.17 0.15 0.17 0.21 0.22 0.26 0.28 0.34 0.37 0.42 0.52 0.56 0.64 0.73 0.83 0.92 1.02 1.13 1.21 1.16 1.16 1.22 1.18 1.15 1.12 1.11 1.16
0.77 0.52 0.28 0.41 0.53 0.64 0.60 0.50 0.39 0.35 0.33 0.41 0.44 0.37 0.21 0.17 0.14 0.15 0.15 0.14 0.21 0.25 0.26 0.30 0.35 0.39 0.43 0.52 0.57 0.62 0.73 0.83 0.90 1.06 1.18 1.28 1.42 1.40 1.40 1.38 1.26 1.16 1.12 1.10
0.56 0.33 0.33 0.51 0.58 0.66 0.64 0.33 0.34 0.40 0.58 0.65 0.54 0.62 0.27 0.20 0.17 0.16 0.15 0.13 0.18 0.23 0.25 0.30 0.34 0.39 0.42 0.47 0.59 0.66 0.77 0.85 0.90 1.09 1.24 1.20 1.31 1.34 1.25 1.18 1.22 1.19 1.14 1.11
0.72 0.39 0.41 0.52 0.42 0.46 0.49 0.29 0.39 0.50 0.68 0.78 0.56 0.62 0.33 0.18 0.19 0.16 0.13 0.12 0.15 0.19 0.20 0.24 0.28 0.31 0.36 0.41 0.54 0.66 0.79 0.89 0.93 1.02 1.21 1.25 1.18 1.17 1.20 1.22 1.21 1.24 1.23 1.17
0.60 0.41 0.47 0.41 0.29 0.35 0.47 0.57 0.68 0.78 1.13 1.33 0.51 0.48 0.38 0.31 0.32 0.22 0.14 0.12 0.14 0.16 0.19 0.21 0.22 0.25 0.34 0.41 0.50 0.62 0.75 0.87 0.94 0.96 1.09 1.24 1.19 1.15 1.15 1.22 1.26 1.25 1.28 1.25
0.75 0.54 0.44 0.38 0.49 0.61 0.83 1.25 1.82 1.92 1.92 1.13 0.25 0.36 0.42 0.31 0.26 0.26 0.20 0.15 0.14 0.15 0.19 0.21 0.21 0.24 0.29 0.36 0.46 0.56 0.69 0.79 0.86 0.91 0.99 1.06 1.17 1.13 1.05 1.03 1.11 1.20 1.27 1.23
0.86 0.70 0.50 0.45 0.56 0.79 0.89 1.12 1.43 1.37 0.93 0.38 0.19 0.33 0.34 0.23 0.17 0.16 0.13 0.12 0.13 0.13 0.15 0.17 0.20 0.24 0.26 0.28 0.33 0.46 0.57 0.73 0.87 0.92 0.94 0.98 1.06 1.16 1.08 1.00 0.99 1.06 1.14 1.10
0.85 0.60 0.36 0.35 0.34 0.51 0.79 0.87 0.71 0.90 0.66 0.43 0.32 0.28 0.20 0.10 0.08 0.10 0.10 0.10 0.12 0.14 0.15 0.16 0.18 0.22 0.24 0.29 0.29 0.38 0.47 0.63 0.84 0.98 0.98 0.97 1.01 1.08 1.08 1.00 0.97 1.00 1.02 1.05
0.91 0.71 0.36 0.33 0.44 0.56 0.65 0.79 0.95 1.30 1.08 0.59 0.33 0.28 0.29 0.17 0.14 0.11 0.11 0.12 0.12 0.14 0.17 0.17 0.17 0.20 0.22 0.26 0.30 0.34 0.43 0.51 0.65 0.87 1.03 1.02 0.99 0.98 1.03 1.06 1.02 0.99 0.99 1.01
0.88 0.92 0.57 0.51 0.73 0.77 0.75 1.02 1.24 1.26 0.92 0.68 0.44 0.39 0.36 0.27 0.21 0.18 0.14 0.14 0.14 0.14 0.17 0.17 0.17 0.20 0.23 0.26 0.32 0.37 0.43 0.49 0.56 0.68 0.86 0.98 0.99 1.01 1.05 1.08 1.03 1.04 1.02 1.01
0.85 1.08 0.75 0.47 0.46 0.46 0.63 0.87 1.07 1.28 0.91 0.52 0.46 0.41 0.29 0.22 0.20 0.18 0.16 0.13 0.11 0.12 0.15 0.16 0.16 0.21 0.25 0.30 0.34 0.40 0.46 0.48 0.52 0.60 0.72 0.85 0.95 1.00 1.05 1.03 1.05 1.11 1.11 1.05
1.23 1.58 1.30 0.87 0.73 0.67 0.77 0.70 0.75 0.90 0.85 0.56 0.44 0.34 0.19 0.14 0.13 0.13 0.15 0.14 0.13 0.12 0.13 0.15 0.18 0.22 0.27 0.32 0.35 0.41 0.47 0.46 0.48 0.59 0.69 0.80 0.92 0.95 0.98 0.94 0.97 1.13 1.24 1.21
1.53 1.61 1.14 0.92 0.76 0.71 0.67 0.54 0.53 0.82 1.00 0.55 0.29 0.24 0.16 0.13 0.13 0.12 0.15 0.17 0.16 0.13 0.14 0.16 0.20 0.23 0.25 0.29 0.34 0.38 0.45 0.49 0.51 0.55 0.66 0.75 0.85 0.88 0.87 0.87 0.86 0.99 1.16 1.26
1.31 1.29 0.59 0.30 0.25 0.33 0.37 0.34 0.38 0.52 0.51 0.42 0.24 0.20 0.19 0.17 0.17 0.17 0.17 0.16 0.16 0.14 0.15 0.17 0.19 0.22 0.27 0.31 0.34 0.37 0.42 0.50 0.56 0.54 0.62 0.66 0.74 0.83 0.84 0.81 0.84 0.92 1.05 1.13
1.21 1.17 0.58 0.31 0.19 0.24 0.29 0.24 0.25 0.28 0.24 0.22 0.17 0.19 0.19 0.18 0.16 0.16 0.16 0.16 0.17 0.16 0.15 0.17 0.18 0.20 0.27 0.32 0.36 0.41 0.44 0.48 0.55 0.55 0.59 0.62 0.70 0.82 0.86 0.80 0.83 0.93 1.03 1.08
1.18 1.19 1.02 0.57 0.25 0.45 0.50 0.29 0.25 0.26 0.25 0.22 0.24 0.25 0.21 0.19 0.18 0.19 0.19 0.19 0.18 0.17 0.16 0.16 0.21 0.24 0.27 0.32 0.33 0.41 0.45 0.49 0.54 0.55 0.56 0.62 0.71 0.76 0.84 0.84 0.86 0.96 1.05 1.07
0.98 1.15 1.38 0.92 0.66 0.93 0.46 0.21 0.21 0.26 0.27 0.24 0.22 0.17 0.18 0.20 0.21 0.22 0.21 0.21 0.20 0.21 0.22 0.20 0.23 0.26 0.26 0.29 0.29 0.34 0.40 0.52 0.59 0.58 0.56 0.61 0.69 0.72 0.81 0.86 0.88 0.99 1.08 1.05
0.54 1.03 1.53 1.26 0.91 0.48 0.26 0.24 0.31 0.40 0.40 0.28 0.20 0.15 0.13 0.16 0.20 0.25 0.20 0.20 0.22 0.23 0.26 0.25 0.24 0.25 0.24 0.27 0.28 0.28 0.33 0.46 0.57 0.61 0.55 0.58 0.67 0.72 0.79 0.84 0.91 0.99 1.08 1.04
0.53 0.97 1.63 1.38 1.00 0.49 0.32 0.22 0.25 0.37 0.52 0.29 0.21 0.18 0.17 0.20 0.31 0.30 0.24 0.22 0.22 0.21 0.23 0.25 0.24 0.22 0.24 0.27 0.29 0.27 0.30 0.39 0.50 0.58 0.51 0.54 0.61 0.65 0.73 0.80 0.89 0.97 0.98 0.97
0.93 1.40 1.58 1.14 0.89 0.37 0.24 0.22 0.28 0.57 0.64 0.33 0.25 0.24 0.24 0.30 0.33 0.28 0.27 0.27 0.26 0.25 0.23 0.22 0.23 0.25 0.27 0.28 0.28 0.28 0.31 0.35 0.44 0.56 0.52 0.54 0.58 0.61 0.69 0.78 0.82 0.89 0.93 0.92
0.75 1.02 0.99 0.87 0.93 0.48 0.28 0.34 0.58 0.66 0.36 0.28 0.26 0.25 0.25 0.25 0.22 0.21 0.24 0.29 0.31 0.28 0.24 0.24 0.24 0.25 0.26 0.27 0.29 0.31 0.34 0.36 0.42 0.52 0.53 0.58 0.63 0.65 0.68 0.74 0.74 0.78 0.87 0.91
0.55 0.72 0.80 0.75 0.61 0.40 0.35 0.43 0.46 0.38 0.31 0.25 0.25 0.25 0.24 0.23 0.22 0.23 0.25 0.30 0.33 0.30 0.27 0.26 0.26 0.24 0.24 0.26 0.31 0.35 0.39 0.39 0.44 0.50 0.52 0.59 0.67 0.70 0.71 0.70 0.72 0.77 0.83 0.90
0.45 0.44 0.53 0.50 0.36 0.28 0.26 0.27 0.26 0.24 0.25 0.24 0.24 0.24 0.24 0.23 0.21 0.23 0.25 0.29 0.31 0.31 0.30 0.30 0.30 0.28 0.26 0.26 0.30 0.37 0.42 0.41 0.45 0.48 0.50 0.56 0.62 0.69 0.72 0.68 0.67 0.70 0.79 0.90
0.36 0.38 0.42 0.37 0.24 0.23 0.22 0.21 0.20 0.19 0.18 0.18 0.18 0.18 0.20 0.22 0.22 0.23 0.26 0.30 0.33 0.34 0.34 0.32 0.32 0.32 0.30 0.29 0.32 0.39 0.42 0.42 0.46 0.45 0.45 0.49 0.53 0.65 0.75 0.75 0.70 0.69 0.70 0.86
0.24 0.30 0.37 0.32 0.23 0.28 0.25 0.20 0.19 0.19 0.18 0.19 0.19 0.17 0.16 0.18 0.21 0.22 0.23 0.27 0.35 0.39 0.37 0.35 0.34 0.34 0.34 0.35 0.38 0.42 0.43 0.43 0.44 0.44 0.43 0.45 0.50 0.59 0.69 0.74 0.76 0.84 0.82 0.84

GEFSCGP_prec_meanprecacc_246.txt.gz
Total_Precipitation_Accumulation
0.96 1.14 0.98 0.65 0.61 0.51 0.45 0.52 0.43 0.28 0.27 0.34 0.31 0.24 0.17 0.16 0.20 0.21 0.21 0.23 0.23 0.27 0.31 0.35 0.43 0.49 0.62 0.68 0.68 0.74 0.80 0.93 1.05 1.16 1.30 1.22 1.16 1.18 1.19 1.16 1.15 1.13 1.20 1.27
1.09 0.97 0.52 0.35 0.42 0.49 0.53 0.61 0.47 0.31 0.26 0.39 0.36 0.27 0.18 0.16 0.18 0.20 0.17 0.20 0.24 0.25 0.30 0.37 0.43 0.48 0.60 0.71 0.70 0.75 0.84 0.93 0.98 1.07 1.18 1.24 1.18 1.20 1.26 1.22 1.20 1.16 1.15 1.20
0.80 0.54 0.29 0.44 0.57 0.68 0.63 0.54 0.43 0.38 0.36 0.44 0.48 0.42 0.24 0.19 0.16 0.17 0.17 0.17 0.24 0.29 0.32 0.37 0.45 0.48 0.58 0.69 0.71 0.74 0.83 0.93 0.98 1.11 1.24 1.35 1.47 1.43 1.42 1.41 1.30 1.19 1.15 1.14
0.57 0.34 0.35 0.54 0.63 0.70 0.68 0.37 0.37 0.42 0.63 0.70 0.58 0.68 0.31 0.22 0.19 0.18 0.17 0.17 0.21 0.27 0.31 0.37 0.43 0.48 0.54 0.60 0.71 0.78 0.87 0.94 0.97 1.15 1.30 1.28 1.39 1.40 1.28 1.20 1.25 1.22 1.16 1.13
0.73 0.41 0.42 0.55 0.46 0.51 0.53 0.33 0.42 0.53 0.72 0.84 0.61 0.67 0.37 0.20 0.21 0.18 0.16 0.16 0.20 0.25 0.25 0.30 0.36 0.39 0.48 0.53 0.66 0.77 0.90 0.99 1.01 1.08 1.27 1.31 1.25 1.24 1.26 1.25 1.23 1.27 1.27 1.20
0.61 0.42 0.48 0.43 0.32 0.39 0.52 0.61 0.73 0.83 1.19 1.41 0.56 0.53 0.42 0.34 0.36 0.25 0.17 0.16 0.21 0.21 0.23 0.27 0.29 0.33 0.45 0.53 0.62 0.72 0.85 0.96 1.01 1.02 1.14 1.29 1.24 1.19 1.20 1.26 1.29 1.28 1.32 1.29
0.77 0.56 0.46 0.40 0.53 0.66 0.88 1.31 1.92 2.05 2.04 1.21 0.29 0.38 0.46 0.36 0.31 0.30 0.23 0.18 0.21 0.21 0.24 0.26 0.25 0.30 0.39 0.46 0.55 0.65 0.78 0.88 0.93 0.95 1.03 1.11 1.21 1.16 1.08 1.07 1.14 1.23 1.29 1.27
0.88 0.74 0.54 0.47 0.59 0.85 0.95 1.15 1.50 1.47 1.00 0.42 0.22 0.36 0.37 0.26 0.21 0.20 0.16 0.16 0.19 0.19 0.20 0.21 0.23 0.29 0.34 0.35 0.40 0.52 0.63 0.79 0.93 0.96 0.98 1.03 1.10 1.19 1.09 1.02 1.02 1.10 1.17 1.13
0.88 0.62 0.39 0.36 0.36 0.55 0.83 0.90 0.75 0.96 0.69 0.46 0.35 0.30 0.23 0.11 0.10 0.12 0.13 0.13 0.17 0.20 0.21 0.20 0.21 0.26 0.30 0.35 0.35 0.43 0.51 0.67 0.88 1.01 1.01 1.01 1.04 1.10 1.10 1.02 0.99 1.02 1.05 1.08
0.93 0.74 0.38 0.34 0.47 0.59 0.67 0.81 0.99 1.35 1.12 0.61 0.35 0.30 0.32 0.20 0.17 0.13 0.14 0.15 0.17 0.20 0.24 0.23 0.21 0.24 0.27 0.32 0.37 0.40 0.47 0.54 0.69 0.90 1.06 1.05 1.02 1.00 1.06 1.07 1.04 1.02 1.01 1.03
0.91 0.95 0.59 0.53 0.75 0.79 0.76 1.03 1.28 1.29 0.95 0.71 0.45 0.41 0.40 0.30 0.25 0.21 0.17 0.17 0.18 0.20 0.23 0.23 0.22 0.22 0.26 0.30 0.39 0.44 0.47 0.52 0.59 0.70 0.88 1.01 1.02 1.03 1.07 1.09 1.05 1.06 1.05 1.03
0.88 1.12 0.78 0.48 0.47 0.47 0.66 0.89 1.10 1.31 0.94 0.54 0.48 0.43 0.32 0.25 0.23 0.20 0.18 0.15 0.15 0.17 0.21 0.22 0.20 0.23 0.27 0.33 0.38 0.47 0.52 0.52 0.56 0.63 0.75 0.88 0.97 1.02 1.06 1.04 1.06 1.12 1.13 1.08
1.27 1.63 1.34 0.89 0.74 0.69 0.79 0.72 0.77 0.92 0.88 0.58 0.46 0.37 0.21 0.16 0.15 0.16 0.17 0.17 0.16 0.16 0.19 0.21 0.22 0.25 0.29 0.34 0.38 0.45 0.52 0.51 0.53 0.64 0.73 0.84 0.95 0.97 1.00 0.95 0.98 1.14 1.26 1.23
1.57 1.65 1.16 0.94 0.78 0.73 0.68 0.55 0.54 0.84 1.02 0.57 0.30 0.26 0.17 0.14 0.14 0.15 0.18 0.19 0.18 0.16 0.17 0.22 0.26 0.27 0.28 0.31 0.37 0.41 0.48 0.53 0.55 0.59 0.71 0.80 0.91 0.91 0.89 0.88 0.88 1.01 1.18 1.28
1.33 1.32 0.60 0.31 0.26 0.34 0.38 0.35 0.39 0.54 0.53 0.43 0.25 0.22 0.20 0.18 0.18 0.19 0.20 0.19 0.18 0.16 0.17 0.20 0.25 0.27 0.32 0.34 0.38 0.40 0.45 0.54 0.60 0.58 0.66 0.71 0.80 0.90 0.88 0.83 0.85 0.94 1.07 1.15
1.22 1.19 0.60 0.32 0.19 0.25 0.31 0.25 0.26 0.30 0.26 0.23 0.17 0.19 0.19 0.18 0.17 0.17 0.17 0.18 0.19 0.17 0.16 0.19 0.22 0.26 0.33 0.38 0.41 0.45 0.47 0.51 0.59 0.59 0.64 0.66 0.75 0.87 0.92 0.84 0.85 0.95 1.05 1.09
1.20 1.21 1.04 0.59 0.26 0.46 0.52 0.31 0.26 0.28 0.26 0.23 0.25 0.26 0.21 0.19 0.18 0.20 0.19 0.20 0.19 0.18 0.17 0.18 0.23 0.27 0.32 0.37 0.38 0.46 0.50 0.53 0.58 0.59 0.61 0.67 0.75 0.80 0.88 0.89 0.89 0.98 1.07 1.09
1.00 1.17 1.41 0.95 0.68 0.94 0.48 0.23 0.22 0.28 0.29 0.25 0.23 0.19 0.19 0.21 0.21 0.23 0.21 0.22 0.21 0.22 0.23 0.21 0.25 0.29 0.30 0.34 0.33 0.38 0.44 0.56 0.63 0.63 0.61 0.66 0.74 0.77 0.85 0.90 0.92 1.02 1.10 1.07
0.55 1.05 1.56 1.29 0.93 0.49 0.27 0.25 0.33 0.41 0.41 0.29 0.21 0.15 0.14 0.16 0.20 0.25 0.21 0.21 0.23 0.24 0.27 0.26 0.26 0.28 0.28 0.31 0.32 0.32 0.37 0.49 0.61 0.66 0.61 0.62 0.70 0.76 0.84 0.89 0.95 1.03 1.11 1.07
0.54 0.98 1.66 1.41 1.02 0.50 0.33 0.23 0.26 0.38 0.53 0.30 0.21 0.19 0.17 0.21 0.32 0.30 0.25 0.22 0.22 0.22 0.24 0.26 0.26 0.25 0.27 0.30 0.32 0.31 0.35 0.43 0.54 0.63 0.55 0.58 0.64 0.69 0.77 0.84 0.93 1.00 1.01 1.00
0.95 1.42 1.60 1.17 0.91 0.38 0.26 0.23 0.28 0.59 0.65 0.33 0.26 0.25 0.25 0.31 0.34 0.29 0.27 0.28 0.27 0.26 0.25 0.24 0.26 0.27 0.30 0.32 0.32 0.32 0.36 0.40 0.49 0.59 0.54 0.57 0.61 0.65 0.73 0.82 0.86 0.93 0.97 0.95
0.78 1.05 1.01 0.89 0.95 0.50 0.29 0.35 0.59 0.68 0.37 0.28 0.27 0.26 0.26 0.26 0.23 0.22 0.24 0.29 0.32 0.29 0.26 0.26 0.26 0.27 0.28 0.30 0.33 0.34 0.37 0.39 0.46 0.55 0.56 0.60 0.66 0.68 0.71 0.77 0.78 0.81 0.92 0.95
0.57 0.75 0.82 0.77 0.63 0.42 0.36 0.45 0.48 0.39 0.33 0.26 0.26 0.26 0.25 0.24 0.23 0.24 0.26 0.30 0.33 0.31 0.29 0.29 0.29 0.27 0.26 0.28 0.33 0.38 0.41 0.41 0.47 0.52 0.54 0.61 0.69 0.72 0.73 0.72 0.75 0.80 0.87 0.94
0.46 0.45 0.55 0.52 0.38 0.29 0.28 0.28 0.28 0.25 0.26 0.25 0.25 0.25 0.25 0.25 0.22 0.24 0.26 0.30 0.32 0.32 0.32 0.32 0.33 0.30 0.28 0.27 0.32 0.39 0.45 0.44 0.48 0.51 0.52 0.58 0.64 0.70 0.74 0.70 0.68 0.72 0.81 0.93
0.37 0.39 0.43 0.39 0.25 0.23 0.22 0.22 0.21 0.20 0.18 0.18 0.19 0.19 0.21 0.22 0.22 0.24 0.26 0.30 0.34 0.35 0.35 0.34 0.35 0.34 0.31 0.30 0.34 0.40 0.44 0.44 0.48 0.46 0.46 0.51 0.54 0.66 0.76 0.76 0.71 0.70 0.72 0.88
0.25 0.32 0.38 0.34 0.25 0.29 0.25 0.21 0.20 0.20 0.19 0.19 0.19 0.17 0.16 0.19 0.21 0.22 0.24 0.28 0.36 0.40 0.38 0.37 0.36 0.35 0.36 0.36 0.39 0.43 0.44 0.44 0.45 0.45 0.44 0.46 0.51 0.59 0.70 0.74 0.77 0.84 0.83 0.85

GEFSCGP_prec_meanprecacc_252.txt.gz
Total_Precipitation_Accumulation
0.98 1.17 1.01 0.68 0.63 0.53 0.48 0.55 0.46 0.31 0.28 0.35 0.34 0.26 0.18 0.17 0.24 0.29 0.25 0.25 0.24 0.28 0.33 0.37 0.46 0.53 0.69 0.77 0.78 0.83 0.89 1.05 1.17 1.27 1.43 1.33 1.22 1.22 1.22 1.18 1.18 1.17 1.25 1.31
1.12 0.99 0.53 0.36 0.43 0.51 0.56 0.64 0.51 0.34 0.28 0.41 0.39 0.29 0.20 0.18 0.22 0.28 0.23 0.23 0.27 0.28 0.34 0.40 0.47 0.52 0.66 0.78 0.79 0.83 0.91 1.04 1.10 1.17 1.28 1.34 1.26 1.25 1.29 1.24 1.22 1.19 1.19 1.24
0.82 0.56 0.30 0.45 0.58 0.70 0.66 0.58 0.46 0.42 0.39 0.47 0.51 0.46 0.27 0.22 0.19 0.24 0.23 0.21 0.28 0.33 0.36 0.43 0.49 0.53 0.63 0.76 0.80 0.82 0.90 1.03 1.09 1.22 1.33 1.44 1.54 1.48 1.46 1.43 1.31 1.21 1.18 1.17
0.59 0.35 0.35 0.55 0.64 0.72 0.70 0.39 0.40 0.47 0.70 0.76 0.64 0.74 0.35 0.24 0.21 0.24 0.24 0.22 0.25 0.31 0.35 0.42 0.48 0.55 0.60 0.67 0.79 0.85 0.95 1.03 1.08 1.26 1.38 1.36 1.47 1.45 1.31 1.22 1.27 1.24 1.18 1.16
0.75 0.41 0.43 0.56 0.47 0.52 0.55 0.35 0.45 0.57 0.78 0.90 0.66 0.74 0.40 0.22 0.25 0.24 0.23 0.21 0.24 0.29 0.29 0.35 0.41 0.46 0.54 0.60 0.72 0.84 0.99 1.10 1.12 1.18 1.35 1.39 1.32 1.30 1.31 1.30 1.26 1.29 1.29 1.22
0.62 0.42 0.49 0.44 0.33 0.40 0.54 0.64 0.78 0.88 1.26 1.48 0.59 0.57 0.46 0.38 0.43 0.32 0.24 0.22 0.25 0.26 0.27 0.32 0.33 0.39 0.50 0.60 0.70 0.79 0.94 1.07 1.13 1.14 1.24 1.38 1.33 1.26 1.25 1.31 1.33 1.30 1.34 1.31
0.78 0.56 0.47 0.41 0.54 0.68 0.91 1.36 2.00 2.14 2.12 1.26 0.31 0.41 0.50 0.40 0.38 0.38 0.33 0.27 0.26 0.26 0.30 0.31 0.30 0.35 0.44 0.52 0.62 0.72 0.86 0.97 1.04 1.07 1.13 1.19 1.29 1.25 1.16 1.12 1.19 1.27 1.32 1.28
0.89 0.75 0.54 0.48 0.61 0.87 0.97 1.20 1.58 1.57 1.06 0.46 0.24 0.39 0.42 0.30 0.25 0.25 0.24 0.27 0.27 0.26 0.26 0.26 0.28 0.34 0.39 0.42 0.47 0.58 0.70 0.88 1.02 1.06 1.09 1.11 1.17 1.26 1.16 1.08 1.07 1.15 1.21 1.16
0.89 0.63 0.39 0.36 0.37 0.56 0.86 0.93 0.78 1.02 0.74 0.49 0.38 0.33 0.26 0.13 0.13 0.15 0.17 0.23 0.28 0.27 0.26 0.24 0.27 0.31 0.35 0.42 0.43 0.51 0.59 0.75 0.96 1.10 1.10 1.09 1.11 1.17 1.16 1.07 1.04 1.06 1.10 1.13
0.96 0.75 0.38 0.35 0.47 0.60 0.70 0.83 1.02 1.41 1.17 0.66 0.39 0.33 0.35 0.23 0.21 0.17 0.18 0.22 0.29 0.28 0.29 0.28 0.26 0.28 0.30 0.37 0.43 0.46 0.54 0.62 0.77 0.98 1.13 1.12 1.07 1.06 1.11 1.12 1.09 1.06 1.05 1.09
0.93 0.97 0.60 0.54 0.76 0.81 0.79 1.06 1.31 1.35 1.00 0.76 0.50 0.46 0.44 0.34 0.30 0.26 0.21 0.22 0.27 0.27 0.30 0.29 0.27 0.26 0.29 0.34 0.45 0.50 0.54 0.59 0.66 0.77 0.96 1.07 1.07 1.07 1.11 1.13 1.08 1.10 1.08 1.07
0.89 1.14 0.80 0.49 0.47 0.48 0.67 0.91 1.13 1.36 0.99 0.59 0.52 0.48 0.35 0.29 0.28 0.25 0.23 0.20 0.20 0.23 0.27 0.28 0.25 0.27 0.30 0.37 0.44 0.53 0.58 0.58 0.61 0.68 0.80 0.94 1.02 1.05 1.09 1.07 1.10 1.15 1.17 1.12
1.29 1.66 1.37 0.90 0.75 0.70 0.80 0.73 0.78 0.95 0.92 0.61 0.49 0.41 0.24 0.18 0.18 0.19 0.21 0.21 0.19 0.21 0.25 0.28 0.28 0.29 0.32 0.38 0.43 0.51 0.58 0.56 0.58 0.69 0.77 0.89 0.99 1.00 1.03 0.98 1.01 1.16 1.29 1.26
1.60 1.68 1.19 0.97 0.81 0.76 0.70 0.56 0.55 0.85 1.05 0.59 0.33 0.29 0.19 0.16 0.16 0.17 0.22 0.23 0.22 0.21 0.22 0.27 0.32 0.32 0.31 0.35 0.41 0.45 0.53 0.57 0.60 0.65 0.75 0.84 0.95 0.94 0.92 0.91 0.90 1.03 1.20 1.30
1.35 1.34 0.61 0.32 0.26 0.35 0.41 0.38 0.41 0.55 0.54 0.45 0.26 0.23 0.22 0.20 0.20 0.22 0.23 0.23 0.22 0.21 0.21 0.25 0.30 0.33 0.36 0.38 0.41 0.43 0.48 0.57 0.63 0.62 0.71 0.75 0.84 0.94 0.91 0.87 0.89 0.97 1.09 1.17
1.24 1.21 0.61 0.33 0.20 0.27 0.33 0.27 0.28 0.31 0.26 0.24 0.18 0.21 0.21 0.20 0.19 0.19 0.20 0.22 0.23 0.21 0.21 0.22 0.26 0.30 0.37 0.41 0.44 0.48 0.50 0.54 0.61 0.61 0.67 0.70 0.79 0.91 0.95 0.88 0.89 0.99 1.08 1.12
1.22 1.23 1.06 0.60 0.26 0.47 0.53 0.32 0.28 0.30 0.27 0.24 0.27 0.27 0.22 0.20 0.20 0.22 0.22 0.22 0.22 0.21 0.20 0.20 0.25 0.31 0.35 0.40 0.41 0.48 0.52 0.55 0.61 0.62 0.64 0.70 0.79 0.84 0.92 0.92 0.94 1.02 1.11 1.12
1.02 1.19 1.44 0.96 0.69 0.96 0.50 0.24 0.23 0.28 0.30 0.26 0.24 0.20 0.19 0.21 0.22 0.25 0.23 0.24 0.24 0.25 0.25 0.23 0.27 0.32 0.33 0.37 0.36 0.41 0.46 0.58 0.66 0.66 0.64 0.70 0.77 0.81 0.90 0.95 0.97 1.07 1.15 1.11
0.57 1.07 1.59 1.31 0.94 0.50 0.28 0.25 0.34 0.42 0.42 0.30 0.22 0.16 0.14 0.17 0.21 0.28 0.23 0.22 0.25 0.27 0.30 0.29 0.30 0.32 0.31 0.34 0.35 0.35 0.39 0.51 0.63 0.69 0.64 0.65 0.74 0.80 0.88 0.94 1.00 1.07 1.15 1.10
0.55 1.00 1.68 1.43 1.05 0.52 0.35 0.23 0.27 0.39 0.54 0.32 0.22 0.20 0.18 0.22 0.33 0.32 0.26 0.24 0.24 0.25 0.27 0.31 0.30 0.29 0.31 0.33 0.36 0.34 0.38 0.45 0.57 0.66 0.59 0.61 0.67 0.72 0.81 0.89 0.98 1.05 1.06 1.05
0.97 1.44 1.63 1.19 0.94 0.40 0.27 0.23 0.29 0.60 0.68 0.34 0.27 0.26 0.26 0.32 0.35 0.30 0.28 0.29 0.28 0.28 0.27 0.27 0.29 0.30 0.33 0.35 0.36 0.37 0.39 0.43 0.51 0.62 0.57 0.60 0.64 0.68 0.76 0.86 0.90 0.97 1.02 1.00
0.79 1.07 1.02 0.90 0.98 0.51 0.30 0.35 0.60 0.69 0.38 0.29 0.28 0.27 0.27 0.27 0.24 0.23 0.25 0.30 0.35 0.33 0.29 0.29 0.28 0.30 0.31 0.33 0.36 0.38 0.41 0.43 0.48 0.57 0.58 0.63 0.68 0.71 0.74 0.80 0.81 0.85 0.96 1.00
0.57 0.77 0.84 0.78 0.65 0.44 0.37 0.46 0.49 0.40 0.33 0.27 0.27 0.27 0.26 0.25 0.23 0.24 0.27 0.31 0.36 0.36 0.31 0.31 0.31 0.29 0.29 0.31 0.37 0.43 0.45 0.45 0.50 0.55 0.56 0.63 0.72 0.75 0.76 0.75 0.78 0.84 0.91 0.99
0.46 0.45 0.56 0.52 0.38 0.30 0.28 0.29 0.28 0.26 0.27 0.26 0.26 0.26 0.25 0.25 0.23 0.25 0.27 0.31 0.33 0.34 0.34 0.34 0.35 0.32 0.31 0.31 0.35 0.44 0.49 0.48 0.52 0.54 0.54 0.60 0.66 0.73 0.77 0.72 0.71 0.75 0.84 0.96
0.38 0.40 0.44 0.39 0.26 0.24 0.23 0.22 0.22 0.20 0.19 0.19 0.19 0.20 0.21 0.23 0.23 0.24 0.27 0.31 0.35 0.36 0.37 0.37 0.37 0.36 0.34 0.33 0.37 0.44 0.48 0.48 0.51 0.49 0.49 0.53 0.56 0.68 0.78 0.78 0.73 0.72 0.74 0.90
0.26 0.32 0.39 0.34 0.25 0.30 0.26 0.21 0.21 0.20 0.19 0.20 0.20 0.18 0.17 0.19 0.22 0.23 0.25 0.28 0.36 0.41 0.40 0.38 0.38 0.38 0.38 0.38 0.41 0.45 0.47 0.47 0.47 0.47 0.47 0.49 0.52 0.60 0.71 0.76 0.78 0.86 0.84 0.87

GEFSCGP_prec_meanprecacc_258.txt.gz
Total_Precipitation_Accumulation
0.99 1.18 1.02 0.69 0.64 0.54 0.49 0.57 0.48 0.32 0.31 0.39 0.38 0.29 0.21 0.20 0.26 0.34 0.36 0.38 0.32 0.32 0.36 0.41 0.49 0.57 0.73 0.82 0.87 0.96 0.97 1.11 1.23 1.35 1.54 1.58 1.51 1.37 1.32 1.29 1.27 1.24 1.31 1.37
1.12 0.99 0.54 0.37 0.44 0.53 0.58 0.67 0.52 0.35 0.30 0.44 0.43 0.33 0.23 0.21 0.25 0.33 0.32 0.37 0.37 0.33 0.38 0.44 0.51 0.56 0.71 0.84 0.86 0.96 1.02 1.10 1.15 1.24 1.36 1.51 1.52 1.43 1.37 1.33 1.29 1.24 1.24 1.29
0.84 0.57 0.31 0.46 0.59 0.72 0.68 0.60 0.49 0.44 0.41 0.49 0.55 0.50 0.31 0.25 0.22 0.29 0.33 0.36 0.42 0.42 0.42 0.46 0.53 0.57 0.68 0.82 0.86 0.91 1.02 1.11 1.15 1.28 1.40 1.54 1.73 1.67 1.56 1.50 1.39 1.27 1.22 1.21
0.60 0.36 0.36 0.56 0.65 0.73 0.71 0.41 0.42 0.49 0.73 0.80 0.68 0.78 0.38 0.27 0.25 0.29 0.34 0.37 0.42 0.42 0.42 0.46 0.51 0.58 0.64 0.73 0.85 0.92 1.04 1.13 1.16 1.31 1.45 1.43 1.57 1.59 1.41 1.30 1.34 1.30 1.23 1.19
0.75 0.42 0.43 0.56 0.48 0.53 0.56 0.36 0.47 0.60 0.82 0.94 0.70 0.77 0.43 0.25 0.31 0.30 0.32 0.33 0.40 0.43 0.35 0.39 0.45 0.49 0.59 0.67 0.80 0.91 1.06 1.18 1.21 1.25 1.42 1.46 1.39 1.39 1.39 1.38 1.34 1.36 1.34 1.26
0.62 0.42 0.49 0.45 0.33 0.41 0.55 0.65 0.79 0.90 1.30 1.53 0.62 0.59 0.49 0.42 0.49 0.38 0.30 0.31 0.39 0.43 0.36 0.36 0.37 0.42 0.55 0.67 0.79 0.89 1.01 1.13 1.20 1.22 1.32 1.46 1.40 1.33 1.33 1.39 1.41 1.38 1.40 1.35
0.78 0.56 0.47 0.41 0.55 0.69 0.92 1.38 2.03 2.18 2.16 1.29 0.33 0.44 0.54 0.45 0.43 0.44 0.40 0.35 0.39 0.42 0.40 0.36 0.34 0.40 0.48 0.57 0.71 0.81 0.96 1.05 1.11 1.15 1.22 1.27 1.38 1.33 1.24 1.20 1.26 1.34 1.38 1.34
0.89 0.75 0.55 0.48 0.62 0.88 0.98 1.22 1.62 1.61 1.10 0.48 0.26 0.43 0.47 0.35 0.29 0.28 0.29 0.35 0.39 0.42 0.38 0.31 0.32 0.39 0.44 0.47 0.56 0.69 0.79 0.96 1.09 1.14 1.17 1.19 1.26 1.36 1.26 1.17 1.15 1.21 1.27 1.21
0.90 0.63 0.39 0.36 0.37 0.57 0.87 0.94 0.81 1.06 0.76 0.51 0.41 0.37 0.30 0.15 0.14 0.17 0.21 0.30 0.39 0.42 0.39 0.32 0.32 0.37 0.40 0.47 0.52 0.63 0.69 0.84 1.03 1.16 1.17 1.17 1.19 1.26 1.26 1.18 1.14 1.14 1.16 1.18
0.96 0.76 0.38 0.35 0.47 0.61 0.70 0.85 1.04 1.44 1.20 0.68 0.42 0.39 0.42 0.27 0.23 0.20 0.21 0.28 0.38 0.41 0.45 0.38 0.32 0.34 0.37 0.43 0.50 0.54 0.64 0.73 0.86 1.05 1.20 1.18 1.14 1.14 1.20 1.22 1.19 1.16 1.12 1.14
0.94 0.98 0.61 0.55 0.77 0.82 0.79 1.07 1.33 1.38 1.03 0.81 0.54 0.51 0.51 0.40 0.34 0.29 0.26 0.29 0.37 0.40 0.43 0.38 0.32 0.30 0.34 0.40 0.51 0.56 0.60 0.67 0.76 0.87 1.04 1.14 1.13 1.13 1.19 1.22 1.17 1.18 1.16 1.14
0.89 1.15 0.81 0.50 0.48 0.49 0.68 0.92 1.15 1.40 1.01 0.63 0.57 0.54 0.40 0.33 0.31 0.28 0.27 0.26 0.29 0.33 0.36 0.36 0.32 0.32 0.34 0.41 0.49 0.58 0.63 0.63 0.68 0.76 0.89 1.02 1.09 1.12 1.16 1.16 1.17 1.22 1.23 1.19
1.31 1.68 1.39 0.92 0.76 0.71 0.80 0.74 0.80 0.98 0.95 0.63 0.52 0.46 0.26 0.20 0.20 0.22 0.25 0.25 0.25 0.29 0.35 0.37 0.37 0.36 0.37 0.43 0.47 0.54 0.62 0.61 0.64 0.75 0.85 0.98 1.07 1.08 1.10 1.06 1.08 1.23 1.34 1.32
1.63 1.72 1.22 0.99 0.82 0.77 0.71 0.57 0.56 0.87 1.07 0.61 0.36 0.32 0.21 0.18 0.19 0.21 0.26 0.27 0.27 0.29 0.32 0.37 0.42 0.43 0.38 0.40 0.44 0.49 0.57 0.63 0.65 0.71 0.83 0.93 1.02 1.00 0.98 0.96 0.96 1.09 1.26 1.36
1.36 1.37 0.63 0.33 0.27 0.36 0.43 0.39 0.42 0.57 0.55 0.48 0.29 0.26 0.25 0.24 0.25 0.26 0.28 0.27 0.27 0.27 0.31 0.36 0.42 0.43 0.44 0.45 0.46 0.48 0.53 0.63 0.69 0.69 0.79 0.84 0.92 1.00 0.96 0.91 0.94 1.02 1.15 1.22
1.25 1.24 0.63 0.34 0.21 0.27 0.34 0.28 0.29 0.32 0.28 0.26 0.20 0.23 0.24 0.23 0.21 0.22 0.23 0.25 0.27 0.27 0.28 0.31 0.35 0.41 0.47 0.50 0.51 0.54 0.57 0.62 0.69 0.69 0.75 0.78 0.87 0.97 1.01 0.93 0.93 1.03 1.13 1.16
1.23 1.26 1.09 0.62 0.27 0.48 0.54 0.33 0.29 0.31 0.29 0.25 0.29 0.30 0.25 0.22 0.22 0.25 0.25 0.25 0.27 0.26 0.25 0.25 0.31 0.40 0.45 0.49 0.49 0.56 0.60 0.63 0.68 0.70 0.72 0.77 0.86 0.90 0.96 0.97 0.98 1.06 1.15 1.16
1.03 1.21 1.47 0.99 0.71 0.97 0.51 0.25 0.24 0.29 0.31 0.28 0.26 0.22 0.21 0.24 0.26 0.29 0.27 0.28 0.28 0.28 0.30 0.28 0.33 0.40 0.41 0.45 0.43 0.48 0.53 0.64 0.71 0.72 0.70 0.75 0.82 0.85 0.94 0.98 1.00 1.10 1.18 1.14
0.57 1.09 1.62 1.35 0.97 0.51 0.29 0.26 0.34 0.43 0.43 0.31 0.23 0.17 0.16 0.19 0.24 0.31 0.26 0.26 0.30 0.31 0.34 0.33 0.35 0.40 0.37 0.40 0.41 0.40 0.44 0.57 0.69 0.74 0.69 0.70 0.77 0.84 0.92 0.97 1.03 1.11 1.19 1.14
0.56 1.02 1.71 1.46 1.08 0.53 0.35 0.23 0.27 0.39 0.55 0.32 0.23 0.20 0.19 0.23 0.35 0.35 0.29 0.27 0.28 0.28 0.31 0.35 0.35 0.36 0.35 0.37 0.39 0.37 0.41 0.49 0.62 0.70 0.63 0.66 0.72 0.77 0.87 0.93 1.01 1.07 1.08 1.07
0.98 1.47 1.65 1.21 0.96 0.41 0.27 0.24 0.29 0.61 0.68 0.35 0.28 0.27 0.27 0.33 0.37 0.32 0.30 0.31 0.32 0.33 0.31 0.32 0.34 0.36 0.37 0.38 0.38 0.39 0.42 0.46 0.55 0.66 0.62 0.66 0.69 0.73 0.82 0.90 0.93 0.99 1.04 1.03
0.81 1.08 1.04 0.92 1.00 0.52 0.30 0.35 0.61 0.70 0.38 0.30 0.28 0.27 0.28 0.28 0.25 0.24 0.27 0.32 0.39 0.38 0.33 0.34 0.34 0.34 0.35 0.36 0.39 0.41 0.44 0.46 0.52 0.60 0.62 0.67 0.72 0.74 0.78 0.84 0.85 0.89 0.99 1.03
0.58 0.77 0.85 0.80 0.66 0.44 0.37 0.46 0.50 0.41 0.34 0.27 0.27 0.27 0.27 0.25 0.24 0.26 0.29 0.33 0.39 0.41 0.36 0.35 0.36 0.33 0.33 0.35 0.41 0.46 0.48 0.48 0.54 0.58 0.60 0.67 0.75 0.79 0.80 0.79 0.81 0.86 0.93 1.01
0.46 0.46 0.57 0.53 0.39 0.30 0.29 0.29 0.29 0.26 0.27 0.26 0.26 0.27 0.26 0.26 0.24 0.26 0.29 0.32 0.35 0.38 0.39 0.39 0.39 0.37 0.35 0.35 0.40 0.48 0.52 0.50 0.54 0.58 0.58 0.64 0.70 0.76 0.79 0.75 0.73 0.77 0.87 0.99
0.38 0.40 0.45 0.40 0.27 0.25 0.23 0.23 0.22 0.20 0.19 0.19 0.20 0.20 0.22 0.23 0.23 0.26 0.29 0.32 0.36 0.38 0.40 0.41 0.42 0.42 0.40 0.38 0.41 0.48 0.53 0.51 0.54 0.53 0.52 0.57 0.60 0.71 0.81 0.80 0.75 0.74 0.76 0.93
0.26 0.33 0.39 0.35 0.25 0.30 0.26 0.22 0.21 0.21 0.20 0.20 0.21 0.19 0.17 0.20 0.23 0.24 0.26 0.29 0.37 0.42 0.42 0.42 0.42 0.43 0.45 0.44 0.46 0.49 0.52 0.50 0.50 0.51 0.50 0.53 0.56 0.63 0.74 0.78 0.80 0.87 0.86 0.89

GEFSCGP_prec_meanprecacc_264.txt.gz
Total_Precipitation_Accumulation
1.00 1.19 1.03 0.70 0.65 0.56 0.50 0.58 0.49 0.34 0.33 0.43 0.42 0.34 0.24 0.23 0.30 0.38 0.41 0.45 0.38 0.42 0.45 0.48 0.56 0.62 0.77 0.85 0.89 0.99 1.03 1.21 1.35 1.49 1.66 1.70 1.63 1.53 1.50 1.45 1.41 1.39 1.46 1.53
1.13 1.00 0.54 0.37 0.45 0.54 0.59 0.67 0.53 0.37 0.31 0.48 0.47 0.37 0.26 0.24 0.28 0.37 0.37 0.44 0.44 0.44 0.49 0.53 0.60 0.63 0.77 0.88 0.88 0.98 1.08 1.19 1.25 1.34 1.46 1.59 1.62 1.57 1.52 1.46 1.46 1.39 1.37 1.42
0.84 0.57 0.31 0.47 0.61 0.73 0.69 0.61 0.49 0.45 0.43 0.53 0.59 0.54 0.33 0.27 0.24 0.33 0.38 0.43 0.51 0.52 0.55 0.56 0.61 0.64 0.76 0.88 0.90 0.94 1.07 1.19 1.25 1.37 1.49 1.62 1.81 1.79 1.72 1.58 1.48 1.39 1.36 1.34
0.61 0.36 0.36 0.57 0.67 0.75 0.73 0.42 0.43 0.50 0.76 0.85 0.73 0.83 0.41 0.29 0.27 0.32 0.39 0.43 0.51 0.52 0.54 0.59 0.59 0.64 0.72 0.80 0.91 0.96 1.10 1.21 1.25 1.42 1.54 1.51 1.63 1.67 1.53 1.39 1.38 1.36 1.32 1.32
0.77 0.42 0.44 0.56 0.49 0.55 0.58 0.37 0.48 0.61 0.84 0.99 0.74 0.81 0.46 0.26 0.32 0.33 0.35 0.38 0.47 0.51 0.46 0.52 0.55 0.55 0.64 0.74 0.87 0.96 1.10 1.24 1.29 1.36 1.52 1.54 1.46 1.46 1.49 1.46 1.40 1.42 1.40 1.34
0.62 0.42 0.49 0.45 0.34 0.42 0.56 0.67 0.81 0.92 1.32 1.56 0.65 0.62 0.51 0.44 0.51 0.41 0.35 0.36 0.46 0.50 0.46 0.48 0.48 0.48 0.58 0.73 0.85 0.96 1.06 1.17 1.26 1.30 1.43 1.57 1.50 1.41 1.42 1.47 1.47 1.45 1.48 1.43
0.78 0.56 0.47 0.42 0.55 0.69 0.93 1.40 2.06 2.21 2.19 1.32 0.35 0.46 0.57 0.47 0.45 0.48 0.45 0.41 0.43 0.48 0.49 0.48 0.42 0.45 0.51 0.62 0.77 0.88 1.04 1.11 1.15 1.20 1.30 1.37 1.48 1.43 1.34 1.29 1.33 1.41 1.46 1.43
0.90 0.75 0.55 0.48 0.62 0.89 1.00 1.25 1.65 1.64 1.12 0.50 0.28 0.45 0.49 0.36 0.30 0.31 0.33 0.39 0.42 0.45 0.45 0.42 0.40 0.44 0.47 0.51 0.62 0.75 0.86 1.04 1.15 1.18 1.21 1.26 1.33 1.44 1.34 1.25 1.21 1.27 1.34 1.29
0.90 0.64 0.39 0.37 0.37 0.57 0.88 0.97 0.83 1.09 0.79 0.54 0.44 0.39 0.31 0.15 0.15 0.18 0.23 0.33 0.43 0.47 0.47 0.42 0.39 0.42 0.44 0.52 0.58 0.70 0.77 0.92 1.11 1.22 1.21 1.22 1.26 1.33 1.33 1.25 1.22 1.22 1.24 1.27
0.98 0.77 0.39 0.36 0.48 0.61 0.71 0.86 1.07 1.47 1.23 0.70 0.44 0.40 0.44 0.29 0.26 0.22 0.24 0.32 0.41 0.47 0.51 0.46 0.40 0.41 0.42 0.48 0.56 0.62 0.73 0.84 0.97 1.15 1.27 1.24 1.21 1.21 1.28 1.29 1.28 1.25 1.22 1.25
0.95 1.00 0.62 0.56 0.78 0.83 0.80 1.08 1.35 1.40 1.06 0.84 0.56 0.54 0.54 0.43 0.39 0.33 0.29 0.34 0.43 0.45 0.49 0.46 0.40 0.37 0.40 0.45 0.57 0.63 0.69 0.79 0.88 0.98 1.14 1.23 1.22 1.22 1.27 1.29 1.24 1.26 1.24 1.22
0.90 1.17 0.82 0.51 0.49 0.49 0.69 0.93 1.17 1.43 1.04 0.65 0.60 0.57 0.41 0.35 0.35 0.32 0.30 0.30 0.35 0.39 0.42 0.42 0.38 0.37 0.41 0.48 0.55 0.66 0.71 0.72 0.78 0.86 0.99 1.13 1.19 1.22 1.26 1.24 1.24 1.28 1.30 1.26
1.33 1.70 1.41 0.93 0.77 0.71 0.82 0.75 0.82 1.00 0.98 0.67 0.56 0.49 0.28 0.21 0.22 0.24 0.28 0.28 0.30 0.36 0.42 0.44 0.43 0.42 0.43 0.50 0.54 0.62 0.70 0.68 0.70 0.82 0.92 1.05 1.14 1.15 1.19 1.14 1.17 1.31 1.42 1.39
1.64 1.74 1.24 1.00 0.84 0.79 0.73 0.58 0.58 0.91 1.12 0.64 0.37 0.35 0.23 0.19 0.20 0.24 0.29 0.31 0.32 0.34 0.37 0.43 0.49 0.49 0.46 0.47 0.51 0.54 0.63 0.67 0.70 0.76 0.89 0.98 1.07 1.06 1.05 1.05 1.04 1.16 1.32 1.43
1.37 1.38 0.63 0.34 0.28 0.38 0.44 0.40 0.44 0.59 0.58 0.50 0.31 0.28 0.28 0.26 0.27 0.29 0.31 0.31 0.31 0.31 0.35 0.42 0.50 0.52 0.53 0.54 0.54 0.53 0.57 0.67 0.73 0.73 0.83 0.88 0.97 1.05 1.02 0.99 1.02 1.09 1.20 1.27
1.25 1.24 0.63 0.35 0.21 0.28 0.34 0.29 0.29 0.33 0.29 0.27 0.21 0.24 0.26 0.25 0.22 0.23 0.25 0.28 0.31 0.31 0.33 0.36 0.41 0.47 0.54 0.59 0.59 0.59 0.60 0.65 0.72 0.73 0.79 0.83 0.93 1.04 1.07 1.01 1.01 1.11 1.19 1.21
1.24 1.26 1.10 0.63 0.27 0.48 0.54 0.34 0.30 0.31 0.30 0.26 0.30 0.31 0.26 0.23 0.23 0.27 0.27 0.28 0.29 0.30 0.31 0.30 0.36 0.46 0.52 0.58 0.58 0.61 0.64 0.67 0.72 0.74 0.77 0.83 0.92 0.97 1.04 1.05 1.06 1.13 1.22 1.22
1.04 1.22 1.48 1.00 0.71 0.98 0.52 0.25 0.25 0.30 0.31 0.29 0.28 0.23 0.23 0.26 0.27 0.31 0.29 0.30 0.30 0.31 0.34 0.32 0.37 0.46 0.48 0.53 0.53 0.57 0.57 0.69 0.77 0.78 0.77 0.81 0.89 0.92 1.02 1.07 1.09 1.19 1.25 1.20
0.58 1.10 1.63 1.36 0.98 0.52 0.29 0.26 0.35 0.43 0.43 0.32 0.25 0.18 0.17 0.21 0.26 0.32 0.27 0.28 0.32 0.33 0.37 0.37 0.39 0.45 0.43 0.49 0.52 0.53 0.52 0.63 0.74 0.80 0.74 0.75 0.83 0.90 0.99 1.05 1.11 1.18 1.27 1.22
0.57 1.03 1.73 1.48 1.09 0.54 0.36 0.24 0.27 0.40 0.56 0.33 0.24 0.21 0.20 0.24 0.37 0.38 0.31 0.29 0.29 0.30 0.34 0.38 0.40 0.42 0.42 0.46 0.49 0.48 0.52 0.57 0.68 0.76 0.68 0.70 0.76 0.82 0.93 1.00 1.07 1.13 1.14 1.14
0.99 1.48 1.67 1.22 0.97 0.41 0.28 0.24 0.29 0.62 0.69 0.35 0.28 0.28 0.28 0.35 0.40 0.36 0.33 0.33 0.34 0.34 0.33 0.35 0.38 0.41 0.43 0.44 0.45 0.46 0.52 0.56 0.61 0.71 0.66 0.70 0.73 0.77 0.86 0.95 0.98 1.05 1.10 1.08
0.81 1.09 1.05 0.93 1.01 0.53 0.30 0.36 0.61 0.70 0.38 0.30 0.30 0.28 0.30 0.30 0.28 0.28 0.30 0.35 0.42 0.41 0.36 0.36 0.38 0.40 0.40 0.41 0.44 0.46 0.49 0.53 0.59 0.65 0.66 0.72 0.77 0.78 0.82 0.89 0.90 0.94 1.04 1.08
0.58 0.78 0.86 0.80 0.66 0.44 0.38 0.46 0.50 0.41 0.34 0.28 0.29 0.29 0.30 0.28 0.27 0.30 0.32 0.36 0.43 0.44 0.40 0.39 0.40 0.38 0.38 0.39 0.45 0.51 0.53 0.53 0.61 0.64 0.65 0.72 0.80 0.82 0.83 0.84 0.86 0.91 0.98 1.06
0.47 0.46 0.57 0.53 0.39 0.30 0.29 0.30 0.29 0.27 0.28 0.27 0.27 0.29 0.30 0.29 0.26 0.30 0.33 0.35 0.38 0.41 0.44 0.44 0.44 0.41 0.40 0.39 0.45 0.53 0.57 0.55 0.60 0.63 0.63 0.69 0.74 0.80 0.84 0.80 0.78 0.81 0.91 1.03
0.38 0.41 0.45 0.41 0.27 0.25 0.24 0.23 0.23 0.21 0.19 0.20 0.21 0.22 0.24 0.26 0.26 0.30 0.33 0.35 0.40 0.42 0.46 0.46 0.47 0.46 0.46 0.44 0.48 0.54 0.56 0.55 0.59 0.58 0.58 0.62 0.65 0.75 0.86 0.85 0.79 0.79 0.81 0.98
0.26 0.33 0.40 0.36 0.26 0.31 0.27 0.22 0.22 0.22 0.20 0.21 0.22 0.20 0.19 0.21 0.25 0.27 0.30 0.32 0.40 0.45 0.46 0.47 0.47 0.48 0.52 0.50 0.52 0.54 0.55 0.53 0.53 0.55 0.54 0.57 0.61 0.68 0.77 0.82 0.84 0.92 0.90 0.93

GEFSCGP_prec_meanprecacc_270.txt.gz
Total_Precipitation_Accumulation
1.02 1.21 1.06 0.71 0.66 0.57 0.51 0.58 0.50 0.34 0.33 0.43 0.44 0.35 0.25 0.25 0.31 0.39 0.42 0.47 0.42 0.45 0.48 0.52 0.59 0.67 0.85 0.93 0.96 1.06 1.10 1.28 1.43 1.58 1.75 1.79 1.73 1.64 1.63 1.57 1.50 1.45 1.52 1.59
1.16 1.02 0.56 0.38 0.46 0.55 0.60 0.68 0.54 0.37 0.32 0.48 0.48 0.38 0.28 0.25 0.30 0.39 0.39 0.46 0.48 0.48 0.53 0.58 0.64 0.70 0.86 0.98 0.97 1.06 1.15 1.27 1.32 1.41 1.54 1.68 1.70 1.67 1.65 1.58 1.58 1.48 1.45 1.48
0.86 0.59 0.32 0.47 0.61 0.74 0.70 0.61 0.50 0.46 0.43 0.54 0.60 0.55 0.34 0.28 0.27 0.35 0.40 0.45 0.55 0.58 0.60 0.62 0.66 0.72 0.86 0.99 1.02 1.03 1.15 1.28 1.33 1.44 1.58 1.72 1.90 1.88 1.87 1.71 1.57 1.51 1.47 1.42
0.63 0.38 0.37 0.58 0.68 0.76 0.74 0.42 0.43 0.50 0.77 0.86 0.74 0.85 0.42 0.30 0.29 0.35 0.41 0.45 0.55 0.59 0.61 0.67 0.67 0.74 0.84 0.92 1.03 1.06 1.18 1.30 1.34 1.49 1.64 1.64 1.76 1.77 1.65 1.51 1.46 1.43 1.43 1.43
0.78 0.43 0.45 0.58 0.50 0.57 0.59 0.37 0.48 0.61 0.85 1.01 0.76 0.84 0.47 0.27 0.34 0.35 0.39 0.42 0.51 0.59 0.57 0.63 0.65 0.65 0.75 0.84 0.96 1.05 1.19 1.33 1.38 1.44 1.60 1.62 1.56 1.56 1.58 1.57 1.50 1.48 1.47 1.42
0.62 0.43 0.49 0.45 0.34 0.43 0.57 0.67 0.82 0.93 1.34 1.60 0.67 0.64 0.52 0.45 0.53 0.43 0.39 0.42 0.51 0.58 0.60 0.61 0.59 0.57 0.68 0.81 0.94 1.05 1.15 1.25 1.34 1.38 1.51 1.63 1.56 1.49 1.51 1.57 1.58 1.54 1.54 1.49
0.78 0.57 0.47 0.42 0.55 0.70 0.94 1.42 2.09 2.23 2.21 1.34 0.37 0.49 0.59 0.48 0.47 0.51 0.49 0.47 0.49 0.54 0.59 0.62 0.52 0.54 0.59 0.70 0.86 0.98 1.13 1.18 1.23 1.29 1.38 1.43 1.54 1.49 1.40 1.37 1.42 1.51 1.56 1.50
0.90 0.75 0.55 0.48 0.63 0.90 1.01 1.26 1.69 1.67 1.14 0.52 0.30 0.48 0.52 0.39 0.33 0.34 0.36 0.44 0.47 0.50 0.51 0.53 0.51 0.52 0.54 0.57 0.69 0.83 0.95 1.11 1.21 1.24 1.28 1.32 1.39 1.50 1.39 1.31 1.26 1.33 1.41 1.37
0.91 0.64 0.39 0.37 0.37 0.58 0.89 0.98 0.85 1.12 0.81 0.56 0.46 0.42 0.34 0.18 0.18 0.21 0.27 0.37 0.47 0.52 0.51 0.47 0.48 0.50 0.50 0.55 0.61 0.75 0.85 0.99 1.17 1.29 1.28 1.27 1.31 1.38 1.38 1.31 1.27 1.26 1.27 1.31
0.99 0.78 0.39 0.36 0.48 0.62 0.72 0.88 1.08 1.50 1.26 0.72 0.46 0.43 0.48 0.34 0.32 0.26 0.28 0.35 0.45 0.51 0.55 0.49 0.44 0.47 0.48 0.51 0.58 0.66 0.80 0.91 1.03 1.22 1.35 1.31 1.26 1.26 1.33 1.35 1.34 1.31 1.27 1.29
0.95 1.00 0.62 0.56 0.78 0.83 0.81 1.09 1.36 1.42 1.07 0.86 0.58 0.57 0.57 0.48 0.47 0.38 0.33 0.38 0.46 0.50 0.54 0.50 0.44 0.43 0.47 0.50 0.60 0.65 0.73 0.86 0.96 1.06 1.23 1.31 1.28 1.28 1.32 1.35 1.30 1.32 1.30 1.27
0.90 1.18 0.82 0.51 0.49 0.50 0.69 0.95 1.18 1.45 1.05 0.66 0.62 0.59 0.44 0.41 0.43 0.36 0.33 0.34 0.38 0.43 0.47 0.46 0.42 0.41 0.46 0.54 0.60 0.69 0.75 0.77 0.86 0.97 1.10 1.23 1.27 1.28 1.31 1.28 1.28 1.33 1.34 1.30
1.34 1.71 1.42 0.93 0.77 0.71 0.82 0.76 0.83 1.02 1.00 0.68 0.58 0.51 0.29 0.25 0.27 0.28 0.30 0.32 0.34 0.40 0.47 0.48 0.47 0.45 0.47 0.55 0.60 0.68 0.76 0.74 0.77 0.92 1.04 1.17 1.25 1.22 1.23 1.18 1.20 1.34 1.45 1.43
1.66 1.75 1.24 1.01 0.84 0.79 0.73 0.58 0.59 0.92 1.14 0.65 0.39 0.37 0.24 0.21 0.24 0.27 0.32 0.34 0.35 0.37 0.41 0.47 0.54 0.53 0.49 0.51 0.55 0.60 0.69 0.74 0.76 0.82 0.97 1.08 1.17 1.14 1.10 1.09 1.08 1.19 1.36 1.46
1.39 1.39 0.64 0.34 0.28 0.38 0.44 0.40 0.44 0.60 0.59 0.52 0.32 0.30 0.30 0.28 0.31 0.33 0.34 0.34 0.34 0.34 0.39 0.47 0.56 0.56 0.57 0.58 0.59 0.58 0.62 0.72 0.79 0.79 0.90 0.95 1.04 1.11 1.07 1.03 1.05 1.12 1.23 1.30
1.27 1.25 0.64 0.35 0.21 0.28 0.34 0.29 0.29 0.34 0.30 0.28 0.22 0.26 0.28 0.27 0.25 0.26 0.27 0.31 0.34 0.34 0.37 0.41 0.46 0.52 0.59 0.65 0.66 0.66 0.66 0.71 0.78 0.79 0.85 0.88 0.98 1.09 1.12 1.05 1.06 1.14 1.23 1.25
1.25 1.27 1.11 0.63 0.27 0.48 0.55 0.34 0.30 0.32 0.31 0.28 0.32 0.33 0.28 0.24 0.25 0.30 0.30 0.31 0.32 0.33 0.33 0.34 0.42 0.52 0.59 0.65 0.66 0.69 0.70 0.73 0.79 0.79 0.82 0.87 0.97 1.02 1.09 1.09 1.11 1.18 1.26 1.26
1.05 1.23 1.49 1.01 0.72 0.98 0.52 0.26 0.26 0.30 0.32 0.30 0.29 0.25 0.25 0.28 0.29 0.34 0.32 0.33 0.32 0.34 0.36 0.35 0.42 0.52 0.55 0.60 0.62 0.66 0.65 0.77 0.83 0.83 0.81 0.85 0.93 0.96 1.06 1.11 1.13 1.24 1.31 1.25
0.59 1.11 1.65 1.38 0.99 0.53 0.30 0.27 0.36 0.44 0.44 0.33 0.25 0.19 0.18 0.21 0.27 0.35 0.30 0.31 0.34 0.36 0.40 0.40 0.43 0.49 0.48 0.55 0.59 0.62 0.59 0.70 0.80 0.85 0.78 0.79 0.87 0.93 1.02 1.08 1.15 1.23 1.33 1.27
0.58 1.04 1.75 1.49 1.10 0.55 0.36 0.24 0.28 0.41 0.56 0.33 0.24 0.22 0.20 0.25 0.39 0.41 0.34 0.32 0.32 0.32 0.36 0.41 0.42 0.45 0.46 0.51 0.54 0.55 0.59 0.63 0.73 0.80 0.71 0.73 0.80 0.85 0.96 1.03 1.11 1.17 1.20 1.21
1.00 1.50 1.69 1.24 0.99 0.42 0.28 0.25 0.30 0.62 0.69 0.36 0.29 0.29 0.29 0.37 0.43 0.39 0.36 0.36 0.37 0.36 0.36 0.37 0.40 0.43 0.46 0.48 0.49 0.52 0.58 0.62 0.66 0.74 0.69 0.73 0.76 0.80 0.90 0.98 1.01 1.08 1.14 1.14
0.82 1.10 1.06 0.95 1.03 0.54 0.31 0.36 0.62 0.71 0.39 0.31 0.30 0.29 0.31 0.32 0.30 0.30 0.32 0.37 0.44 0.43 0.38 0.39 0.40 0.42 0.43 0.44 0.48 0.51 0.54 0.58 0.64 0.68 0.69 0.75 0.80 0.81 0.85 0.92 0.93 0.97 1.08 1.12
0.58 0.78 0.86 0.81 0.67 0.44 0.38 0.47 0.51 0.42 0.35 0.28 0.29 0.30 0.31 0.29 0.29 0.33 0.35 0.39 0.46 0.46 0.42 0.41 0.43 0.41 0.41 0.43 0.48 0.55 0.57 0.58 0.65 0.68 0.68 0.74 0.82 0.85 0.86 0.87 0.89 0.94 1.01 1.09
0.47 0.46 0.57 0.53 0.39 0.30 0.29 0.30 0.29 0.27 0.29 0.28 0.28 0.30 0.31 0.30 0.29 0.34 0.36 0.39 0.42 0.44 0.45 0.46 0.47 0.45 0.43 0.43 0.49 0.57 0.61 0.59 0.64 0.68 0.68 0.72 0.77 0.83 0.88 0.84 0.81 0.84 0.94 1.06
0.38 0.41 0.46 0.41 0.27 0.25 0.24 0.23 0.23 0.21 0.20 0.20 0.22 0.23 0.26 0.27 0.29 0.33 0.36 0.39 0.44 0.45 0.48 0.48 0.49 0.50 0.50 0.48 0.52 0.58 0.61 0.59 0.63 0.62 0.62 0.67 0.69 0.79 0.89 0.88 0.83 0.82 0.84 1.01
0.26 0.34 0.41 0.36 0.26 0.32 0.27 0.22 0.22 0.22 0.20 0.22 0.23 0.21 0.20 0.23 0.28 0.30 0.32 0.36 0.44 0.48 0.48 0.49 0.50 0.51 0.55 0.54 0.55 0.58 0.60 0.58 0.57 0.58 0.58 0.61 0.64 0.71 0.81 0.85 0.87 0.95 0.93 0.96